<?xml version="1.0" encoding="UTF-8" standalone="no" ?>
<gpx xmlns="http://www.topografix.com/GPX/1/1" xmlns:xsi="http://www.w3.org/2001/XMLSchema-instance" xsi:schemaLocation="http://www.topografix.com/GPX/1/1 http://www.topografix.com/GPX/1/1/gpx.xsd" version="1.1" creator="VisuGPX - https://www.visugpx.com">
  <metadata>
    <name>Randonnée Clermont le Fort du 06-10-2018</name>
    <desc><![CDATA[Boucle au départ de Clermont le Fort le long de l'ariège]]></desc>
  </metadata>
  <trk>
    <name><![CDATA[Randonnée Clermont le Fort du 06-10-2018_1]]></name>
    <trkseg>
      <trkpt lat="43.45573" lon="1.43442">
        <ele>180</ele>
        <time>2018-10-06T09:27:27Z</time>
      </trkpt>
      <trkpt lat="43.45573" lon="1.4344">
        <ele>180</ele>
        <time>2018-10-06T09:27:27Z</time>
      </trkpt>
      <trkpt lat="43.45571" lon="1.43439">
        <ele>180</ele>
        <time>2018-10-06T09:27:27Z</time>
      </trkpt>
      <trkpt lat="43.45569" lon="1.43435">
        <ele>180</ele>
        <time>2018-10-06T09:27:27Z</time>
      </trkpt>
      <trkpt lat="43.45566" lon="1.43432">
        <ele>180</ele>
        <time>2018-10-06T09:27:27Z</time>
      </trkpt>
      <trkpt lat="43.45564" lon="1.43429">
        <ele>180</ele>
        <time>2018-10-06T09:27:43Z</time>
      </trkpt>
      <trkpt lat="43.45561" lon="1.43425">
        <ele>180</ele>
        <time>2018-10-06T09:27:43Z</time>
      </trkpt>
      <trkpt lat="43.45557" lon="1.43423">
        <ele>180</ele>
        <time>2018-10-06T09:27:43Z</time>
      </trkpt>
      <trkpt lat="43.45553" lon="1.4342">
        <ele>180</ele>
        <time>2018-10-06T09:27:43Z</time>
      </trkpt>
      <trkpt lat="43.45549" lon="1.43417">
        <ele>180</ele>
        <time>2018-10-06T09:27:59Z</time>
      </trkpt>
      <trkpt lat="43.45546" lon="1.43416">
        <ele>180</ele>
        <time>2018-10-06T09:27:59Z</time>
      </trkpt>
      <trkpt lat="43.45543" lon="1.43412">
        <ele>180</ele>
        <time>2018-10-06T09:27:59Z</time>
      </trkpt>
      <trkpt lat="43.4554" lon="1.43408">
        <ele>172</ele>
        <time>2018-10-06T09:27:59Z</time>
      </trkpt>
      <trkpt lat="43.45536" lon="1.43405">
        <ele>172</ele>
        <time>2018-10-06T09:28:15Z</time>
      </trkpt>
      <trkpt lat="43.45531" lon="1.43403">
        <ele>172</ele>
        <time>2018-10-06T09:28:15Z</time>
      </trkpt>
      <trkpt lat="43.45526" lon="1.43401">
        <ele>172</ele>
        <time>2018-10-06T09:28:15Z</time>
      </trkpt>
      <trkpt lat="43.4552" lon="1.43399">
        <ele>172</ele>
        <time>2018-10-06T09:28:15Z</time>
      </trkpt>
      <trkpt lat="43.45515" lon="1.43395">
        <ele>172</ele>
        <time>2018-10-06T09:28:31Z</time>
      </trkpt>
      <trkpt lat="43.45511" lon="1.43392">
        <ele>172</ele>
        <time>2018-10-06T09:28:31Z</time>
      </trkpt>
      <trkpt lat="43.45508" lon="1.43386">
        <ele>172</ele>
        <time>2018-10-06T09:28:31Z</time>
      </trkpt>
      <trkpt lat="43.45503" lon="1.43383">
        <ele>172</ele>
        <time>2018-10-06T09:28:31Z</time>
      </trkpt>
      <trkpt lat="43.45498" lon="1.43381">
        <ele>172</ele>
        <time>2018-10-06T09:28:47Z</time>
      </trkpt>
      <trkpt lat="43.45493" lon="1.43379">
        <ele>172</ele>
        <time>2018-10-06T09:28:47Z</time>
      </trkpt>
      <trkpt lat="43.45489" lon="1.43379">
        <ele>172</ele>
        <time>2018-10-06T09:28:47Z</time>
      </trkpt>
      <trkpt lat="43.45484" lon="1.43378">
        <ele>172</ele>
        <time>2018-10-06T09:28:47Z</time>
      </trkpt>
      <trkpt lat="43.45478" lon="1.43377">
        <ele>172</ele>
        <time>2018-10-06T09:29:03Z</time>
      </trkpt>
      <trkpt lat="43.45475" lon="1.43377">
        <ele>172</ele>
        <time>2018-10-06T09:29:03Z</time>
      </trkpt>
      <trkpt lat="43.4547" lon="1.43376">
        <ele>172</ele>
        <time>2018-10-06T09:29:03Z</time>
      </trkpt>
      <trkpt lat="43.45466" lon="1.4337">
        <ele>166</ele>
        <time>2018-10-06T09:29:03Z</time>
      </trkpt>
      <trkpt lat="43.45463" lon="1.43363">
        <ele>166</ele>
        <time>2018-10-06T09:29:19Z</time>
      </trkpt>
      <trkpt lat="43.45462" lon="1.43358">
        <ele>166</ele>
        <time>2018-10-06T09:29:19Z</time>
      </trkpt>
      <trkpt lat="43.45461" lon="1.43352">
        <ele>166</ele>
        <time>2018-10-06T09:29:19Z</time>
      </trkpt>
      <trkpt lat="43.45461" lon="1.43346">
        <ele>166</ele>
        <time>2018-10-06T09:29:19Z</time>
      </trkpt>
      <trkpt lat="43.4546" lon="1.43339">
        <ele>166</ele>
        <time>2018-10-06T09:29:35Z</time>
      </trkpt>
      <trkpt lat="43.45458" lon="1.43333">
        <ele>171</ele>
        <time>2018-10-06T09:29:35Z</time>
      </trkpt>
      <trkpt lat="43.45455" lon="1.43326">
        <ele>171</ele>
        <time>2018-10-06T09:29:35Z</time>
      </trkpt>
      <trkpt lat="43.45452" lon="1.4332">
        <ele>171</ele>
        <time>2018-10-06T09:29:35Z</time>
      </trkpt>
      <trkpt lat="43.45449" lon="1.43316">
        <ele>171</ele>
        <time>2018-10-06T09:29:51Z</time>
      </trkpt>
      <trkpt lat="43.45444" lon="1.43311">
        <ele>171</ele>
        <time>2018-10-06T09:29:51Z</time>
      </trkpt>
      <trkpt lat="43.45437" lon="1.43309">
        <ele>171</ele>
        <time>2018-10-06T09:29:51Z</time>
      </trkpt>
      <trkpt lat="43.45432" lon="1.43308">
        <ele>171</ele>
        <time>2018-10-06T09:29:51Z</time>
      </trkpt>
      <trkpt lat="43.45427" lon="1.43305">
        <ele>171</ele>
        <time>2018-10-06T09:30:07Z</time>
      </trkpt>
      <trkpt lat="43.45422" lon="1.43301">
        <ele>171</ele>
        <time>2018-10-06T09:30:07Z</time>
      </trkpt>
      <trkpt lat="43.45417" lon="1.43299">
        <ele>171</ele>
        <time>2018-10-06T09:30:07Z</time>
      </trkpt>
      <trkpt lat="43.45413" lon="1.43299">
        <ele>171</ele>
        <time>2018-10-06T09:30:07Z</time>
      </trkpt>
      <trkpt lat="43.45409" lon="1.43297">
        <ele>171</ele>
        <time>2018-10-06T09:30:23Z</time>
      </trkpt>
      <trkpt lat="43.45404" lon="1.43293">
        <ele>171</ele>
        <time>2018-10-06T09:30:23Z</time>
      </trkpt>
      <trkpt lat="43.45398" lon="1.4329">
        <ele>164</ele>
        <time>2018-10-06T09:30:23Z</time>
      </trkpt>
      <trkpt lat="43.45391" lon="1.43288">
        <ele>164</ele>
        <time>2018-10-06T09:30:23Z</time>
      </trkpt>
      <trkpt lat="43.45386" lon="1.43288">
        <ele>164</ele>
        <time>2018-10-06T09:30:39Z</time>
      </trkpt>
      <trkpt lat="43.45382" lon="1.43288">
        <ele>164</ele>
        <time>2018-10-06T09:30:39Z</time>
      </trkpt>
      <trkpt lat="43.4538" lon="1.43287">
        <ele>164</ele>
        <time>2018-10-06T09:30:39Z</time>
      </trkpt>
      <trkpt lat="43.45377" lon="1.43283">
        <ele>164</ele>
        <time>2018-10-06T09:30:39Z</time>
      </trkpt>
      <trkpt lat="43.45373" lon="1.43278">
        <ele>168</ele>
        <time>2018-10-06T09:30:55Z</time>
      </trkpt>
      <trkpt lat="43.45369" lon="1.43274">
        <ele>168</ele>
        <time>2018-10-06T09:30:55Z</time>
      </trkpt>
      <trkpt lat="43.45365" lon="1.43272">
        <ele>168</ele>
        <time>2018-10-06T09:30:55Z</time>
      </trkpt>
      <trkpt lat="43.4536" lon="1.43268">
        <ele>168</ele>
        <time>2018-10-06T09:30:55Z</time>
      </trkpt>
      <trkpt lat="43.45353" lon="1.43262">
        <ele>168</ele>
        <time>2018-10-06T09:31:11Z</time>
      </trkpt>
      <trkpt lat="43.4535" lon="1.43258">
        <ele>168</ele>
        <time>2018-10-06T09:31:11Z</time>
      </trkpt>
      <trkpt lat="43.45345" lon="1.43254">
        <ele>168</ele>
        <time>2018-10-06T09:31:11Z</time>
      </trkpt>
      <trkpt lat="43.45342" lon="1.4325">
        <ele>168</ele>
        <time>2018-10-06T09:31:11Z</time>
      </trkpt>
      <trkpt lat="43.45338" lon="1.43247">
        <ele>168</ele>
        <time>2018-10-06T09:31:27Z</time>
      </trkpt>
      <trkpt lat="43.45334" lon="1.43242">
        <ele>168</ele>
        <time>2018-10-06T09:31:27Z</time>
      </trkpt>
      <trkpt lat="43.4533" lon="1.43237">
        <ele>168</ele>
        <time>2018-10-06T09:31:27Z</time>
      </trkpt>
      <trkpt lat="43.45328" lon="1.43232">
        <ele>168</ele>
        <time>2018-10-06T09:31:27Z</time>
      </trkpt>
      <trkpt lat="43.45326" lon="1.43226">
        <ele>168</ele>
        <time>2018-10-06T09:31:43Z</time>
      </trkpt>
      <trkpt lat="43.45323" lon="1.43221">
        <ele>168</ele>
        <time>2018-10-06T09:31:43Z</time>
      </trkpt>
      <trkpt lat="43.4532" lon="1.43216">
        <ele>168</ele>
        <time>2018-10-06T09:31:43Z</time>
      </trkpt>
      <trkpt lat="43.45316" lon="1.43211">
        <ele>168</ele>
        <time>2018-10-06T09:31:43Z</time>
      </trkpt>
      <trkpt lat="43.45313" lon="1.43207">
        <ele>164</ele>
        <time>2018-10-06T09:31:59Z</time>
      </trkpt>
      <trkpt lat="43.45309" lon="1.43202">
        <ele>164</ele>
        <time>2018-10-06T09:31:59Z</time>
      </trkpt>
      <trkpt lat="43.45304" lon="1.43196">
        <ele>164</ele>
        <time>2018-10-06T09:31:59Z</time>
      </trkpt>
      <trkpt lat="43.45301" lon="1.43191">
        <ele>164</ele>
        <time>2018-10-06T09:31:59Z</time>
      </trkpt>
      <trkpt lat="43.45298" lon="1.43184">
        <ele>164</ele>
        <time>2018-10-06T09:32:15Z</time>
      </trkpt>
      <trkpt lat="43.45294" lon="1.43178">
        <ele>164</ele>
        <time>2018-10-06T09:32:15Z</time>
      </trkpt>
      <trkpt lat="43.45291" lon="1.43173">
        <ele>162</ele>
        <time>2018-10-06T09:32:15Z</time>
      </trkpt>
      <trkpt lat="43.45289" lon="1.43168">
        <ele>162</ele>
        <time>2018-10-06T09:32:15Z</time>
      </trkpt>
      <trkpt lat="43.45285" lon="1.43164">
        <ele>162</ele>
        <time>2018-10-06T09:32:31Z</time>
      </trkpt>
      <trkpt lat="43.45283" lon="1.43159">
        <ele>162</ele>
        <time>2018-10-06T09:32:31Z</time>
      </trkpt>
      <trkpt lat="43.4528" lon="1.43152">
        <ele>162</ele>
        <time>2018-10-06T09:32:31Z</time>
      </trkpt>
      <trkpt lat="43.45276" lon="1.43147">
        <ele>162</ele>
        <time>2018-10-06T09:32:31Z</time>
      </trkpt>
      <trkpt lat="43.45273" lon="1.43142">
        <ele>162</ele>
        <time>2018-10-06T09:32:47Z</time>
      </trkpt>
      <trkpt lat="43.4527" lon="1.43137">
        <ele>162</ele>
        <time>2018-10-06T09:32:47Z</time>
      </trkpt>
      <trkpt lat="43.45265" lon="1.43133">
        <ele>162</ele>
        <time>2018-10-06T09:32:47Z</time>
      </trkpt>
      <trkpt lat="43.45257" lon="1.4313">
        <ele>162</ele>
        <time>2018-10-06T09:32:47Z</time>
      </trkpt>
      <trkpt lat="43.45251" lon="1.43126">
        <ele>162</ele>
        <time>2018-10-06T09:33:03Z</time>
      </trkpt>
      <trkpt lat="43.45247" lon="1.43121">
        <ele>161</ele>
        <time>2018-10-06T09:33:03Z</time>
      </trkpt>
      <trkpt lat="43.45244" lon="1.43116">
        <ele>161</ele>
        <time>2018-10-06T09:33:03Z</time>
      </trkpt>
      <trkpt lat="43.45243" lon="1.43111">
        <ele>161</ele>
        <time>2018-10-06T09:33:03Z</time>
      </trkpt>
      <trkpt lat="43.4524" lon="1.43106">
        <ele>161</ele>
        <time>2018-10-06T09:33:19Z</time>
      </trkpt>
      <trkpt lat="43.45238" lon="1.43101">
        <ele>161</ele>
        <time>2018-10-06T09:33:19Z</time>
      </trkpt>
      <trkpt lat="43.45233" lon="1.43096">
        <ele>161</ele>
        <time>2018-10-06T09:33:19Z</time>
      </trkpt>
      <trkpt lat="43.45229" lon="1.43091">
        <ele>161</ele>
        <time>2018-10-06T09:33:19Z</time>
      </trkpt>
      <trkpt lat="43.45227" lon="1.43086">
        <ele>161</ele>
        <time>2018-10-06T09:33:35Z</time>
      </trkpt>
      <trkpt lat="43.45224" lon="1.43079">
        <ele>161</ele>
        <time>2018-10-06T09:33:35Z</time>
      </trkpt>
      <trkpt lat="43.45222" lon="1.43073">
        <ele>161</ele>
        <time>2018-10-06T09:33:35Z</time>
      </trkpt>
      <trkpt lat="43.45218" lon="1.43069">
        <ele>161</ele>
        <time>2018-10-06T09:33:35Z</time>
      </trkpt>
      <trkpt lat="43.45212" lon="1.43058">
        <ele>161</ele>
        <time>2018-10-06T09:34:59Z</time>
      </trkpt>
      <trkpt lat="43.45211" lon="1.43056">
        <ele>161</ele>
        <time>2018-10-06T09:34:59Z</time>
      </trkpt>
      <trkpt lat="43.45211" lon="1.43051">
        <ele>161</ele>
        <time>2018-10-06T09:34:59Z</time>
      </trkpt>
      <trkpt lat="43.45211" lon="1.43044">
        <ele>161</ele>
        <time>2018-10-06T09:34:59Z</time>
      </trkpt>
      <trkpt lat="43.45209" lon="1.43037">
        <ele>164</ele>
        <time>2018-10-06T09:34:59Z</time>
      </trkpt>
      <trkpt lat="43.45207" lon="1.43033">
        <ele>166</ele>
        <time>2018-10-06T09:35:15Z</time>
      </trkpt>
      <trkpt lat="43.45207" lon="1.43028">
        <ele>166</ele>
        <time>2018-10-06T09:35:15Z</time>
      </trkpt>
      <trkpt lat="43.45205" lon="1.43022">
        <ele>166</ele>
        <time>2018-10-06T09:35:15Z</time>
      </trkpt>
      <trkpt lat="43.45201" lon="1.43014">
        <ele>166</ele>
        <time>2018-10-06T09:35:15Z</time>
      </trkpt>
      <trkpt lat="43.45197" lon="1.43007">
        <ele>166</ele>
        <time>2018-10-06T09:35:31Z</time>
      </trkpt>
      <trkpt lat="43.45193" lon="1.43001">
        <ele>166</ele>
        <time>2018-10-06T09:35:31Z</time>
      </trkpt>
      <trkpt lat="43.45192" lon="1.42995">
        <ele>166</ele>
        <time>2018-10-06T09:35:31Z</time>
      </trkpt>
      <trkpt lat="43.45192" lon="1.42989">
        <ele>166</ele>
        <time>2018-10-06T09:35:31Z</time>
      </trkpt>
      <trkpt lat="43.45192" lon="1.42984">
        <ele>166</ele>
        <time>2018-10-06T09:35:47Z</time>
      </trkpt>
      <trkpt lat="43.45195" lon="1.42978">
        <ele>166</ele>
        <time>2018-10-06T09:35:47Z</time>
      </trkpt>
      <trkpt lat="43.45194" lon="1.42973">
        <ele>166</ele>
        <time>2018-10-06T09:35:47Z</time>
      </trkpt>
      <trkpt lat="43.45192" lon="1.42968">
        <ele>166</ele>
        <time>2018-10-06T09:35:47Z</time>
      </trkpt>
      <trkpt lat="43.45192" lon="1.42964">
        <ele>166</ele>
        <time>2018-10-06T09:36:03Z</time>
      </trkpt>
      <trkpt lat="43.45193" lon="1.42959">
        <ele>166</ele>
        <time>2018-10-06T09:36:03Z</time>
      </trkpt>
      <trkpt lat="43.45195" lon="1.42954">
        <ele>163</ele>
        <time>2018-10-06T09:36:03Z</time>
      </trkpt>
      <trkpt lat="43.45194" lon="1.42949">
        <ele>163</ele>
        <time>2018-10-06T09:36:03Z</time>
      </trkpt>
      <trkpt lat="43.45193" lon="1.42944">
        <ele>163</ele>
        <time>2018-10-06T09:36:19Z</time>
      </trkpt>
      <trkpt lat="43.45192" lon="1.42935">
        <ele>163</ele>
        <time>2018-10-06T09:36:19Z</time>
      </trkpt>
      <trkpt lat="43.45189" lon="1.42928">
        <ele>163</ele>
        <time>2018-10-06T09:36:19Z</time>
      </trkpt>
      <trkpt lat="43.45188" lon="1.42923">
        <ele>163</ele>
        <time>2018-10-06T09:36:19Z</time>
      </trkpt>
      <trkpt lat="43.45186" lon="1.42917">
        <ele>163</ele>
        <time>2018-10-06T09:36:35Z</time>
      </trkpt>
      <trkpt lat="43.45185" lon="1.42912">
        <ele>163</ele>
        <time>2018-10-06T09:36:35Z</time>
      </trkpt>
      <trkpt lat="43.45183" lon="1.42906">
        <ele>163</ele>
        <time>2018-10-06T09:36:35Z</time>
      </trkpt>
      <trkpt lat="43.45182" lon="1.42899">
        <ele>163</ele>
        <time>2018-10-06T09:36:35Z</time>
      </trkpt>
      <trkpt lat="43.45183" lon="1.42893">
        <ele>163</ele>
        <time>2018-10-06T09:36:51Z</time>
      </trkpt>
      <trkpt lat="43.45182" lon="1.42889">
        <ele>163</ele>
        <time>2018-10-06T09:36:51Z</time>
      </trkpt>
      <trkpt lat="43.4518" lon="1.42883">
        <ele>163</ele>
        <time>2018-10-06T09:36:51Z</time>
      </trkpt>
      <trkpt lat="43.45176" lon="1.42876">
        <ele>163</ele>
        <time>2018-10-06T09:36:51Z</time>
      </trkpt>
      <trkpt lat="43.45171" lon="1.4287">
        <ele>163</ele>
        <time>2018-10-06T09:37:07Z</time>
      </trkpt>
      <trkpt lat="43.45169" lon="1.42866">
        <ele>163</ele>
        <time>2018-10-06T09:37:07Z</time>
      </trkpt>
      <trkpt lat="43.45169" lon="1.42862">
        <ele>163</ele>
        <time>2018-10-06T09:37:07Z</time>
      </trkpt>
      <trkpt lat="43.45167" lon="1.42856">
        <ele>163</ele>
        <time>2018-10-06T09:37:07Z</time>
      </trkpt>
      <trkpt lat="43.45165" lon="1.42851">
        <ele>163</ele>
        <time>2018-10-06T09:37:23Z</time>
      </trkpt>
      <trkpt lat="43.45162" lon="1.42845">
        <ele>163</ele>
        <time>2018-10-06T09:37:23Z</time>
      </trkpt>
      <trkpt lat="43.45158" lon="1.4284">
        <ele>163</ele>
        <time>2018-10-06T09:37:23Z</time>
      </trkpt>
      <trkpt lat="43.45156" lon="1.42835">
        <ele>163</ele>
        <time>2018-10-06T09:37:23Z</time>
      </trkpt>
      <trkpt lat="43.45151" lon="1.4283">
        <ele>163</ele>
        <time>2018-10-06T09:37:39Z</time>
      </trkpt>
      <trkpt lat="43.45148" lon="1.42828">
        <ele>163</ele>
        <time>2018-10-06T09:37:39Z</time>
      </trkpt>
      <trkpt lat="43.45146" lon="1.42825">
        <ele>163</ele>
        <time>2018-10-06T09:37:39Z</time>
      </trkpt>
      <trkpt lat="43.45144" lon="1.42822">
        <ele>163</ele>
        <time>2018-10-06T09:37:39Z</time>
      </trkpt>
      <trkpt lat="43.45141" lon="1.42819">
        <ele>163</ele>
        <time>2018-10-06T09:37:55Z</time>
      </trkpt>
      <trkpt lat="43.45139" lon="1.42814">
        <ele>163</ele>
        <time>2018-10-06T09:37:55Z</time>
      </trkpt>
      <trkpt lat="43.45136" lon="1.42808">
        <ele>163</ele>
        <time>2018-10-06T09:37:55Z</time>
      </trkpt>
      <trkpt lat="43.45132" lon="1.42805">
        <ele>163</ele>
        <time>2018-10-06T09:37:55Z</time>
      </trkpt>
      <trkpt lat="43.4513" lon="1.42804">
        <ele>163</ele>
        <time>2018-10-06T09:38:11Z</time>
      </trkpt>
      <trkpt lat="43.45128" lon="1.42802">
        <ele>163</ele>
        <time>2018-10-06T09:38:11Z</time>
      </trkpt>
      <trkpt lat="43.45126" lon="1.42798">
        <ele>163</ele>
        <time>2018-10-06T09:38:11Z</time>
      </trkpt>
      <trkpt lat="43.45122" lon="1.42794">
        <ele>165</ele>
        <time>2018-10-06T09:38:11Z</time>
      </trkpt>
      <trkpt lat="43.45119" lon="1.42789">
        <ele>163</ele>
        <time>2018-10-06T09:38:27Z</time>
      </trkpt>
      <trkpt lat="43.45112" lon="1.42785">
        <ele>163</ele>
        <time>2018-10-06T09:38:27Z</time>
      </trkpt>
      <trkpt lat="43.45107" lon="1.42781">
        <ele>163</ele>
        <time>2018-10-06T09:38:27Z</time>
      </trkpt>
      <trkpt lat="43.45105" lon="1.42779">
        <ele>163</ele>
        <time>2018-10-06T09:38:27Z</time>
      </trkpt>
      <trkpt lat="43.451" lon="1.42776">
        <ele>163</ele>
        <time>2018-10-06T09:38:43Z</time>
      </trkpt>
      <trkpt lat="43.45094" lon="1.42771">
        <ele>163</ele>
        <time>2018-10-06T09:38:43Z</time>
      </trkpt>
      <trkpt lat="43.45089" lon="1.42763">
        <ele>163</ele>
        <time>2018-10-06T09:38:43Z</time>
      </trkpt>
      <trkpt lat="43.45083" lon="1.42756">
        <ele>163</ele>
        <time>2018-10-06T09:38:43Z</time>
      </trkpt>
      <trkpt lat="43.45081" lon="1.42752">
        <ele>163</ele>
        <time>2018-10-06T09:38:59Z</time>
      </trkpt>
      <trkpt lat="43.45077" lon="1.42749">
        <ele>163</ele>
        <time>2018-10-06T09:38:59Z</time>
      </trkpt>
      <trkpt lat="43.45074" lon="1.42745">
        <ele>163</ele>
        <time>2018-10-06T09:38:59Z</time>
      </trkpt>
      <trkpt lat="43.4507" lon="1.4274">
        <ele>163</ele>
        <time>2018-10-06T09:38:59Z</time>
      </trkpt>
      <trkpt lat="43.45065" lon="1.42736">
        <ele>163</ele>
        <time>2018-10-06T09:39:15Z</time>
      </trkpt>
      <trkpt lat="43.4506" lon="1.42733">
        <ele>163</ele>
        <time>2018-10-06T09:39:15Z</time>
      </trkpt>
      <trkpt lat="43.45055" lon="1.4273">
        <ele>163</ele>
        <time>2018-10-06T09:39:15Z</time>
      </trkpt>
      <trkpt lat="43.45051" lon="1.42725">
        <ele>163</ele>
        <time>2018-10-06T09:39:15Z</time>
      </trkpt>
      <trkpt lat="43.45048" lon="1.42721">
        <ele>163</ele>
        <time>2018-10-06T09:39:31Z</time>
      </trkpt>
      <trkpt lat="43.45044" lon="1.42717">
        <ele>163</ele>
        <time>2018-10-06T09:39:31Z</time>
      </trkpt>
      <trkpt lat="43.45039" lon="1.42711">
        <ele>160</ele>
        <time>2018-10-06T09:39:31Z</time>
      </trkpt>
      <trkpt lat="43.45033" lon="1.42707">
        <ele>160</ele>
        <time>2018-10-06T09:39:31Z</time>
      </trkpt>
      <trkpt lat="43.45028" lon="1.42702">
        <ele>160</ele>
        <time>2018-10-06T09:39:47Z</time>
      </trkpt>
      <trkpt lat="43.45024" lon="1.42697">
        <ele>160</ele>
        <time>2018-10-06T09:39:47Z</time>
      </trkpt>
      <trkpt lat="43.45019" lon="1.42694">
        <ele>160</ele>
        <time>2018-10-06T09:39:47Z</time>
      </trkpt>
      <trkpt lat="43.45014" lon="1.4269">
        <ele>160</ele>
        <time>2018-10-06T09:39:47Z</time>
      </trkpt>
      <trkpt lat="43.45008" lon="1.42687">
        <ele>160</ele>
        <time>2018-10-06T09:40:03Z</time>
      </trkpt>
      <trkpt lat="43.45004" lon="1.42684">
        <ele>160</ele>
        <time>2018-10-06T09:40:03Z</time>
      </trkpt>
      <trkpt lat="43.45" lon="1.42681">
        <ele>160</ele>
        <time>2018-10-06T09:40:03Z</time>
      </trkpt>
      <trkpt lat="43.44995" lon="1.42678">
        <ele>160</ele>
        <time>2018-10-06T09:40:03Z</time>
      </trkpt>
      <trkpt lat="43.4499" lon="1.42675">
        <ele>160</ele>
        <time>2018-10-06T09:40:19Z</time>
      </trkpt>
      <trkpt lat="43.44986" lon="1.42674">
        <ele>160</ele>
        <time>2018-10-06T09:40:19Z</time>
      </trkpt>
      <trkpt lat="43.44981" lon="1.42673">
        <ele>160</ele>
        <time>2018-10-06T09:40:19Z</time>
      </trkpt>
      <trkpt lat="43.44976" lon="1.42671">
        <ele>160</ele>
        <time>2018-10-06T09:40:19Z</time>
      </trkpt>
      <trkpt lat="43.44971" lon="1.42671">
        <ele>160</ele>
        <time>2018-10-06T09:40:35Z</time>
      </trkpt>
      <trkpt lat="43.44966" lon="1.42668">
        <ele>160</ele>
        <time>2018-10-06T09:40:35Z</time>
      </trkpt>
      <trkpt lat="43.4496" lon="1.42665">
        <ele>160</ele>
        <time>2018-10-06T09:40:35Z</time>
      </trkpt>
      <trkpt lat="43.44955" lon="1.42662">
        <ele>162</ele>
        <time>2018-10-06T09:40:35Z</time>
      </trkpt>
      <trkpt lat="43.4495" lon="1.4266">
        <ele>162</ele>
        <time>2018-10-06T09:40:51Z</time>
      </trkpt>
      <trkpt lat="43.44945" lon="1.4266">
        <ele>162</ele>
        <time>2018-10-06T09:40:51Z</time>
      </trkpt>
      <trkpt lat="43.44941" lon="1.42659">
        <ele>162</ele>
        <time>2018-10-06T09:40:51Z</time>
      </trkpt>
      <trkpt lat="43.44936" lon="1.42656">
        <ele>162</ele>
        <time>2018-10-06T09:40:51Z</time>
      </trkpt>
      <trkpt lat="43.44931" lon="1.42654">
        <ele>162</ele>
        <time>2018-10-06T09:41:07Z</time>
      </trkpt>
      <trkpt lat="43.44926" lon="1.42652">
        <ele>162</ele>
        <time>2018-10-06T09:41:07Z</time>
      </trkpt>
      <trkpt lat="43.44921" lon="1.42653">
        <ele>162</ele>
        <time>2018-10-06T09:41:07Z</time>
      </trkpt>
      <trkpt lat="43.44915" lon="1.42652">
        <ele>162</ele>
        <time>2018-10-06T09:41:07Z</time>
      </trkpt>
      <trkpt lat="43.44909" lon="1.4265">
        <ele>162</ele>
        <time>2018-10-06T09:41:23Z</time>
      </trkpt>
      <trkpt lat="43.44904" lon="1.42648">
        <ele>162</ele>
        <time>2018-10-06T09:41:23Z</time>
      </trkpt>
      <trkpt lat="43.44898" lon="1.42646">
        <ele>162</ele>
        <time>2018-10-06T09:41:23Z</time>
      </trkpt>
      <trkpt lat="43.44893" lon="1.42646">
        <ele>162</ele>
        <time>2018-10-06T09:41:23Z</time>
      </trkpt>
      <trkpt lat="43.44887" lon="1.42645">
        <ele>162</ele>
        <time>2018-10-06T09:41:39Z</time>
      </trkpt>
      <trkpt lat="43.44882" lon="1.42644">
        <ele>162</ele>
        <time>2018-10-06T09:41:39Z</time>
      </trkpt>
      <trkpt lat="43.44877" lon="1.42645">
        <ele>162</ele>
        <time>2018-10-06T09:41:39Z</time>
      </trkpt>
      <trkpt lat="43.44872" lon="1.42648">
        <ele>162</ele>
        <time>2018-10-06T09:41:39Z</time>
      </trkpt>
      <trkpt lat="43.44868" lon="1.42648">
        <ele>162</ele>
        <time>2018-10-06T09:41:55Z</time>
      </trkpt>
      <trkpt lat="43.44863" lon="1.42647">
        <ele>162</ele>
        <time>2018-10-06T09:41:55Z</time>
      </trkpt>
      <trkpt lat="43.44859" lon="1.42648">
        <ele>162</ele>
        <time>2018-10-06T09:41:55Z</time>
      </trkpt>
      <trkpt lat="43.44853" lon="1.42648">
        <ele>162</ele>
        <time>2018-10-06T09:41:55Z</time>
      </trkpt>
      <trkpt lat="43.44848" lon="1.42649">
        <ele>162</ele>
        <time>2018-10-06T09:42:11Z</time>
      </trkpt>
      <trkpt lat="43.44843" lon="1.42649">
        <ele>162</ele>
        <time>2018-10-06T09:42:11Z</time>
      </trkpt>
      <trkpt lat="43.44837" lon="1.42649">
        <ele>162</ele>
        <time>2018-10-06T09:42:11Z</time>
      </trkpt>
      <trkpt lat="43.44832" lon="1.42649">
        <ele>162</ele>
        <time>2018-10-06T09:42:11Z</time>
      </trkpt>
      <trkpt lat="43.44827" lon="1.4265">
        <ele>162</ele>
        <time>2018-10-06T09:42:27Z</time>
      </trkpt>
      <trkpt lat="43.44821" lon="1.42649">
        <ele>162</ele>
        <time>2018-10-06T09:42:27Z</time>
      </trkpt>
      <trkpt lat="43.44816" lon="1.4265">
        <ele>162</ele>
        <time>2018-10-06T09:42:27Z</time>
      </trkpt>
      <trkpt lat="43.44811" lon="1.42652">
        <ele>162</ele>
        <time>2018-10-06T09:42:27Z</time>
      </trkpt>
      <trkpt lat="43.44806" lon="1.42653">
        <ele>162</ele>
        <time>2018-10-06T09:42:43Z</time>
      </trkpt>
      <trkpt lat="43.44802" lon="1.42656">
        <ele>162</ele>
        <time>2018-10-06T09:42:43Z</time>
      </trkpt>
      <trkpt lat="43.44798" lon="1.42657">
        <ele>162</ele>
        <time>2018-10-06T09:42:43Z</time>
      </trkpt>
      <trkpt lat="43.44794" lon="1.42658">
        <ele>162</ele>
        <time>2018-10-06T09:42:43Z</time>
      </trkpt>
      <trkpt lat="43.44791" lon="1.4266">
        <ele>166</ele>
        <time>2018-10-06T09:42:59Z</time>
      </trkpt>
      <trkpt lat="43.44785" lon="1.42662">
        <ele>166</ele>
        <time>2018-10-06T09:42:59Z</time>
      </trkpt>
      <trkpt lat="43.44781" lon="1.42664">
        <ele>166</ele>
        <time>2018-10-06T09:42:59Z</time>
      </trkpt>
      <trkpt lat="43.44777" lon="1.42666">
        <ele>166</ele>
        <time>2018-10-06T09:42:59Z</time>
      </trkpt>
      <trkpt lat="43.44773" lon="1.4267">
        <ele>166</ele>
        <time>2018-10-06T09:43:15Z</time>
      </trkpt>
      <trkpt lat="43.4477" lon="1.42674">
        <ele>166</ele>
        <time>2018-10-06T09:43:15Z</time>
      </trkpt>
      <trkpt lat="43.44768" lon="1.42678">
        <ele>166</ele>
        <time>2018-10-06T09:43:15Z</time>
      </trkpt>
      <trkpt lat="43.44764" lon="1.42681">
        <ele>166</ele>
        <time>2018-10-06T09:43:15Z</time>
      </trkpt>
      <trkpt lat="43.4476" lon="1.42686">
        <ele>166</ele>
        <time>2018-10-06T09:43:31Z</time>
      </trkpt>
      <trkpt lat="43.44756" lon="1.42691">
        <ele>166</ele>
        <time>2018-10-06T09:43:31Z</time>
      </trkpt>
      <trkpt lat="43.44753" lon="1.42697">
        <ele>166</ele>
        <time>2018-10-06T09:43:31Z</time>
      </trkpt>
      <trkpt lat="43.4475" lon="1.42702">
        <ele>166</ele>
        <time>2018-10-06T09:43:31Z</time>
      </trkpt>
      <trkpt lat="43.44747" lon="1.42707">
        <ele>166</ele>
        <time>2018-10-06T09:43:47Z</time>
      </trkpt>
      <trkpt lat="43.44744" lon="1.42712">
        <ele>164</ele>
        <time>2018-10-06T09:43:47Z</time>
      </trkpt>
      <trkpt lat="43.44739" lon="1.42715">
        <ele>164</ele>
        <time>2018-10-06T09:43:47Z</time>
      </trkpt>
      <trkpt lat="43.44736" lon="1.4272">
        <ele>164</ele>
        <time>2018-10-06T09:43:47Z</time>
      </trkpt>
      <trkpt lat="43.44731" lon="1.42725">
        <ele>164</ele>
        <time>2018-10-06T09:44:03Z</time>
      </trkpt>
      <trkpt lat="43.44728" lon="1.42731">
        <ele>164</ele>
        <time>2018-10-06T09:44:03Z</time>
      </trkpt>
      <trkpt lat="43.44724" lon="1.42736">
        <ele>164</ele>
        <time>2018-10-06T09:44:03Z</time>
      </trkpt>
      <trkpt lat="43.4472" lon="1.4274">
        <ele>164</ele>
        <time>2018-10-06T09:44:03Z</time>
      </trkpt>
      <trkpt lat="43.44717" lon="1.42745">
        <ele>164</ele>
        <time>2018-10-06T09:44:19Z</time>
      </trkpt>
      <trkpt lat="43.44713" lon="1.4275">
        <ele>164</ele>
        <time>2018-10-06T09:44:19Z</time>
      </trkpt>
      <trkpt lat="43.44708" lon="1.42755">
        <ele>162</ele>
        <time>2018-10-06T09:44:19Z</time>
      </trkpt>
      <trkpt lat="43.44703" lon="1.4276">
        <ele>162</ele>
        <time>2018-10-06T09:44:19Z</time>
      </trkpt>
      <trkpt lat="43.44699" lon="1.42764">
        <ele>162</ele>
        <time>2018-10-06T09:44:35Z</time>
      </trkpt>
      <trkpt lat="43.44694" lon="1.42768">
        <ele>162</ele>
        <time>2018-10-06T09:44:35Z</time>
      </trkpt>
      <trkpt lat="43.44691" lon="1.42772">
        <ele>162</ele>
        <time>2018-10-06T09:44:35Z</time>
      </trkpt>
      <trkpt lat="43.44688" lon="1.42777">
        <ele>162</ele>
        <time>2018-10-06T09:44:35Z</time>
      </trkpt>
      <trkpt lat="43.44684" lon="1.42781">
        <ele>162</ele>
        <time>2018-10-06T09:44:51Z</time>
      </trkpt>
      <trkpt lat="43.44682" lon="1.42787">
        <ele>162</ele>
        <time>2018-10-06T09:44:51Z</time>
      </trkpt>
      <trkpt lat="43.44683" lon="1.42793">
        <ele>164</ele>
        <time>2018-10-06T09:44:51Z</time>
      </trkpt>
      <trkpt lat="43.44685" lon="1.428">
        <ele>164</ele>
        <time>2018-10-06T09:44:51Z</time>
      </trkpt>
      <trkpt lat="43.44685" lon="1.42801">
        <ele>164</ele>
        <time>2018-10-06T09:45:07Z</time>
      </trkpt>
      <trkpt lat="43.44683" lon="1.42804">
        <ele>164</ele>
        <time>2018-10-06T09:45:07Z</time>
      </trkpt>
      <trkpt lat="43.44682" lon="1.42809">
        <ele>164</ele>
        <time>2018-10-06T09:45:07Z</time>
      </trkpt>
      <trkpt lat="43.44681" lon="1.42815">
        <ele>164</ele>
        <time>2018-10-06T09:45:07Z</time>
      </trkpt>
      <trkpt lat="43.44678" lon="1.42816">
        <ele>164</ele>
        <time>2018-10-06T09:45:23Z</time>
      </trkpt>
      <trkpt lat="43.44674" lon="1.42817">
        <ele>164</ele>
        <time>2018-10-06T09:45:23Z</time>
      </trkpt>
      <trkpt lat="43.44671" lon="1.42815">
        <ele>164</ele>
        <time>2018-10-06T09:45:23Z</time>
      </trkpt>
      <trkpt lat="43.44669" lon="1.42813">
        <ele>164</ele>
        <time>2018-10-06T09:45:23Z</time>
      </trkpt>
      <trkpt lat="43.44668" lon="1.42815">
        <ele>164</ele>
        <time>2018-10-06T09:45:39Z</time>
      </trkpt>
      <trkpt lat="43.44668" lon="1.42818">
        <ele>164</ele>
        <time>2018-10-06T09:45:39Z</time>
      </trkpt>
      <trkpt lat="43.44665" lon="1.42823">
        <ele>164</ele>
        <time>2018-10-06T09:45:39Z</time>
      </trkpt>
      <trkpt lat="43.4466" lon="1.42825">
        <ele>164</ele>
        <time>2018-10-06T09:45:39Z</time>
      </trkpt>
      <trkpt lat="43.44656" lon="1.42826">
        <ele>164</ele>
        <time>2018-10-06T09:45:55Z</time>
      </trkpt>
      <trkpt lat="43.44654" lon="1.42829">
        <ele>164</ele>
        <time>2018-10-06T09:45:55Z</time>
      </trkpt>
      <trkpt lat="43.4465" lon="1.42831">
        <ele>164</ele>
        <time>2018-10-06T09:45:55Z</time>
      </trkpt>
      <trkpt lat="43.44648" lon="1.42833">
        <ele>164</ele>
        <time>2018-10-06T09:45:55Z</time>
      </trkpt>
      <trkpt lat="43.44644" lon="1.42835">
        <ele>164</ele>
        <time>2018-10-06T09:46:11Z</time>
      </trkpt>
      <trkpt lat="43.44644" lon="1.42839">
        <ele>164</ele>
        <time>2018-10-06T09:46:11Z</time>
      </trkpt>
      <trkpt lat="43.44643" lon="1.42843">
        <ele>164</ele>
        <time>2018-10-06T09:46:11Z</time>
      </trkpt>
      <trkpt lat="43.44639" lon="1.42846">
        <ele>164</ele>
        <time>2018-10-06T09:46:11Z</time>
      </trkpt>
      <trkpt lat="43.44636" lon="1.42851">
        <ele>164</ele>
        <time>2018-10-06T09:46:27Z</time>
      </trkpt>
      <trkpt lat="43.44633" lon="1.42856">
        <ele>164</ele>
        <time>2018-10-06T09:46:27Z</time>
      </trkpt>
      <trkpt lat="43.4463" lon="1.42862">
        <ele>164</ele>
        <time>2018-10-06T09:46:27Z</time>
      </trkpt>
      <trkpt lat="43.44627" lon="1.42865">
        <ele>164</ele>
        <time>2018-10-06T09:46:27Z</time>
      </trkpt>
      <trkpt lat="43.44625" lon="1.42869">
        <ele>167</ele>
        <time>2018-10-06T09:46:43Z</time>
      </trkpt>
      <trkpt lat="43.44621" lon="1.42874">
        <ele>167</ele>
        <time>2018-10-06T09:46:43Z</time>
      </trkpt>
      <trkpt lat="43.44615" lon="1.42876">
        <ele>172</ele>
        <time>2018-10-06T09:46:43Z</time>
      </trkpt>
      <trkpt lat="43.4461" lon="1.4288">
        <ele>172</ele>
        <time>2018-10-06T09:46:43Z</time>
      </trkpt>
      <trkpt lat="43.44607" lon="1.42886">
        <ele>172</ele>
        <time>2018-10-06T09:46:59Z</time>
      </trkpt>
      <trkpt lat="43.44603" lon="1.42891">
        <ele>172</ele>
        <time>2018-10-06T09:46:59Z</time>
      </trkpt>
      <trkpt lat="43.44598" lon="1.42894">
        <ele>172</ele>
        <time>2018-10-06T09:46:59Z</time>
      </trkpt>
      <trkpt lat="43.44596" lon="1.429">
        <ele>172</ele>
        <time>2018-10-06T09:46:59Z</time>
      </trkpt>
      <trkpt lat="43.44595" lon="1.42905">
        <ele>172</ele>
        <time>2018-10-06T09:47:15Z</time>
      </trkpt>
      <trkpt lat="43.44593" lon="1.42909">
        <ele>172</ele>
        <time>2018-10-06T09:47:15Z</time>
      </trkpt>
      <trkpt lat="43.44591" lon="1.42913">
        <ele>172</ele>
        <time>2018-10-06T09:47:15Z</time>
      </trkpt>
      <trkpt lat="43.44588" lon="1.42917">
        <ele>172</ele>
        <time>2018-10-06T09:47:15Z</time>
      </trkpt>
      <trkpt lat="43.44584" lon="1.4292">
        <ele>172</ele>
        <time>2018-10-06T09:47:31Z</time>
      </trkpt>
      <trkpt lat="43.44579" lon="1.42925">
        <ele>172</ele>
        <time>2018-10-06T09:47:31Z</time>
      </trkpt>
      <trkpt lat="43.44575" lon="1.4293">
        <ele>172</ele>
        <time>2018-10-06T09:47:31Z</time>
      </trkpt>
      <trkpt lat="43.44572" lon="1.42934">
        <ele>172</ele>
        <time>2018-10-06T09:47:31Z</time>
      </trkpt>
      <trkpt lat="43.44568" lon="1.42937">
        <ele>172</ele>
        <time>2018-10-06T09:47:47Z</time>
      </trkpt>
      <trkpt lat="43.44564" lon="1.4294">
        <ele>172</ele>
        <time>2018-10-06T09:47:47Z</time>
      </trkpt>
      <trkpt lat="43.44561" lon="1.42943">
        <ele>172</ele>
        <time>2018-10-06T09:47:47Z</time>
      </trkpt>
      <trkpt lat="43.44558" lon="1.42947">
        <ele>172</ele>
        <time>2018-10-06T09:47:47Z</time>
      </trkpt>
      <trkpt lat="43.44554" lon="1.42949">
        <ele>172</ele>
        <time>2018-10-06T09:48:03Z</time>
      </trkpt>
      <trkpt lat="43.44548" lon="1.42953">
        <ele>172</ele>
        <time>2018-10-06T09:48:03Z</time>
      </trkpt>
      <trkpt lat="43.44546" lon="1.42963">
        <ele>168</ele>
        <time>2018-10-06T09:48:03Z</time>
      </trkpt>
      <trkpt lat="43.44542" lon="1.42966">
        <ele>168</ele>
        <time>2018-10-06T09:48:03Z</time>
      </trkpt>
      <trkpt lat="43.44537" lon="1.42968">
        <ele>165</ele>
        <time>2018-10-06T09:48:19Z</time>
      </trkpt>
      <trkpt lat="43.44534" lon="1.42972">
        <ele>165</ele>
        <time>2018-10-06T09:48:19Z</time>
      </trkpt>
      <trkpt lat="43.44531" lon="1.42978">
        <ele>165</ele>
        <time>2018-10-06T09:48:19Z</time>
      </trkpt>
      <trkpt lat="43.44529" lon="1.42985">
        <ele>165</ele>
        <time>2018-10-06T09:48:19Z</time>
      </trkpt>
      <trkpt lat="43.44526" lon="1.42987">
        <ele>165</ele>
        <time>2018-10-06T09:48:35Z</time>
      </trkpt>
      <trkpt lat="43.44522" lon="1.42989">
        <ele>165</ele>
        <time>2018-10-06T09:48:35Z</time>
      </trkpt>
      <trkpt lat="43.44518" lon="1.42993">
        <ele>165</ele>
        <time>2018-10-06T09:48:35Z</time>
      </trkpt>
      <trkpt lat="43.44516" lon="1.42997">
        <ele>165</ele>
        <time>2018-10-06T09:48:35Z</time>
      </trkpt>
      <trkpt lat="43.44515" lon="1.43004">
        <ele>165</ele>
        <time>2018-10-06T09:48:51Z</time>
      </trkpt>
      <trkpt lat="43.44514" lon="1.43007">
        <ele>165</ele>
        <time>2018-10-06T09:48:51Z</time>
      </trkpt>
      <trkpt lat="43.4451" lon="1.4301">
        <ele>165</ele>
        <time>2018-10-06T09:48:51Z</time>
      </trkpt>
      <trkpt lat="43.44507" lon="1.43014">
        <ele>165</ele>
        <time>2018-10-06T09:48:51Z</time>
      </trkpt>
      <trkpt lat="43.44503" lon="1.43017">
        <ele>165</ele>
        <time>2018-10-06T09:49:07Z</time>
      </trkpt>
      <trkpt lat="43.44498" lon="1.43019">
        <ele>165</ele>
        <time>2018-10-06T09:49:07Z</time>
      </trkpt>
      <trkpt lat="43.44493" lon="1.43023">
        <ele>165</ele>
        <time>2018-10-06T09:49:07Z</time>
      </trkpt>
      <trkpt lat="43.44488" lon="1.43028">
        <ele>165</ele>
        <time>2018-10-06T09:49:07Z</time>
      </trkpt>
      <trkpt lat="43.44484" lon="1.43034">
        <ele>165</ele>
        <time>2018-10-06T09:49:23Z</time>
      </trkpt>
      <trkpt lat="43.4448" lon="1.43039">
        <ele>165</ele>
        <time>2018-10-06T09:49:23Z</time>
      </trkpt>
      <trkpt lat="43.44479" lon="1.43046">
        <ele>167</ele>
        <time>2018-10-06T09:49:23Z</time>
      </trkpt>
      <trkpt lat="43.44478" lon="1.43055">
        <ele>167</ele>
        <time>2018-10-06T09:49:23Z</time>
      </trkpt>
      <trkpt lat="43.44475" lon="1.43062">
        <ele>167</ele>
        <time>2018-10-06T09:49:39Z</time>
      </trkpt>
      <trkpt lat="43.4447" lon="1.43066">
        <ele>167</ele>
        <time>2018-10-06T09:49:39Z</time>
      </trkpt>
      <trkpt lat="43.44465" lon="1.43069">
        <ele>167</ele>
        <time>2018-10-06T09:49:39Z</time>
      </trkpt>
      <trkpt lat="43.44461" lon="1.4307">
        <ele>167</ele>
        <time>2018-10-06T09:49:39Z</time>
      </trkpt>
      <trkpt lat="43.44458" lon="1.43075">
        <ele>165</ele>
        <time>2018-10-06T09:49:55Z</time>
      </trkpt>
      <trkpt lat="43.44454" lon="1.43081">
        <ele>165</ele>
        <time>2018-10-06T09:49:55Z</time>
      </trkpt>
      <trkpt lat="43.44449" lon="1.43085">
        <ele>165</ele>
        <time>2018-10-06T09:49:55Z</time>
      </trkpt>
      <trkpt lat="43.44446" lon="1.4309">
        <ele>165</ele>
        <time>2018-10-06T09:49:55Z</time>
      </trkpt>
      <trkpt lat="43.44443" lon="1.43095">
        <ele>165</ele>
        <time>2018-10-06T09:50:11Z</time>
      </trkpt>
      <trkpt lat="43.44443" lon="1.43103">
        <ele>165</ele>
        <time>2018-10-06T09:50:11Z</time>
      </trkpt>
      <trkpt lat="43.44444" lon="1.43111">
        <ele>165</ele>
        <time>2018-10-06T09:50:11Z</time>
      </trkpt>
      <trkpt lat="43.44444" lon="1.43114">
        <ele>165</ele>
        <time>2018-10-06T09:50:11Z</time>
      </trkpt>
      <trkpt lat="43.44442" lon="1.43118">
        <ele>165</ele>
        <time>2018-10-06T09:50:27Z</time>
      </trkpt>
      <trkpt lat="43.44438" lon="1.43121">
        <ele>165</ele>
        <time>2018-10-06T09:50:27Z</time>
      </trkpt>
      <trkpt lat="43.44435" lon="1.43123">
        <ele>165</ele>
        <time>2018-10-06T09:50:27Z</time>
      </trkpt>
      <trkpt lat="43.44433" lon="1.43126">
        <ele>166</ele>
        <time>2018-10-06T09:50:27Z</time>
      </trkpt>
      <trkpt lat="43.44431" lon="1.43129">
        <ele>166</ele>
        <time>2018-10-06T09:50:47Z</time>
      </trkpt>
      <trkpt lat="43.44428" lon="1.4313">
        <ele>166</ele>
        <time>2018-10-06T09:50:47Z</time>
      </trkpt>
      <trkpt lat="43.44427" lon="1.43132">
        <ele>166</ele>
        <time>2018-10-06T09:50:47Z</time>
      </trkpt>
      <trkpt lat="43.44425" lon="1.43133">
        <ele>166</ele>
        <time>2018-10-06T09:50:47Z</time>
      </trkpt>
      <trkpt lat="43.44418" lon="1.43136">
        <ele>166</ele>
        <time>2018-10-06T09:50:47Z</time>
      </trkpt>
      <trkpt lat="43.44415" lon="1.43143">
        <ele>166</ele>
        <time>2018-10-06T09:51:03Z</time>
      </trkpt>
      <trkpt lat="43.4441" lon="1.43145">
        <ele>166</ele>
        <time>2018-10-06T09:51:03Z</time>
      </trkpt>
      <trkpt lat="43.44404" lon="1.43146">
        <ele>166</ele>
        <time>2018-10-06T09:51:03Z</time>
      </trkpt>
      <trkpt lat="43.44401" lon="1.4315">
        <ele>166</ele>
        <time>2018-10-06T09:51:03Z</time>
      </trkpt>
      <trkpt lat="43.44399" lon="1.43154">
        <ele>166</ele>
        <time>2018-10-06T09:51:19Z</time>
      </trkpt>
      <trkpt lat="43.44398" lon="1.43156">
        <ele>166</ele>
        <time>2018-10-06T09:51:19Z</time>
      </trkpt>
      <trkpt lat="43.44395" lon="1.43159">
        <ele>166</ele>
        <time>2018-10-06T09:51:19Z</time>
      </trkpt>
      <trkpt lat="43.44391" lon="1.43163">
        <ele>166</ele>
        <time>2018-10-06T09:51:19Z</time>
      </trkpt>
      <trkpt lat="43.44387" lon="1.43167">
        <ele>166</ele>
        <time>2018-10-06T09:51:35Z</time>
      </trkpt>
      <trkpt lat="43.44383" lon="1.43172">
        <ele>166</ele>
        <time>2018-10-06T09:51:35Z</time>
      </trkpt>
      <trkpt lat="43.44378" lon="1.43178">
        <ele>166</ele>
        <time>2018-10-06T09:51:35Z</time>
      </trkpt>
      <trkpt lat="43.44375" lon="1.43186">
        <ele>166</ele>
        <time>2018-10-06T09:51:35Z</time>
      </trkpt>
      <trkpt lat="43.44372" lon="1.4319">
        <ele>162</ele>
        <time>2018-10-06T09:51:51Z</time>
      </trkpt>
      <trkpt lat="43.44369" lon="1.43196">
        <ele>162</ele>
        <time>2018-10-06T09:51:51Z</time>
      </trkpt>
      <trkpt lat="43.44363" lon="1.432">
        <ele>162</ele>
        <time>2018-10-06T09:51:51Z</time>
      </trkpt>
      <trkpt lat="43.4436" lon="1.43206">
        <ele>162</ele>
        <time>2018-10-06T09:51:51Z</time>
      </trkpt>
      <trkpt lat="43.44357" lon="1.43209">
        <ele>164</ele>
        <time>2018-10-06T09:52:07Z</time>
      </trkpt>
      <trkpt lat="43.44354" lon="1.43212">
        <ele>164</ele>
        <time>2018-10-06T09:52:07Z</time>
      </trkpt>
      <trkpt lat="43.44349" lon="1.43214">
        <ele>164</ele>
        <time>2018-10-06T09:52:07Z</time>
      </trkpt>
      <trkpt lat="43.44343" lon="1.43218">
        <ele>164</ele>
        <time>2018-10-06T09:52:07Z</time>
      </trkpt>
      <trkpt lat="43.44338" lon="1.43222">
        <ele>164</ele>
        <time>2018-10-06T09:52:23Z</time>
      </trkpt>
      <trkpt lat="43.44333" lon="1.43226">
        <ele>164</ele>
        <time>2018-10-06T09:52:23Z</time>
      </trkpt>
      <trkpt lat="43.44328" lon="1.43231">
        <ele>164</ele>
        <time>2018-10-06T09:52:23Z</time>
      </trkpt>
      <trkpt lat="43.44326" lon="1.43234">
        <ele>164</ele>
        <time>2018-10-06T09:52:23Z</time>
      </trkpt>
      <trkpt lat="43.44322" lon="1.43238">
        <ele>164</ele>
        <time>2018-10-06T09:52:39Z</time>
      </trkpt>
      <trkpt lat="43.4432" lon="1.43242">
        <ele>164</ele>
        <time>2018-10-06T09:52:39Z</time>
      </trkpt>
      <trkpt lat="43.44316" lon="1.43246">
        <ele>164</ele>
        <time>2018-10-06T09:52:39Z</time>
      </trkpt>
      <trkpt lat="43.44312" lon="1.43247">
        <ele>164</ele>
        <time>2018-10-06T09:52:39Z</time>
      </trkpt>
      <trkpt lat="43.44309" lon="1.43251">
        <ele>164</ele>
        <time>2018-10-06T09:52:55Z</time>
      </trkpt>
      <trkpt lat="43.44306" lon="1.43255">
        <ele>164</ele>
        <time>2018-10-06T09:52:55Z</time>
      </trkpt>
      <trkpt lat="43.44301" lon="1.43258">
        <ele>164</ele>
        <time>2018-10-06T09:52:55Z</time>
      </trkpt>
      <trkpt lat="43.44297" lon="1.43259">
        <ele>164</ele>
        <time>2018-10-06T09:52:55Z</time>
      </trkpt>
      <trkpt lat="43.44293" lon="1.4326">
        <ele>164</ele>
        <time>2018-10-06T09:53:47Z</time>
      </trkpt>
      <trkpt lat="43.44292" lon="1.43261">
        <ele>164</ele>
        <time>2018-10-06T09:53:47Z</time>
      </trkpt>
      <trkpt lat="43.44291" lon="1.43268">
        <ele>162</ele>
        <time>2018-10-06T09:53:47Z</time>
      </trkpt>
      <trkpt lat="43.44288" lon="1.43273">
        <ele>162</ele>
        <time>2018-10-06T09:53:47Z</time>
      </trkpt>
      <trkpt lat="43.44285" lon="1.43272">
        <ele>162</ele>
        <time>2018-10-06T09:53:47Z</time>
      </trkpt>
      <trkpt lat="43.44279" lon="1.43275">
        <ele>162</ele>
        <time>2018-10-06T09:54:51Z</time>
      </trkpt>
      <trkpt lat="43.44278" lon="1.43276">
        <ele>162</ele>
        <time>2018-10-06T09:54:51Z</time>
      </trkpt>
      <trkpt lat="43.44274" lon="1.43279">
        <ele>162</ele>
        <time>2018-10-06T09:54:51Z</time>
      </trkpt>
      <trkpt lat="43.44269" lon="1.43278">
        <ele>162</ele>
        <time>2018-10-06T09:54:51Z</time>
      </trkpt>
      <trkpt lat="43.44267" lon="1.4328">
        <ele>162</ele>
        <time>2018-10-06T09:54:51Z</time>
      </trkpt>
      <trkpt lat="43.44264" lon="1.43282">
        <ele>162</ele>
        <time>2018-10-06T09:55:07Z</time>
      </trkpt>
      <trkpt lat="43.4426" lon="1.43283">
        <ele>162</ele>
        <time>2018-10-06T09:55:07Z</time>
      </trkpt>
      <trkpt lat="43.44258" lon="1.43288">
        <ele>162</ele>
        <time>2018-10-06T09:55:07Z</time>
      </trkpt>
      <trkpt lat="43.44252" lon="1.43293">
        <ele>163</ele>
        <time>2018-10-06T09:55:07Z</time>
      </trkpt>
      <trkpt lat="43.44247" lon="1.43299">
        <ele>163</ele>
        <time>2018-10-06T09:55:23Z</time>
      </trkpt>
      <trkpt lat="43.44243" lon="1.43304">
        <ele>163</ele>
        <time>2018-10-06T09:55:23Z</time>
      </trkpt>
      <trkpt lat="43.4424" lon="1.43309">
        <ele>163</ele>
        <time>2018-10-06T09:55:23Z</time>
      </trkpt>
      <trkpt lat="43.44237" lon="1.43314">
        <ele>163</ele>
        <time>2018-10-06T09:55:23Z</time>
      </trkpt>
      <trkpt lat="43.44234" lon="1.43318">
        <ele>163</ele>
        <time>2018-10-06T09:55:39Z</time>
      </trkpt>
      <trkpt lat="43.44231" lon="1.43323">
        <ele>163</ele>
        <time>2018-10-06T09:55:39Z</time>
      </trkpt>
      <trkpt lat="43.44227" lon="1.43325">
        <ele>163</ele>
        <time>2018-10-06T09:55:39Z</time>
      </trkpt>
      <trkpt lat="43.44223" lon="1.43331">
        <ele>163</ele>
        <time>2018-10-06T09:55:39Z</time>
      </trkpt>
      <trkpt lat="43.44217" lon="1.43334">
        <ele>163</ele>
        <time>2018-10-06T09:55:55Z</time>
      </trkpt>
      <trkpt lat="43.44212" lon="1.43341">
        <ele>163</ele>
        <time>2018-10-06T09:55:55Z</time>
      </trkpt>
      <trkpt lat="43.44207" lon="1.43346">
        <ele>165</ele>
        <time>2018-10-06T09:55:55Z</time>
      </trkpt>
      <trkpt lat="43.44203" lon="1.4335">
        <ele>165</ele>
        <time>2018-10-06T09:55:55Z</time>
      </trkpt>
      <trkpt lat="43.442" lon="1.43355">
        <ele>165</ele>
        <time>2018-10-06T09:56:11Z</time>
      </trkpt>
      <trkpt lat="43.44193" lon="1.43359">
        <ele>165</ele>
        <time>2018-10-06T09:56:11Z</time>
      </trkpt>
      <trkpt lat="43.44191" lon="1.43365">
        <ele>165</ele>
        <time>2018-10-06T09:56:11Z</time>
      </trkpt>
      <trkpt lat="43.44187" lon="1.4337">
        <ele>165</ele>
        <time>2018-10-06T09:56:11Z</time>
      </trkpt>
      <trkpt lat="43.44183" lon="1.43376">
        <ele>165</ele>
        <time>2018-10-06T09:56:27Z</time>
      </trkpt>
      <trkpt lat="43.44179" lon="1.43382">
        <ele>165</ele>
        <time>2018-10-06T09:56:27Z</time>
      </trkpt>
      <trkpt lat="43.44175" lon="1.43386">
        <ele>165</ele>
        <time>2018-10-06T09:56:27Z</time>
      </trkpt>
      <trkpt lat="43.44172" lon="1.43386">
        <ele>165</ele>
        <time>2018-10-06T09:56:27Z</time>
      </trkpt>
      <trkpt lat="43.4417" lon="1.43389">
        <ele>165</ele>
        <time>2018-10-06T09:56:43Z</time>
      </trkpt>
      <trkpt lat="43.44167" lon="1.43393">
        <ele>165</ele>
        <time>2018-10-06T09:56:43Z</time>
      </trkpt>
      <trkpt lat="43.44164" lon="1.43395">
        <ele>165</ele>
        <time>2018-10-06T09:56:43Z</time>
      </trkpt>
      <trkpt lat="43.44162" lon="1.43399">
        <ele>165</ele>
        <time>2018-10-06T09:56:43Z</time>
      </trkpt>
      <trkpt lat="43.44159" lon="1.43402">
        <ele>165</ele>
        <time>2018-10-06T09:56:59Z</time>
      </trkpt>
      <trkpt lat="43.44154" lon="1.43409">
        <ele>165</ele>
        <time>2018-10-06T09:56:59Z</time>
      </trkpt>
      <trkpt lat="43.44151" lon="1.43413">
        <ele>165</ele>
        <time>2018-10-06T09:56:59Z</time>
      </trkpt>
      <trkpt lat="43.44149" lon="1.43421">
        <ele>165</ele>
        <time>2018-10-06T09:56:59Z</time>
      </trkpt>
      <trkpt lat="43.44148" lon="1.4343">
        <ele>165</ele>
        <time>2018-10-06T09:57:15Z</time>
      </trkpt>
      <trkpt lat="43.44148" lon="1.43436">
        <ele>165</ele>
        <time>2018-10-06T09:57:15Z</time>
      </trkpt>
      <trkpt lat="43.44149" lon="1.43442">
        <ele>165</ele>
        <time>2018-10-06T09:57:15Z</time>
      </trkpt>
      <trkpt lat="43.44149" lon="1.43449">
        <ele>165</ele>
        <time>2018-10-06T09:57:15Z</time>
      </trkpt>
      <trkpt lat="43.44149" lon="1.43457">
        <ele>165</ele>
        <time>2018-10-06T09:57:31Z</time>
      </trkpt>
      <trkpt lat="43.44149" lon="1.43463">
        <ele>165</ele>
        <time>2018-10-06T09:57:31Z</time>
      </trkpt>
      <trkpt lat="43.44148" lon="1.43469">
        <ele>165</ele>
        <time>2018-10-06T09:57:31Z</time>
      </trkpt>
      <trkpt lat="43.44148" lon="1.43476">
        <ele>165</ele>
        <time>2018-10-06T09:57:31Z</time>
      </trkpt>
      <trkpt lat="43.4415" lon="1.43484">
        <ele>165</ele>
        <time>2018-10-06T09:57:47Z</time>
      </trkpt>
      <trkpt lat="43.44152" lon="1.43493">
        <ele>165</ele>
        <time>2018-10-06T09:57:47Z</time>
      </trkpt>
      <trkpt lat="43.44153" lon="1.43504">
        <ele>165</ele>
        <time>2018-10-06T09:57:47Z</time>
      </trkpt>
      <trkpt lat="43.44153" lon="1.43513">
        <ele>165</ele>
        <time>2018-10-06T09:57:47Z</time>
      </trkpt>
      <trkpt lat="43.44154" lon="1.43516">
        <ele>165</ele>
        <time>2018-10-06T09:58:03Z</time>
      </trkpt>
      <trkpt lat="43.44154" lon="1.43521">
        <ele>165</ele>
        <time>2018-10-06T09:58:03Z</time>
      </trkpt>
      <trkpt lat="43.44154" lon="1.43526">
        <ele>165</ele>
        <time>2018-10-06T09:58:03Z</time>
      </trkpt>
      <trkpt lat="43.44155" lon="1.43532">
        <ele>165</ele>
        <time>2018-10-06T09:58:03Z</time>
      </trkpt>
      <trkpt lat="43.44157" lon="1.43539">
        <ele>165</ele>
        <time>2018-10-06T09:58:19Z</time>
      </trkpt>
      <trkpt lat="43.44159" lon="1.43545">
        <ele>171</ele>
        <time>2018-10-06T09:58:19Z</time>
      </trkpt>
      <trkpt lat="43.4416" lon="1.43549">
        <ele>171</ele>
        <time>2018-10-06T09:58:19Z</time>
      </trkpt>
      <trkpt lat="43.44162" lon="1.43556">
        <ele>171</ele>
        <time>2018-10-06T09:58:19Z</time>
      </trkpt>
      <trkpt lat="43.44163" lon="1.43562">
        <ele>171</ele>
        <time>2018-10-06T09:58:35Z</time>
      </trkpt>
      <trkpt lat="43.44163" lon="1.43568">
        <ele>171</ele>
        <time>2018-10-06T09:58:35Z</time>
      </trkpt>
      <trkpt lat="43.44163" lon="1.43574">
        <ele>171</ele>
        <time>2018-10-06T09:58:35Z</time>
      </trkpt>
      <trkpt lat="43.44164" lon="1.43577">
        <ele>171</ele>
        <time>2018-10-06T09:58:35Z</time>
      </trkpt>
      <trkpt lat="43.44164" lon="1.43581">
        <ele>171</ele>
        <time>2018-10-06T09:58:51Z</time>
      </trkpt>
      <trkpt lat="43.44165" lon="1.43587">
        <ele>171</ele>
        <time>2018-10-06T09:58:51Z</time>
      </trkpt>
      <trkpt lat="43.44168" lon="1.43594">
        <ele>171</ele>
        <time>2018-10-06T09:58:51Z</time>
      </trkpt>
      <trkpt lat="43.44169" lon="1.43595">
        <ele>171</ele>
        <time>2018-10-06T09:58:51Z</time>
      </trkpt>
      <trkpt lat="43.44165" lon="1.43607">
        <ele>171</ele>
        <time>2018-10-06T10:00:07Z</time>
      </trkpt>
      <trkpt lat="43.44165" lon="1.43607">
        <ele>171</ele>
        <time>2018-10-06T10:00:07Z</time>
      </trkpt>
      <trkpt lat="43.44165" lon="1.43607">
        <ele>171</ele>
        <time>2018-10-06T10:00:07Z</time>
      </trkpt>
      <trkpt lat="43.44164" lon="1.43607">
        <ele>171</ele>
        <time>2018-10-06T10:00:07Z</time>
      </trkpt>
      <trkpt lat="43.44163" lon="1.43608">
        <ele>171</ele>
        <time>2018-10-06T10:00:07Z</time>
      </trkpt>
      <trkpt lat="43.44162" lon="1.4361">
        <ele>171</ele>
        <time>2018-10-06T10:00:31Z</time>
      </trkpt>
      <trkpt lat="43.44165" lon="1.43614">
        <ele>171</ele>
        <time>2018-10-06T10:00:31Z</time>
      </trkpt>
      <trkpt lat="43.44165" lon="1.43616">
        <ele>171</ele>
        <time>2018-10-06T10:00:31Z</time>
      </trkpt>
      <trkpt lat="43.44165" lon="1.43617">
        <ele>171</ele>
        <time>2018-10-06T10:00:31Z</time>
      </trkpt>
      <trkpt lat="43.44167" lon="1.4362">
        <ele>171</ele>
        <time>2018-10-06T10:00:31Z</time>
      </trkpt>
      <trkpt lat="43.44172" lon="1.43609">
        <ele>171</ele>
        <time>2018-10-06T10:02:07Z</time>
      </trkpt>
      <trkpt lat="43.44172" lon="1.43609">
        <ele>171</ele>
        <time>2018-10-06T10:02:07Z</time>
      </trkpt>
      <trkpt lat="43.44172" lon="1.43609">
        <ele>171</ele>
        <time>2018-10-06T10:02:07Z</time>
      </trkpt>
      <trkpt lat="43.44172" lon="1.43609">
        <ele>171</ele>
        <time>2018-10-06T10:02:07Z</time>
      </trkpt>
      <trkpt lat="43.44172" lon="1.43609">
        <ele>171</ele>
        <time>2018-10-06T10:02:07Z</time>
      </trkpt>
      <trkpt lat="43.44172" lon="1.43604">
        <ele>171</ele>
        <time>2018-10-06T10:04:31Z</time>
      </trkpt>
      <trkpt lat="43.4417" lon="1.43608">
        <ele>171</ele>
        <time>2018-10-06T10:04:31Z</time>
      </trkpt>
      <trkpt lat="43.44168" lon="1.43611">
        <ele>171</ele>
        <time>2018-10-06T10:04:31Z</time>
      </trkpt>
      <trkpt lat="43.44165" lon="1.43613">
        <ele>171</ele>
        <time>2018-10-06T10:04:31Z</time>
      </trkpt>
      <trkpt lat="43.44165" lon="1.43617">
        <ele>171</ele>
        <time>2018-10-06T10:04:31Z</time>
      </trkpt>
      <trkpt lat="43.44166" lon="1.43623">
        <ele>171</ele>
        <time>2018-10-06T10:04:47Z</time>
      </trkpt>
      <trkpt lat="43.44166" lon="1.4363">
        <ele>181</ele>
        <time>2018-10-06T10:04:47Z</time>
      </trkpt>
      <trkpt lat="43.44166" lon="1.43639">
        <ele>181</ele>
        <time>2018-10-06T10:04:47Z</time>
      </trkpt>
      <trkpt lat="43.44166" lon="1.43648">
        <ele>181</ele>
        <time>2018-10-06T10:04:47Z</time>
      </trkpt>
      <trkpt lat="43.44167" lon="1.43656">
        <ele>181</ele>
        <time>2018-10-06T10:05:03Z</time>
      </trkpt>
      <trkpt lat="43.44166" lon="1.43664">
        <ele>181</ele>
        <time>2018-10-06T10:05:03Z</time>
      </trkpt>
      <trkpt lat="43.44165" lon="1.4367">
        <ele>181</ele>
        <time>2018-10-06T10:05:03Z</time>
      </trkpt>
      <trkpt lat="43.44164" lon="1.43675">
        <ele>181</ele>
        <time>2018-10-06T10:05:03Z</time>
      </trkpt>
      <trkpt lat="43.44162" lon="1.43681">
        <ele>181</ele>
        <time>2018-10-06T10:05:19Z</time>
      </trkpt>
      <trkpt lat="43.44159" lon="1.43687">
        <ele>181</ele>
        <time>2018-10-06T10:05:19Z</time>
      </trkpt>
      <trkpt lat="43.44157" lon="1.43693">
        <ele>181</ele>
        <time>2018-10-06T10:05:19Z</time>
      </trkpt>
      <trkpt lat="43.44155" lon="1.43699">
        <ele>181</ele>
        <time>2018-10-06T10:05:19Z</time>
      </trkpt>
      <trkpt lat="43.44154" lon="1.43705">
        <ele>181</ele>
        <time>2018-10-06T10:05:35Z</time>
      </trkpt>
      <trkpt lat="43.44155" lon="1.4371">
        <ele>193</ele>
        <time>2018-10-06T10:05:35Z</time>
      </trkpt>
      <trkpt lat="43.44154" lon="1.43715">
        <ele>193</ele>
        <time>2018-10-06T10:05:35Z</time>
      </trkpt>
      <trkpt lat="43.44151" lon="1.43722">
        <ele>193</ele>
        <time>2018-10-06T10:05:35Z</time>
      </trkpt>
      <trkpt lat="43.44148" lon="1.43729">
        <ele>193</ele>
        <time>2018-10-06T10:05:51Z</time>
      </trkpt>
      <trkpt lat="43.44147" lon="1.43736">
        <ele>193</ele>
        <time>2018-10-06T10:05:51Z</time>
      </trkpt>
      <trkpt lat="43.44146" lon="1.43742">
        <ele>193</ele>
        <time>2018-10-06T10:05:51Z</time>
      </trkpt>
      <trkpt lat="43.44146" lon="1.43749">
        <ele>193</ele>
        <time>2018-10-06T10:05:51Z</time>
      </trkpt>
      <trkpt lat="43.44143" lon="1.43753">
        <ele>193</ele>
        <time>2018-10-06T10:06:39Z</time>
      </trkpt>
      <trkpt lat="43.44143" lon="1.43749">
        <ele>193</ele>
        <time>2018-10-06T10:06:39Z</time>
      </trkpt>
      <trkpt lat="43.44144" lon="1.43744">
        <ele>193</ele>
        <time>2018-10-06T10:06:39Z</time>
      </trkpt>
      <trkpt lat="43.44144" lon="1.43742">
        <ele>193</ele>
        <time>2018-10-06T10:06:39Z</time>
      </trkpt>
      <trkpt lat="43.44142" lon="1.43741">
        <ele>193</ele>
        <time>2018-10-06T10:06:39Z</time>
      </trkpt>
      <trkpt lat="43.44143" lon="1.43738">
        <ele>193</ele>
        <time>2018-10-06T10:06:59Z</time>
      </trkpt>
      <trkpt lat="43.44145" lon="1.43737">
        <ele>193</ele>
        <time>2018-10-06T10:06:59Z</time>
      </trkpt>
      <trkpt lat="43.44144" lon="1.43735">
        <ele>193</ele>
        <time>2018-10-06T10:06:59Z</time>
      </trkpt>
      <trkpt lat="43.44141" lon="1.43731">
        <ele>193</ele>
        <time>2018-10-06T10:06:59Z</time>
      </trkpt>
      <trkpt lat="43.44137" lon="1.43728">
        <ele>193</ele>
        <time>2018-10-06T10:06:59Z</time>
      </trkpt>
      <trkpt lat="43.44133" lon="1.43724">
        <ele>193</ele>
        <time>2018-10-06T10:07:15Z</time>
      </trkpt>
      <trkpt lat="43.44129" lon="1.43721">
        <ele>193</ele>
        <time>2018-10-06T10:07:15Z</time>
      </trkpt>
      <trkpt lat="43.44127" lon="1.43719">
        <ele>193</ele>
        <time>2018-10-06T10:07:15Z</time>
      </trkpt>
      <trkpt lat="43.44124" lon="1.43718">
        <ele>196</ele>
        <time>2018-10-06T10:07:15Z</time>
      </trkpt>
      <trkpt lat="43.44121" lon="1.43716">
        <ele>196</ele>
        <time>2018-10-06T10:07:35Z</time>
      </trkpt>
      <trkpt lat="43.4412" lon="1.43716">
        <ele>196</ele>
        <time>2018-10-06T10:07:35Z</time>
      </trkpt>
      <trkpt lat="43.44118" lon="1.43716">
        <ele>196</ele>
        <time>2018-10-06T10:07:35Z</time>
      </trkpt>
      <trkpt lat="43.44114" lon="1.43716">
        <ele>196</ele>
        <time>2018-10-06T10:07:35Z</time>
      </trkpt>
      <trkpt lat="43.44112" lon="1.43716">
        <ele>196</ele>
        <time>2018-10-06T10:07:35Z</time>
      </trkpt>
      <trkpt lat="43.44109" lon="1.43717">
        <ele>196</ele>
        <time>2018-10-06T10:07:51Z</time>
      </trkpt>
      <trkpt lat="43.44104" lon="1.43719">
        <ele>196</ele>
        <time>2018-10-06T10:07:51Z</time>
      </trkpt>
      <trkpt lat="43.44101" lon="1.43723">
        <ele>196</ele>
        <time>2018-10-06T10:07:51Z</time>
      </trkpt>
      <trkpt lat="43.44098" lon="1.43727">
        <ele>196</ele>
        <time>2018-10-06T10:07:51Z</time>
      </trkpt>
      <trkpt lat="43.44093" lon="1.43738">
        <ele>196</ele>
        <time>2018-10-06T10:08:23Z</time>
      </trkpt>
      <trkpt lat="43.44091" lon="1.4374">
        <ele>196</ele>
        <time>2018-10-06T10:08:23Z</time>
      </trkpt>
      <trkpt lat="43.44091" lon="1.4374">
        <ele>196</ele>
        <time>2018-10-06T10:08:23Z</time>
      </trkpt>
      <trkpt lat="43.44089" lon="1.4374">
        <ele>196</ele>
        <time>2018-10-06T10:08:23Z</time>
      </trkpt>
      <trkpt lat="43.44087" lon="1.43744">
        <ele>196</ele>
        <time>2018-10-06T10:08:23Z</time>
      </trkpt>
      <trkpt lat="43.44083" lon="1.43747">
        <ele>196</ele>
        <time>2018-10-06T10:08:43Z</time>
      </trkpt>
      <trkpt lat="43.44079" lon="1.43748">
        <ele>196</ele>
        <time>2018-10-06T10:08:43Z</time>
      </trkpt>
      <trkpt lat="43.44078" lon="1.43751">
        <ele>196</ele>
        <time>2018-10-06T10:08:43Z</time>
      </trkpt>
      <trkpt lat="43.44077" lon="1.43751">
        <ele>196</ele>
        <time>2018-10-06T10:08:43Z</time>
      </trkpt>
      <trkpt lat="43.44074" lon="1.43752">
        <ele>196</ele>
        <time>2018-10-06T10:08:43Z</time>
      </trkpt>
      <trkpt lat="43.44071" lon="1.43755">
        <ele>196</ele>
        <time>2018-10-06T10:09:03Z</time>
      </trkpt>
      <trkpt lat="43.4407" lon="1.43758">
        <ele>196</ele>
        <time>2018-10-06T10:09:03Z</time>
      </trkpt>
      <trkpt lat="43.44068" lon="1.4376">
        <ele>196</ele>
        <time>2018-10-06T10:09:03Z</time>
      </trkpt>
      <trkpt lat="43.44068" lon="1.43764">
        <ele>196</ele>
        <time>2018-10-06T10:09:03Z</time>
      </trkpt>
      <trkpt lat="43.44067" lon="1.43767">
        <ele>196</ele>
        <time>2018-10-06T10:09:03Z</time>
      </trkpt>
      <trkpt lat="43.44063" lon="1.43772">
        <ele>196</ele>
        <time>2018-10-06T10:09:19Z</time>
      </trkpt>
      <trkpt lat="43.44059" lon="1.43776">
        <ele>196</ele>
        <time>2018-10-06T10:09:19Z</time>
      </trkpt>
      <trkpt lat="43.44052" lon="1.43777">
        <ele>196</ele>
        <time>2018-10-06T10:09:19Z</time>
      </trkpt>
      <trkpt lat="43.44049" lon="1.43783">
        <ele>196</ele>
        <time>2018-10-06T10:09:19Z</time>
      </trkpt>
      <trkpt lat="43.44048" lon="1.43785">
        <ele>196</ele>
        <time>2018-10-06T10:09:35Z</time>
      </trkpt>
      <trkpt lat="43.44045" lon="1.43786">
        <ele>196</ele>
        <time>2018-10-06T10:09:35Z</time>
      </trkpt>
      <trkpt lat="43.44041" lon="1.43792">
        <ele>215</ele>
        <time>2018-10-06T10:09:35Z</time>
      </trkpt>
      <trkpt lat="43.4404" lon="1.43792">
        <ele>215</ele>
        <time>2018-10-06T10:09:35Z</time>
      </trkpt>
      <trkpt lat="43.44039" lon="1.43792">
        <ele>215</ele>
        <time>2018-10-06T10:09:55Z</time>
      </trkpt>
      <trkpt lat="43.44039" lon="1.43792">
        <ele>215</ele>
        <time>2018-10-06T10:09:55Z</time>
      </trkpt>
      <trkpt lat="43.44037" lon="1.43793">
        <ele>215</ele>
        <time>2018-10-06T10:09:55Z</time>
      </trkpt>
      <trkpt lat="43.44034" lon="1.43795">
        <ele>215</ele>
        <time>2018-10-06T10:09:55Z</time>
      </trkpt>
      <trkpt lat="43.4403" lon="1.43799">
        <ele>215</ele>
        <time>2018-10-06T10:09:55Z</time>
      </trkpt>
      <trkpt lat="43.44028" lon="1.43802">
        <ele>215</ele>
        <time>2018-10-06T10:10:11Z</time>
      </trkpt>
      <trkpt lat="43.44025" lon="1.43805">
        <ele>215</ele>
        <time>2018-10-06T10:10:11Z</time>
      </trkpt>
      <trkpt lat="43.44023" lon="1.43807">
        <ele>215</ele>
        <time>2018-10-06T10:10:11Z</time>
      </trkpt>
      <trkpt lat="43.44017" lon="1.43813">
        <ele>215</ele>
        <time>2018-10-06T10:10:11Z</time>
      </trkpt>
      <trkpt lat="43.4401" lon="1.43818">
        <ele>215</ele>
        <time>2018-10-06T10:10:27Z</time>
      </trkpt>
      <trkpt lat="43.44006" lon="1.43822">
        <ele>215</ele>
        <time>2018-10-06T10:10:27Z</time>
      </trkpt>
      <trkpt lat="43.44004" lon="1.43825">
        <ele>215</ele>
        <time>2018-10-06T10:10:27Z</time>
      </trkpt>
      <trkpt lat="43.44001" lon="1.4383">
        <ele>215</ele>
        <time>2018-10-06T10:10:27Z</time>
      </trkpt>
      <trkpt lat="43.43998" lon="1.43832">
        <ele>215</ele>
        <time>2018-10-06T10:10:43Z</time>
      </trkpt>
      <trkpt lat="43.43994" lon="1.43836">
        <ele>215</ele>
        <time>2018-10-06T10:10:43Z</time>
      </trkpt>
      <trkpt lat="43.43989" lon="1.43838">
        <ele>215</ele>
        <time>2018-10-06T10:10:43Z</time>
      </trkpt>
      <trkpt lat="43.43983" lon="1.4384">
        <ele>215</ele>
        <time>2018-10-06T10:10:43Z</time>
      </trkpt>
      <trkpt lat="43.43979" lon="1.4384">
        <ele>215</ele>
        <time>2018-10-06T10:11:03Z</time>
      </trkpt>
      <trkpt lat="43.43978" lon="1.43841">
        <ele>215</ele>
        <time>2018-10-06T10:11:03Z</time>
      </trkpt>
      <trkpt lat="43.43978" lon="1.43843">
        <ele>215</ele>
        <time>2018-10-06T10:11:03Z</time>
      </trkpt>
      <trkpt lat="43.43975" lon="1.43848">
        <ele>215</ele>
        <time>2018-10-06T10:11:03Z</time>
      </trkpt>
      <trkpt lat="43.4397" lon="1.43856">
        <ele>215</ele>
        <time>2018-10-06T10:11:03Z</time>
      </trkpt>
      <trkpt lat="43.43963" lon="1.4386">
        <ele>215</ele>
        <time>2018-10-06T10:11:19Z</time>
      </trkpt>
      <trkpt lat="43.43958" lon="1.43867">
        <ele>198</ele>
        <time>2018-10-06T10:11:19Z</time>
      </trkpt>
      <trkpt lat="43.43957" lon="1.4387">
        <ele>198</ele>
        <time>2018-10-06T10:11:19Z</time>
      </trkpt>
      <trkpt lat="43.43955" lon="1.43874">
        <ele>198</ele>
        <time>2018-10-06T10:11:19Z</time>
      </trkpt>
      <trkpt lat="43.43953" lon="1.43881">
        <ele>218</ele>
        <time>2018-10-06T10:11:35Z</time>
      </trkpt>
      <trkpt lat="43.4395" lon="1.43885">
        <ele>218</ele>
        <time>2018-10-06T10:11:35Z</time>
      </trkpt>
      <trkpt lat="43.43949" lon="1.43891">
        <ele>218</ele>
        <time>2018-10-06T10:11:35Z</time>
      </trkpt>
      <trkpt lat="43.43947" lon="1.43899">
        <ele>218</ele>
        <time>2018-10-06T10:11:35Z</time>
      </trkpt>
      <trkpt lat="43.43946" lon="1.43906">
        <ele>218</ele>
        <time>2018-10-06T10:11:51Z</time>
      </trkpt>
      <trkpt lat="43.43944" lon="1.43911">
        <ele>218</ele>
        <time>2018-10-06T10:11:51Z</time>
      </trkpt>
      <trkpt lat="43.43941" lon="1.43918">
        <ele>218</ele>
        <time>2018-10-06T10:11:51Z</time>
      </trkpt>
      <trkpt lat="43.43936" lon="1.43924">
        <ele>218</ele>
        <time>2018-10-06T10:11:51Z</time>
      </trkpt>
      <trkpt lat="43.43932" lon="1.43926">
        <ele>218</ele>
        <time>2018-10-06T10:12:11Z</time>
      </trkpt>
      <trkpt lat="43.4393" lon="1.43926">
        <ele>218</ele>
        <time>2018-10-06T10:12:11Z</time>
      </trkpt>
      <trkpt lat="43.4393" lon="1.43927">
        <ele>218</ele>
        <time>2018-10-06T10:12:11Z</time>
      </trkpt>
      <trkpt lat="43.43926" lon="1.43923">
        <ele>218</ele>
        <time>2018-10-06T10:12:11Z</time>
      </trkpt>
      <trkpt lat="43.43923" lon="1.43919">
        <ele>218</ele>
        <time>2018-10-06T10:12:11Z</time>
      </trkpt>
      <trkpt lat="43.43919" lon="1.43917">
        <ele>218</ele>
        <time>2018-10-06T10:12:27Z</time>
      </trkpt>
      <trkpt lat="43.43916" lon="1.43914">
        <ele>218</ele>
        <time>2018-10-06T10:12:27Z</time>
      </trkpt>
      <trkpt lat="43.43912" lon="1.43911">
        <ele>218</ele>
        <time>2018-10-06T10:12:27Z</time>
      </trkpt>
      <trkpt lat="43.43906" lon="1.43912">
        <ele>218</ele>
        <time>2018-10-06T10:12:27Z</time>
      </trkpt>
      <trkpt lat="43.43901" lon="1.43913">
        <ele>218</ele>
        <time>2018-10-06T10:12:43Z</time>
      </trkpt>
      <trkpt lat="43.43897" lon="1.43915">
        <ele>218</ele>
        <time>2018-10-06T10:12:43Z</time>
      </trkpt>
      <trkpt lat="43.43893" lon="1.4392">
        <ele>218</ele>
        <time>2018-10-06T10:12:43Z</time>
      </trkpt>
      <trkpt lat="43.43889" lon="1.43925">
        <ele>218</ele>
        <time>2018-10-06T10:12:43Z</time>
      </trkpt>
      <trkpt lat="43.43889" lon="1.43926">
        <ele>218</ele>
        <time>2018-10-06T10:12:59Z</time>
      </trkpt>
      <trkpt lat="43.43887" lon="1.43927">
        <ele>218</ele>
        <time>2018-10-06T10:12:59Z</time>
      </trkpt>
      <trkpt lat="43.43883" lon="1.43927">
        <ele>218</ele>
        <time>2018-10-06T10:12:59Z</time>
      </trkpt>
      <trkpt lat="43.43878" lon="1.43926">
        <ele>218</ele>
        <time>2018-10-06T10:12:59Z</time>
      </trkpt>
      <trkpt lat="43.43871" lon="1.43926">
        <ele>204</ele>
        <time>2018-10-06T10:13:15Z</time>
      </trkpt>
      <trkpt lat="43.43864" lon="1.43926">
        <ele>204</ele>
        <time>2018-10-06T10:13:15Z</time>
      </trkpt>
      <trkpt lat="43.43857" lon="1.43929">
        <ele>204</ele>
        <time>2018-10-06T10:13:15Z</time>
      </trkpt>
      <trkpt lat="43.43853" lon="1.4393">
        <ele>204</ele>
        <time>2018-10-06T10:13:15Z</time>
      </trkpt>
      <trkpt lat="43.43847" lon="1.43931">
        <ele>204</ele>
        <time>2018-10-06T10:14:31Z</time>
      </trkpt>
      <trkpt lat="43.43847" lon="1.4393">
        <ele>204</ele>
        <time>2018-10-06T10:14:31Z</time>
      </trkpt>
      <trkpt lat="43.43845" lon="1.43931">
        <ele>204</ele>
        <time>2018-10-06T10:14:31Z</time>
      </trkpt>
      <trkpt lat="43.43839" lon="1.43932">
        <ele>204</ele>
        <time>2018-10-06T10:14:31Z</time>
      </trkpt>
      <trkpt lat="43.4383" lon="1.43939">
        <ele>204</ele>
        <time>2018-10-06T10:14:31Z</time>
      </trkpt>
      <trkpt lat="43.43826" lon="1.43942">
        <ele>204</ele>
        <time>2018-10-06T10:14:47Z</time>
      </trkpt>
      <trkpt lat="43.43821" lon="1.43942">
        <ele>204</ele>
        <time>2018-10-06T10:14:47Z</time>
      </trkpt>
      <trkpt lat="43.43818" lon="1.43944">
        <ele>204</ele>
        <time>2018-10-06T10:14:47Z</time>
      </trkpt>
      <trkpt lat="43.43813" lon="1.43948">
        <ele>204</ele>
        <time>2018-10-06T10:14:47Z</time>
      </trkpt>
      <trkpt lat="43.43808" lon="1.43954">
        <ele>204</ele>
        <time>2018-10-06T10:15:11Z</time>
      </trkpt>
      <trkpt lat="43.43808" lon="1.43954">
        <ele>204</ele>
        <time>2018-10-06T10:15:11Z</time>
      </trkpt>
      <trkpt lat="43.43805" lon="1.43955">
        <ele>204</ele>
        <time>2018-10-06T10:15:11Z</time>
      </trkpt>
      <trkpt lat="43.43803" lon="1.43957">
        <ele>204</ele>
        <time>2018-10-06T10:15:11Z</time>
      </trkpt>
      <trkpt lat="43.438" lon="1.43962">
        <ele>222</ele>
        <time>2018-10-06T10:15:11Z</time>
      </trkpt>
      <trkpt lat="43.43797" lon="1.43968">
        <ele>222</ele>
        <time>2018-10-06T10:15:27Z</time>
      </trkpt>
      <trkpt lat="43.43792" lon="1.43973">
        <ele>222</ele>
        <time>2018-10-06T10:15:27Z</time>
      </trkpt>
      <trkpt lat="43.43783" lon="1.43978">
        <ele>216</ele>
        <time>2018-10-06T10:15:27Z</time>
      </trkpt>
      <trkpt lat="43.43775" lon="1.43979">
        <ele>216</ele>
        <time>2018-10-06T10:15:27Z</time>
      </trkpt>
      <trkpt lat="43.43768" lon="1.4398">
        <ele>216</ele>
        <time>2018-10-06T10:15:43Z</time>
      </trkpt>
      <trkpt lat="43.4376" lon="1.43982">
        <ele>216</ele>
        <time>2018-10-06T10:15:43Z</time>
      </trkpt>
      <trkpt lat="43.43753" lon="1.43987">
        <ele>216</ele>
        <time>2018-10-06T10:15:43Z</time>
      </trkpt>
      <trkpt lat="43.43746" lon="1.43989">
        <ele>216</ele>
        <time>2018-10-06T10:15:43Z</time>
      </trkpt>
      <trkpt lat="43.4374" lon="1.43992">
        <ele>216</ele>
        <time>2018-10-06T10:16:03Z</time>
      </trkpt>
      <trkpt lat="43.43736" lon="1.43994">
        <ele>216</ele>
        <time>2018-10-06T10:16:03Z</time>
      </trkpt>
      <trkpt lat="43.43736" lon="1.43997">
        <ele>216</ele>
        <time>2018-10-06T10:16:03Z</time>
      </trkpt>
      <trkpt lat="43.43735" lon="1.43996">
        <ele>216</ele>
        <time>2018-10-06T10:16:03Z</time>
      </trkpt>
      <trkpt lat="43.43733" lon="1.43999">
        <ele>216</ele>
        <time>2018-10-06T10:16:03Z</time>
      </trkpt>
      <trkpt lat="43.43729" lon="1.44">
        <ele>216</ele>
        <time>2018-10-06T10:16:19Z</time>
      </trkpt>
      <trkpt lat="43.43724" lon="1.44004">
        <ele>216</ele>
        <time>2018-10-06T10:16:19Z</time>
      </trkpt>
      <trkpt lat="43.43721" lon="1.44007">
        <ele>216</ele>
        <time>2018-10-06T10:16:19Z</time>
      </trkpt>
      <trkpt lat="43.43717" lon="1.4401">
        <ele>216</ele>
        <time>2018-10-06T10:16:19Z</time>
      </trkpt>
      <trkpt lat="43.43712" lon="1.44012">
        <ele>216</ele>
        <time>2018-10-06T10:16:35Z</time>
      </trkpt>
      <trkpt lat="43.43706" lon="1.44015">
        <ele>210</ele>
        <time>2018-10-06T10:16:35Z</time>
      </trkpt>
      <trkpt lat="43.43697" lon="1.44018">
        <ele>210</ele>
        <time>2018-10-06T10:16:35Z</time>
      </trkpt>
      <trkpt lat="43.43688" lon="1.44018">
        <ele>210</ele>
        <time>2018-10-06T10:16:35Z</time>
      </trkpt>
      <trkpt lat="43.4368" lon="1.44017">
        <ele>210</ele>
        <time>2018-10-06T10:16:51Z</time>
      </trkpt>
      <trkpt lat="43.43673" lon="1.44018">
        <ele>210</ele>
        <time>2018-10-06T10:16:51Z</time>
      </trkpt>
      <trkpt lat="43.43665" lon="1.44016">
        <ele>210</ele>
        <time>2018-10-06T10:16:51Z</time>
      </trkpt>
      <trkpt lat="43.4366" lon="1.44019">
        <ele>210</ele>
        <time>2018-10-06T10:16:51Z</time>
      </trkpt>
      <trkpt lat="43.4365" lon="1.44027">
        <ele>210</ele>
        <time>2018-10-06T10:17:27Z</time>
      </trkpt>
      <trkpt lat="43.43645" lon="1.44028">
        <ele>210</ele>
        <time>2018-10-06T10:17:27Z</time>
      </trkpt>
      <trkpt lat="43.43641" lon="1.44029">
        <ele>210</ele>
        <time>2018-10-06T10:17:27Z</time>
      </trkpt>
      <trkpt lat="43.43637" lon="1.4403">
        <ele>210</ele>
        <time>2018-10-06T10:17:27Z</time>
      </trkpt>
      <trkpt lat="43.43632" lon="1.44031">
        <ele>210</ele>
        <time>2018-10-06T10:17:27Z</time>
      </trkpt>
      <trkpt lat="43.43625" lon="1.44033">
        <ele>210</ele>
        <time>2018-10-06T10:17:43Z</time>
      </trkpt>
      <trkpt lat="43.43619" lon="1.44034">
        <ele>193</ele>
        <time>2018-10-06T10:17:43Z</time>
      </trkpt>
      <trkpt lat="43.43613" lon="1.44035">
        <ele>193</ele>
        <time>2018-10-06T10:17:43Z</time>
      </trkpt>
      <trkpt lat="43.43607" lon="1.44036">
        <ele>193</ele>
        <time>2018-10-06T10:17:43Z</time>
      </trkpt>
      <trkpt lat="43.43602" lon="1.44036">
        <ele>193</ele>
        <time>2018-10-06T10:17:59Z</time>
      </trkpt>
      <trkpt lat="43.43595" lon="1.44035">
        <ele>193</ele>
        <time>2018-10-06T10:17:59Z</time>
      </trkpt>
      <trkpt lat="43.43589" lon="1.44033">
        <ele>193</ele>
        <time>2018-10-06T10:17:59Z</time>
      </trkpt>
      <trkpt lat="43.43581" lon="1.44033">
        <ele>193</ele>
        <time>2018-10-06T10:17:59Z</time>
      </trkpt>
      <trkpt lat="43.43578" lon="1.4404">
        <ele>193</ele>
        <time>2018-10-06T10:18:35Z</time>
      </trkpt>
      <trkpt lat="43.43573" lon="1.44042">
        <ele>208</ele>
        <time>2018-10-06T10:18:35Z</time>
      </trkpt>
      <trkpt lat="43.43568" lon="1.44046">
        <ele>208</ele>
        <time>2018-10-06T10:18:35Z</time>
      </trkpt>
      <trkpt lat="43.43568" lon="1.44049">
        <ele>208</ele>
        <time>2018-10-06T10:18:35Z</time>
      </trkpt>
      <trkpt lat="43.43567" lon="1.44049">
        <ele>208</ele>
        <time>2018-10-06T10:18:35Z</time>
      </trkpt>
      <trkpt lat="43.43568" lon="1.4405">
        <ele>208</ele>
        <time>2018-10-06T10:18:55Z</time>
      </trkpt>
      <trkpt lat="43.43568" lon="1.44049">
        <ele>208</ele>
        <time>2018-10-06T10:18:55Z</time>
      </trkpt>
      <trkpt lat="43.43568" lon="1.44052">
        <ele>208</ele>
        <time>2018-10-06T10:18:55Z</time>
      </trkpt>
      <trkpt lat="43.43569" lon="1.4406">
        <ele>208</ele>
        <time>2018-10-06T10:18:55Z</time>
      </trkpt>
      <trkpt lat="43.43571" lon="1.44063">
        <ele>208</ele>
        <time>2018-10-06T10:18:55Z</time>
      </trkpt>
      <trkpt lat="43.43569" lon="1.44062">
        <ele>208</ele>
        <time>2018-10-06T10:21:19Z</time>
      </trkpt>
      <trkpt lat="43.43568" lon="1.44062">
        <ele>208</ele>
        <time>2018-10-06T10:21:19Z</time>
      </trkpt>
      <trkpt lat="43.43567" lon="1.44062">
        <ele>208</ele>
        <time>2018-10-06T10:21:19Z</time>
      </trkpt>
      <trkpt lat="43.43566" lon="1.44062">
        <ele>208</ele>
        <time>2018-10-06T10:21:19Z</time>
      </trkpt>
      <trkpt lat="43.43563" lon="1.44063">
        <ele>208</ele>
        <time>2018-10-06T10:21:19Z</time>
      </trkpt>
      <trkpt lat="43.43557" lon="1.44058">
        <ele>208</ele>
        <time>2018-10-06T10:24:47Z</time>
      </trkpt>
      <trkpt lat="43.43553" lon="1.44057">
        <ele>208</ele>
        <time>2018-10-06T10:24:47Z</time>
      </trkpt>
      <trkpt lat="43.43549" lon="1.44055">
        <ele>208</ele>
        <time>2018-10-06T10:24:47Z</time>
      </trkpt>
      <trkpt lat="43.43549" lon="1.44054">
        <ele>208</ele>
        <time>2018-10-06T10:24:47Z</time>
      </trkpt>
      <trkpt lat="43.43548" lon="1.44053">
        <ele>208</ele>
        <time>2018-10-06T10:24:47Z</time>
      </trkpt>
      <trkpt lat="43.43542" lon="1.44053">
        <ele>208</ele>
        <time>2018-10-06T10:25:03Z</time>
      </trkpt>
      <trkpt lat="43.43536" lon="1.44054">
        <ele>190</ele>
        <time>2018-10-06T10:25:03Z</time>
      </trkpt>
      <trkpt lat="43.43531" lon="1.44052">
        <ele>190</ele>
        <time>2018-10-06T10:25:03Z</time>
      </trkpt>
      <trkpt lat="43.43525" lon="1.44047">
        <ele>190</ele>
        <time>2018-10-06T10:25:03Z</time>
      </trkpt>
      <trkpt lat="43.43521" lon="1.4405">
        <ele>190</ele>
        <time>2018-10-06T10:25:19Z</time>
      </trkpt>
      <trkpt lat="43.43517" lon="1.4405">
        <ele>190</ele>
        <time>2018-10-06T10:25:19Z</time>
      </trkpt>
      <trkpt lat="43.43516" lon="1.44051">
        <ele>190</ele>
        <time>2018-10-06T10:25:19Z</time>
      </trkpt>
      <trkpt lat="43.43512" lon="1.44051">
        <ele>190</ele>
        <time>2018-10-06T10:25:19Z</time>
      </trkpt>
      <trkpt lat="43.43506" lon="1.44054">
        <ele>190</ele>
        <time>2018-10-06T10:25:51Z</time>
      </trkpt>
      <trkpt lat="43.43505" lon="1.44053">
        <ele>190</ele>
        <time>2018-10-06T10:25:51Z</time>
      </trkpt>
      <trkpt lat="43.435" lon="1.44054">
        <ele>190</ele>
        <time>2018-10-06T10:25:51Z</time>
      </trkpt>
      <trkpt lat="43.43496" lon="1.44051">
        <ele>190</ele>
        <time>2018-10-06T10:25:51Z</time>
      </trkpt>
      <trkpt lat="43.43493" lon="1.44045">
        <ele>190</ele>
        <time>2018-10-06T10:25:51Z</time>
      </trkpt>
      <trkpt lat="43.43488" lon="1.44044">
        <ele>190</ele>
        <time>2018-10-06T10:26:07Z</time>
      </trkpt>
      <trkpt lat="43.43484" lon="1.44043">
        <ele>190</ele>
        <time>2018-10-06T10:26:07Z</time>
      </trkpt>
      <trkpt lat="43.43482" lon="1.44043">
        <ele>190</ele>
        <time>2018-10-06T10:26:07Z</time>
      </trkpt>
      <trkpt lat="43.43477" lon="1.44044">
        <ele>190</ele>
        <time>2018-10-06T10:26:07Z</time>
      </trkpt>
      <trkpt lat="43.43473" lon="1.44049">
        <ele>190</ele>
        <time>2018-10-06T10:26:23Z</time>
      </trkpt>
      <trkpt lat="43.43473" lon="1.44054">
        <ele>190</ele>
        <time>2018-10-06T10:26:23Z</time>
      </trkpt>
      <trkpt lat="43.43475" lon="1.44058">
        <ele>190</ele>
        <time>2018-10-06T10:26:23Z</time>
      </trkpt>
      <trkpt lat="43.43477" lon="1.4406">
        <ele>190</ele>
        <time>2018-10-06T10:26:23Z</time>
      </trkpt>
      <trkpt lat="43.43473" lon="1.44072">
        <ele>190</ele>
        <time>2018-10-06T10:27:19Z</time>
      </trkpt>
      <trkpt lat="43.43472" lon="1.44073">
        <ele>190</ele>
        <time>2018-10-06T10:27:19Z</time>
      </trkpt>
      <trkpt lat="43.43472" lon="1.44073">
        <ele>190</ele>
        <time>2018-10-06T10:27:19Z</time>
      </trkpt>
      <trkpt lat="43.43471" lon="1.44075">
        <ele>190</ele>
        <time>2018-10-06T10:27:19Z</time>
      </trkpt>
      <trkpt lat="43.43469" lon="1.44077">
        <ele>190</ele>
        <time>2018-10-06T10:27:19Z</time>
      </trkpt>
      <trkpt lat="43.43465" lon="1.4408">
        <ele>190</ele>
        <time>2018-10-06T10:28:11Z</time>
      </trkpt>
      <trkpt lat="43.43464" lon="1.4408">
        <ele>190</ele>
        <time>2018-10-06T10:28:11Z</time>
      </trkpt>
      <trkpt lat="43.43463" lon="1.44079">
        <ele>190</ele>
        <time>2018-10-06T10:28:11Z</time>
      </trkpt>
      <trkpt lat="43.43462" lon="1.44076">
        <ele>190</ele>
        <time>2018-10-06T10:28:11Z</time>
      </trkpt>
      <trkpt lat="43.43457" lon="1.44074">
        <ele>173</ele>
        <time>2018-10-06T10:28:11Z</time>
      </trkpt>
      <trkpt lat="43.43457" lon="1.44074">
        <ele>173</ele>
        <time>2018-10-06T10:28:27Z</time>
      </trkpt>
      <trkpt lat="43.4346" lon="1.44078">
        <ele>190</ele>
        <time>2018-10-06T10:28:27Z</time>
      </trkpt>
      <trkpt lat="43.43463" lon="1.44081">
        <ele>190</ele>
        <time>2018-10-06T10:28:27Z</time>
      </trkpt>
      <trkpt lat="43.43463" lon="1.44086">
        <ele>190</ele>
        <time>2018-10-06T10:28:27Z</time>
      </trkpt>
      <trkpt lat="43.43465" lon="1.44089">
        <ele>190</ele>
        <time>2018-10-06T10:28:47Z</time>
      </trkpt>
      <trkpt lat="43.43466" lon="1.4409">
        <ele>190</ele>
        <time>2018-10-06T10:28:47Z</time>
      </trkpt>
      <trkpt lat="43.43467" lon="1.44092">
        <ele>190</ele>
        <time>2018-10-06T10:28:47Z</time>
      </trkpt>
      <trkpt lat="43.43469" lon="1.44097">
        <ele>190</ele>
        <time>2018-10-06T10:28:47Z</time>
      </trkpt>
      <trkpt lat="43.43469" lon="1.44101">
        <ele>190</ele>
        <time>2018-10-06T10:28:47Z</time>
      </trkpt>
      <trkpt lat="43.43469" lon="1.441">
        <ele>190</ele>
        <time>2018-10-06T10:29:03Z</time>
      </trkpt>
      <trkpt lat="43.43467" lon="1.44099">
        <ele>190</ele>
        <time>2018-10-06T10:29:03Z</time>
      </trkpt>
      <trkpt lat="43.43463" lon="1.44099">
        <ele>190</ele>
        <time>2018-10-06T10:29:03Z</time>
      </trkpt>
      <trkpt lat="43.43459" lon="1.44098">
        <ele>190</ele>
        <time>2018-10-06T10:29:03Z</time>
      </trkpt>
      <trkpt lat="43.43457" lon="1.44096">
        <ele>173</ele>
        <time>2018-10-06T10:29:23Z</time>
      </trkpt>
      <trkpt lat="43.43455" lon="1.44095">
        <ele>173</ele>
        <time>2018-10-06T10:29:23Z</time>
      </trkpt>
      <trkpt lat="43.43452" lon="1.44093">
        <ele>173</ele>
        <time>2018-10-06T10:29:23Z</time>
      </trkpt>
      <trkpt lat="43.4345" lon="1.44093">
        <ele>173</ele>
        <time>2018-10-06T10:29:23Z</time>
      </trkpt>
      <trkpt lat="43.43448" lon="1.44092">
        <ele>173</ele>
        <time>2018-10-06T10:29:23Z</time>
      </trkpt>
      <trkpt lat="43.43442" lon="1.44083">
        <ele>173</ele>
        <time>2018-10-06T10:29:47Z</time>
      </trkpt>
      <trkpt lat="43.4344" lon="1.44083">
        <ele>173</ele>
        <time>2018-10-06T10:29:47Z</time>
      </trkpt>
      <trkpt lat="43.43439" lon="1.44082">
        <ele>173</ele>
        <time>2018-10-06T10:29:47Z</time>
      </trkpt>
      <trkpt lat="43.43438" lon="1.4408">
        <ele>173</ele>
        <time>2018-10-06T10:29:47Z</time>
      </trkpt>
      <trkpt lat="43.43439" lon="1.44076">
        <ele>173</ele>
        <time>2018-10-06T10:29:47Z</time>
      </trkpt>
      <trkpt lat="43.4344" lon="1.44072">
        <ele>173</ele>
        <time>2018-10-06T10:30:03Z</time>
      </trkpt>
      <trkpt lat="43.43437" lon="1.44067">
        <ele>173</ele>
        <time>2018-10-06T10:30:03Z</time>
      </trkpt>
      <trkpt lat="43.43436" lon="1.44062">
        <ele>173</ele>
        <time>2018-10-06T10:30:03Z</time>
      </trkpt>
      <trkpt lat="43.43439" lon="1.44054">
        <ele>173</ele>
        <time>2018-10-06T10:30:03Z</time>
      </trkpt>
      <trkpt lat="43.43444" lon="1.44049">
        <ele>173</ele>
        <time>2018-10-06T10:30:19Z</time>
      </trkpt>
      <trkpt lat="43.43447" lon="1.44042">
        <ele>173</ele>
        <time>2018-10-06T10:30:19Z</time>
      </trkpt>
      <trkpt lat="43.43448" lon="1.44035">
        <ele>169</ele>
        <time>2018-10-06T10:30:19Z</time>
      </trkpt>
      <trkpt lat="43.43451" lon="1.44029">
        <ele>169</ele>
        <time>2018-10-06T10:30:19Z</time>
      </trkpt>
      <trkpt lat="43.43452" lon="1.44024">
        <ele>169</ele>
        <time>2018-10-06T10:30:39Z</time>
      </trkpt>
      <trkpt lat="43.43454" lon="1.4402">
        <ele>169</ele>
        <time>2018-10-06T10:30:39Z</time>
      </trkpt>
      <trkpt lat="43.43454" lon="1.44017">
        <ele>169</ele>
        <time>2018-10-06T10:30:39Z</time>
      </trkpt>
      <trkpt lat="43.43454" lon="1.44012">
        <ele>169</ele>
        <time>2018-10-06T10:30:39Z</time>
      </trkpt>
      <trkpt lat="43.43457" lon="1.44008">
        <ele>169</ele>
        <time>2018-10-06T10:30:39Z</time>
      </trkpt>
      <trkpt lat="43.43462" lon="1.44004">
        <ele>181</ele>
        <time>2018-10-06T10:30:55Z</time>
      </trkpt>
      <trkpt lat="43.43466" lon="1.44">
        <ele>181</ele>
        <time>2018-10-06T10:30:55Z</time>
      </trkpt>
      <trkpt lat="43.4347" lon="1.43996">
        <ele>181</ele>
        <time>2018-10-06T10:30:55Z</time>
      </trkpt>
      <trkpt lat="43.43474" lon="1.43993">
        <ele>181</ele>
        <time>2018-10-06T10:30:55Z</time>
      </trkpt>
      <trkpt lat="43.43476" lon="1.43989">
        <ele>181</ele>
        <time>2018-10-06T10:31:11Z</time>
      </trkpt>
      <trkpt lat="43.43478" lon="1.43982">
        <ele>181</ele>
        <time>2018-10-06T10:31:11Z</time>
      </trkpt>
      <trkpt lat="43.43481" lon="1.43975">
        <ele>181</ele>
        <time>2018-10-06T10:31:11Z</time>
      </trkpt>
      <trkpt lat="43.43482" lon="1.4397">
        <ele>181</ele>
        <time>2018-10-06T10:31:11Z</time>
      </trkpt>
      <trkpt lat="43.43478" lon="1.4397">
        <ele>181</ele>
        <time>2018-10-06T10:31:39Z</time>
      </trkpt>
      <trkpt lat="43.43477" lon="1.43971">
        <ele>181</ele>
        <time>2018-10-06T10:31:39Z</time>
      </trkpt>
      <trkpt lat="43.43474" lon="1.43973">
        <ele>181</ele>
        <time>2018-10-06T10:31:39Z</time>
      </trkpt>
      <trkpt lat="43.43468" lon="1.43972">
        <ele>181</ele>
        <time>2018-10-06T10:31:39Z</time>
      </trkpt>
      <trkpt lat="43.43464" lon="1.43971">
        <ele>181</ele>
        <time>2018-10-06T10:31:39Z</time>
      </trkpt>
      <trkpt lat="43.43459" lon="1.43975">
        <ele>181</ele>
        <time>2018-10-06T10:31:55Z</time>
      </trkpt>
      <trkpt lat="43.43456" lon="1.43975">
        <ele>169</ele>
        <time>2018-10-06T10:31:55Z</time>
      </trkpt>
      <trkpt lat="43.43453" lon="1.43974">
        <ele>169</ele>
        <time>2018-10-06T10:31:55Z</time>
      </trkpt>
      <trkpt lat="43.43449" lon="1.43972">
        <ele>169</ele>
        <time>2018-10-06T10:31:55Z</time>
      </trkpt>
      <trkpt lat="43.43447" lon="1.43979">
        <ele>169</ele>
        <time>2018-10-06T10:32:11Z</time>
      </trkpt>
      <trkpt lat="43.43441" lon="1.43984">
        <ele>169</ele>
        <time>2018-10-06T10:32:11Z</time>
      </trkpt>
      <trkpt lat="43.43434" lon="1.43991">
        <ele>169</ele>
        <time>2018-10-06T10:32:11Z</time>
      </trkpt>
      <trkpt lat="43.43428" lon="1.43999">
        <ele>169</ele>
        <time>2018-10-06T10:32:11Z</time>
      </trkpt>
      <trkpt lat="43.43425" lon="1.44006">
        <ele>169</ele>
        <time>2018-10-06T10:32:35Z</time>
      </trkpt>
      <trkpt lat="43.43425" lon="1.44008">
        <ele>169</ele>
        <time>2018-10-06T10:32:35Z</time>
      </trkpt>
      <trkpt lat="43.43424" lon="1.4401">
        <ele>169</ele>
        <time>2018-10-06T10:32:35Z</time>
      </trkpt>
      <trkpt lat="43.43422" lon="1.44012">
        <ele>169</ele>
        <time>2018-10-06T10:32:35Z</time>
      </trkpt>
      <trkpt lat="43.43419" lon="1.44013">
        <ele>169</ele>
        <time>2018-10-06T10:32:35Z</time>
      </trkpt>
      <trkpt lat="43.43416" lon="1.44013">
        <ele>169</ele>
        <time>2018-10-06T10:32:59Z</time>
      </trkpt>
      <trkpt lat="43.43414" lon="1.44013">
        <ele>169</ele>
        <time>2018-10-06T10:32:59Z</time>
      </trkpt>
      <trkpt lat="43.43413" lon="1.44013">
        <ele>169</ele>
        <time>2018-10-06T10:32:59Z</time>
      </trkpt>
      <trkpt lat="43.43409" lon="1.44012">
        <ele>169</ele>
        <time>2018-10-06T10:32:59Z</time>
      </trkpt>
      <trkpt lat="43.43404" lon="1.44011">
        <ele>169</ele>
        <time>2018-10-06T10:32:59Z</time>
      </trkpt>
      <trkpt lat="43.43404" lon="1.44009">
        <ele>169</ele>
        <time>2018-10-06T10:33:19Z</time>
      </trkpt>
      <trkpt lat="43.43402" lon="1.44006">
        <ele>169</ele>
        <time>2018-10-06T10:33:19Z</time>
      </trkpt>
      <trkpt lat="43.43402" lon="1.44003">
        <ele>169</ele>
        <time>2018-10-06T10:33:19Z</time>
      </trkpt>
      <trkpt lat="43.434" lon="1.43999">
        <ele>169</ele>
        <time>2018-10-06T10:33:19Z</time>
      </trkpt>
      <trkpt lat="43.43401" lon="1.43995">
        <ele>169</ele>
        <time>2018-10-06T10:33:19Z</time>
      </trkpt>
      <trkpt lat="43.43405" lon="1.43995">
        <ele>169</ele>
        <time>2018-10-06T10:33:39Z</time>
      </trkpt>
      <trkpt lat="43.43407" lon="1.43994">
        <ele>169</ele>
        <time>2018-10-06T10:33:39Z</time>
      </trkpt>
      <trkpt lat="43.43407" lon="1.43989">
        <ele>169</ele>
        <time>2018-10-06T10:33:39Z</time>
      </trkpt>
      <trkpt lat="43.43405" lon="1.43983">
        <ele>169</ele>
        <time>2018-10-06T10:33:39Z</time>
      </trkpt>
      <trkpt lat="43.43405" lon="1.43977">
        <ele>169</ele>
        <time>2018-10-06T10:33:39Z</time>
      </trkpt>
      <trkpt lat="43.43406" lon="1.43971">
        <ele>169</ele>
        <time>2018-10-06T10:33:55Z</time>
      </trkpt>
      <trkpt lat="43.4341" lon="1.43965">
        <ele>169</ele>
        <time>2018-10-06T10:33:55Z</time>
      </trkpt>
      <trkpt lat="43.43413" lon="1.43958">
        <ele>164</ele>
        <time>2018-10-06T10:33:55Z</time>
      </trkpt>
      <trkpt lat="43.43415" lon="1.43951">
        <ele>164</ele>
        <time>2018-10-06T10:33:55Z</time>
      </trkpt>
      <trkpt lat="43.43418" lon="1.43944">
        <ele>164</ele>
        <time>2018-10-06T10:34:11Z</time>
      </trkpt>
      <trkpt lat="43.43419" lon="1.43937">
        <ele>164</ele>
        <time>2018-10-06T10:34:11Z</time>
      </trkpt>
      <trkpt lat="43.43422" lon="1.43928">
        <ele>164</ele>
        <time>2018-10-06T10:34:11Z</time>
      </trkpt>
      <trkpt lat="43.43424" lon="1.4392">
        <ele>164</ele>
        <time>2018-10-06T10:34:11Z</time>
      </trkpt>
      <trkpt lat="43.43425" lon="1.43912">
        <ele>164</ele>
        <time>2018-10-06T10:34:27Z</time>
      </trkpt>
      <trkpt lat="43.43425" lon="1.43904">
        <ele>164</ele>
        <time>2018-10-06T10:34:27Z</time>
      </trkpt>
      <trkpt lat="43.43427" lon="1.43898">
        <ele>164</ele>
        <time>2018-10-06T10:34:27Z</time>
      </trkpt>
      <trkpt lat="43.43426" lon="1.43891">
        <ele>164</ele>
        <time>2018-10-06T10:34:27Z</time>
      </trkpt>
      <trkpt lat="43.43426" lon="1.43888">
        <ele>164</ele>
        <time>2018-10-06T10:34:43Z</time>
      </trkpt>
      <trkpt lat="43.43424" lon="1.43884">
        <ele>164</ele>
        <time>2018-10-06T10:34:43Z</time>
      </trkpt>
      <trkpt lat="43.43424" lon="1.4388">
        <ele>164</ele>
        <time>2018-10-06T10:34:43Z</time>
      </trkpt>
      <trkpt lat="43.43426" lon="1.43875">
        <ele>165</ele>
        <time>2018-10-06T10:34:43Z</time>
      </trkpt>
      <trkpt lat="43.43422" lon="1.43863">
        <ele>165</ele>
        <time>2018-10-06T10:35:15Z</time>
      </trkpt>
      <trkpt lat="43.43422" lon="1.43862">
        <ele>165</ele>
        <time>2018-10-06T10:35:15Z</time>
      </trkpt>
      <trkpt lat="43.43422" lon="1.43862">
        <ele>165</ele>
        <time>2018-10-06T10:35:15Z</time>
      </trkpt>
      <trkpt lat="43.43425" lon="1.43858">
        <ele>165</ele>
        <time>2018-10-06T10:35:15Z</time>
      </trkpt>
      <trkpt lat="43.43422" lon="1.43853">
        <ele>165</ele>
        <time>2018-10-06T10:35:15Z</time>
      </trkpt>
      <trkpt lat="43.43417" lon="1.43849">
        <ele>165</ele>
        <time>2018-10-06T10:35:31Z</time>
      </trkpt>
      <trkpt lat="43.43417" lon="1.43841">
        <ele>165</ele>
        <time>2018-10-06T10:35:31Z</time>
      </trkpt>
      <trkpt lat="43.43416" lon="1.43835">
        <ele>165</ele>
        <time>2018-10-06T10:35:31Z</time>
      </trkpt>
      <trkpt lat="43.43409" lon="1.43834">
        <ele>165</ele>
        <time>2018-10-06T10:35:31Z</time>
      </trkpt>
      <trkpt lat="43.43404" lon="1.43832">
        <ele>165</ele>
        <time>2018-10-06T10:35:47Z</time>
      </trkpt>
      <trkpt lat="43.434" lon="1.43829">
        <ele>165</ele>
        <time>2018-10-06T10:35:47Z</time>
      </trkpt>
      <trkpt lat="43.43395" lon="1.43829">
        <ele>165</ele>
        <time>2018-10-06T10:35:47Z</time>
      </trkpt>
      <trkpt lat="43.43392" lon="1.43824">
        <ele>165</ele>
        <time>2018-10-06T10:35:47Z</time>
      </trkpt>
      <trkpt lat="43.43389" lon="1.4382">
        <ele>165</ele>
        <time>2018-10-06T10:36:03Z</time>
      </trkpt>
      <trkpt lat="43.43388" lon="1.43818">
        <ele>165</ele>
        <time>2018-10-06T10:36:03Z</time>
      </trkpt>
      <trkpt lat="43.43383" lon="1.43817">
        <ele>165</ele>
        <time>2018-10-06T10:36:03Z</time>
      </trkpt>
      <trkpt lat="43.43379" lon="1.43815">
        <ele>165</ele>
        <time>2018-10-06T10:36:03Z</time>
      </trkpt>
      <trkpt lat="43.43374" lon="1.43813">
        <ele>168</ele>
        <time>2018-10-06T10:36:19Z</time>
      </trkpt>
      <trkpt lat="43.43369" lon="1.4381">
        <ele>168</ele>
        <time>2018-10-06T10:36:19Z</time>
      </trkpt>
      <trkpt lat="43.43367" lon="1.43806">
        <ele>168</ele>
        <time>2018-10-06T10:36:19Z</time>
      </trkpt>
      <trkpt lat="43.43363" lon="1.43803">
        <ele>168</ele>
        <time>2018-10-06T10:36:19Z</time>
      </trkpt>
      <trkpt lat="43.43357" lon="1.438">
        <ele>168</ele>
        <time>2018-10-06T10:36:35Z</time>
      </trkpt>
      <trkpt lat="43.43354" lon="1.43796">
        <ele>168</ele>
        <time>2018-10-06T10:36:36Z</time>
      </trkpt>
      <trkpt lat="43.43351" lon="1.43795">
        <ele>168</ele>
        <time>2018-10-06T10:36:36Z</time>
      </trkpt>
      <trkpt lat="43.43346" lon="1.43789">
        <ele>165</ele>
        <time>2018-10-06T10:36:36Z</time>
      </trkpt>
      <trkpt lat="43.4334" lon="1.43786">
        <ele>165</ele>
        <time>2018-10-06T10:36:51Z</time>
      </trkpt>
      <trkpt lat="43.43335" lon="1.43784">
        <ele>165</ele>
        <time>2018-10-06T10:36:51Z</time>
      </trkpt>
      <trkpt lat="43.43331" lon="1.43781">
        <ele>165</ele>
        <time>2018-10-06T10:36:51Z</time>
      </trkpt>
      <trkpt lat="43.43326" lon="1.43779">
        <ele>165</ele>
        <time>2018-10-06T10:36:51Z</time>
      </trkpt>
      <trkpt lat="43.4332" lon="1.43777">
        <ele>165</ele>
        <time>2018-10-06T10:37:07Z</time>
      </trkpt>
      <trkpt lat="43.43316" lon="1.43774">
        <ele>165</ele>
        <time>2018-10-06T10:37:07Z</time>
      </trkpt>
      <trkpt lat="43.43313" lon="1.43771">
        <ele>165</ele>
        <time>2018-10-06T10:37:07Z</time>
      </trkpt>
      <trkpt lat="43.43309" lon="1.43769">
        <ele>165</ele>
        <time>2018-10-06T10:37:07Z</time>
      </trkpt>
      <trkpt lat="43.43305" lon="1.43767">
        <ele>165</ele>
        <time>2018-10-06T10:37:27Z</time>
      </trkpt>
      <trkpt lat="43.43299" lon="1.43768">
        <ele>165</ele>
        <time>2018-10-06T10:37:27Z</time>
      </trkpt>
      <trkpt lat="43.43297" lon="1.43767">
        <ele>165</ele>
        <time>2018-10-06T10:37:27Z</time>
      </trkpt>
      <trkpt lat="43.43296" lon="1.43766">
        <ele>165</ele>
        <time>2018-10-06T10:37:27Z</time>
      </trkpt>
      <trkpt lat="43.43294" lon="1.43764">
        <ele>165</ele>
        <time>2018-10-06T10:37:27Z</time>
      </trkpt>
      <trkpt lat="43.4329" lon="1.43765">
        <ele>166</ele>
        <time>2018-10-06T10:37:43Z</time>
      </trkpt>
      <trkpt lat="43.43286" lon="1.43762">
        <ele>166</ele>
        <time>2018-10-06T10:37:43Z</time>
      </trkpt>
      <trkpt lat="43.43281" lon="1.43759">
        <ele>166</ele>
        <time>2018-10-06T10:37:43Z</time>
      </trkpt>
      <trkpt lat="43.43278" lon="1.43759">
        <ele>166</ele>
        <time>2018-10-06T10:37:43Z</time>
      </trkpt>
      <trkpt lat="43.4327" lon="1.4375">
        <ele>166</ele>
        <time>2018-10-06T10:38:35Z</time>
      </trkpt>
      <trkpt lat="43.43269" lon="1.4375">
        <ele>166</ele>
        <time>2018-10-06T10:38:35Z</time>
      </trkpt>
      <trkpt lat="43.43269" lon="1.43749">
        <ele>166</ele>
        <time>2018-10-06T10:38:35Z</time>
      </trkpt>
      <trkpt lat="43.43265" lon="1.43747">
        <ele>166</ele>
        <time>2018-10-06T10:38:35Z</time>
      </trkpt>
      <trkpt lat="43.43258" lon="1.43752">
        <ele>166</ele>
        <time>2018-10-06T10:38:35Z</time>
      </trkpt>
      <trkpt lat="43.43252" lon="1.43754">
        <ele>166</ele>
        <time>2018-10-06T10:38:51Z</time>
      </trkpt>
      <trkpt lat="43.43247" lon="1.43752">
        <ele>166</ele>
        <time>2018-10-06T10:38:51Z</time>
      </trkpt>
      <trkpt lat="43.4324" lon="1.43755">
        <ele>166</ele>
        <time>2018-10-06T10:38:51Z</time>
      </trkpt>
      <trkpt lat="43.43239" lon="1.43759">
        <ele>166</ele>
        <time>2018-10-06T10:38:51Z</time>
      </trkpt>
      <trkpt lat="43.43238" lon="1.43761">
        <ele>166</ele>
        <time>2018-10-06T10:39:15Z</time>
      </trkpt>
      <trkpt lat="43.43238" lon="1.43762">
        <ele>166</ele>
        <time>2018-10-06T10:39:15Z</time>
      </trkpt>
      <trkpt lat="43.43239" lon="1.43761">
        <ele>166</ele>
        <time>2018-10-06T10:39:15Z</time>
      </trkpt>
      <trkpt lat="43.43241" lon="1.43759">
        <ele>166</ele>
        <time>2018-10-06T10:39:15Z</time>
      </trkpt>
      <trkpt lat="43.43244" lon="1.43753">
        <ele>166</ele>
        <time>2018-10-06T10:39:15Z</time>
      </trkpt>
      <trkpt lat="43.43248" lon="1.43746">
        <ele>166</ele>
        <time>2018-10-06T10:39:31Z</time>
      </trkpt>
      <trkpt lat="43.4325" lon="1.4374">
        <ele>166</ele>
        <time>2018-10-06T10:39:31Z</time>
      </trkpt>
      <trkpt lat="43.43253" lon="1.43736">
        <ele>166</ele>
        <time>2018-10-06T10:39:31Z</time>
      </trkpt>
      <trkpt lat="43.43255" lon="1.43732">
        <ele>166</ele>
        <time>2018-10-06T10:39:31Z</time>
      </trkpt>
      <trkpt lat="43.43257" lon="1.43726">
        <ele>166</ele>
        <time>2018-10-06T10:39:47Z</time>
      </trkpt>
      <trkpt lat="43.43259" lon="1.43718">
        <ele>166</ele>
        <time>2018-10-06T10:39:47Z</time>
      </trkpt>
      <trkpt lat="43.43261" lon="1.4371">
        <ele>166</ele>
        <time>2018-10-06T10:39:47Z</time>
      </trkpt>
      <trkpt lat="43.43264" lon="1.437">
        <ele>167</ele>
        <time>2018-10-06T10:39:47Z</time>
      </trkpt>
      <trkpt lat="43.43267" lon="1.43689">
        <ele>167</ele>
        <time>2018-10-06T10:40:03Z</time>
      </trkpt>
      <trkpt lat="43.43269" lon="1.43682">
        <ele>167</ele>
        <time>2018-10-06T10:40:03Z</time>
      </trkpt>
      <trkpt lat="43.43269" lon="1.43676">
        <ele>167</ele>
        <time>2018-10-06T10:40:03Z</time>
      </trkpt>
      <trkpt lat="43.43271" lon="1.43671">
        <ele>167</ele>
        <time>2018-10-06T10:40:03Z</time>
      </trkpt>
      <trkpt lat="43.43272" lon="1.43668">
        <ele>167</ele>
        <time>2018-10-06T10:40:19Z</time>
      </trkpt>
      <trkpt lat="43.43272" lon="1.43665">
        <ele>167</ele>
        <time>2018-10-06T10:40:19Z</time>
      </trkpt>
      <trkpt lat="43.43273" lon="1.4366">
        <ele>167</ele>
        <time>2018-10-06T10:40:19Z</time>
      </trkpt>
      <trkpt lat="43.43273" lon="1.43656">
        <ele>167</ele>
        <time>2018-10-06T10:40:19Z</time>
      </trkpt>
      <trkpt lat="43.43274" lon="1.43652">
        <ele>167</ele>
        <time>2018-10-06T10:40:35Z</time>
      </trkpt>
      <trkpt lat="43.43275" lon="1.43647">
        <ele>167</ele>
        <time>2018-10-06T10:40:35Z</time>
      </trkpt>
      <trkpt lat="43.43277" lon="1.43642">
        <ele>167</ele>
        <time>2018-10-06T10:40:35Z</time>
      </trkpt>
      <trkpt lat="43.43279" lon="1.43637">
        <ele>167</ele>
        <time>2018-10-06T10:40:35Z</time>
      </trkpt>
      <trkpt lat="43.43281" lon="1.43631">
        <ele>167</ele>
        <time>2018-10-06T10:40:51Z</time>
      </trkpt>
      <trkpt lat="43.43283" lon="1.43624">
        <ele>171</ele>
        <time>2018-10-06T10:40:51Z</time>
      </trkpt>
      <trkpt lat="43.43283" lon="1.43616">
        <ele>171</ele>
        <time>2018-10-06T10:40:51Z</time>
      </trkpt>
      <trkpt lat="43.43284" lon="1.4361">
        <ele>171</ele>
        <time>2018-10-06T10:40:51Z</time>
      </trkpt>
      <trkpt lat="43.43284" lon="1.43604">
        <ele>171</ele>
        <time>2018-10-06T10:41:07Z</time>
      </trkpt>
      <trkpt lat="43.43286" lon="1.43598">
        <ele>171</ele>
        <time>2018-10-06T10:41:07Z</time>
      </trkpt>
      <trkpt lat="43.43287" lon="1.43594">
        <ele>171</ele>
        <time>2018-10-06T10:41:07Z</time>
      </trkpt>
      <trkpt lat="43.43288" lon="1.43591">
        <ele>171</ele>
        <time>2018-10-06T10:41:07Z</time>
      </trkpt>
      <trkpt lat="43.43288" lon="1.43589">
        <ele>171</ele>
        <time>2018-10-06T10:41:35Z</time>
      </trkpt>
      <trkpt lat="43.43288" lon="1.43591">
        <ele>171</ele>
        <time>2018-10-06T10:41:35Z</time>
      </trkpt>
      <trkpt lat="43.43288" lon="1.43596">
        <ele>171</ele>
        <time>2018-10-06T10:41:35Z</time>
      </trkpt>
      <trkpt lat="43.43287" lon="1.43601">
        <ele>171</ele>
        <time>2018-10-06T10:41:35Z</time>
      </trkpt>
      <trkpt lat="43.43288" lon="1.43605">
        <ele>171</ele>
        <time>2018-10-06T10:41:35Z</time>
      </trkpt>
      <trkpt lat="43.43293" lon="1.43608">
        <ele>176</ele>
        <time>2018-10-06T10:41:51Z</time>
      </trkpt>
      <trkpt lat="43.43296" lon="1.43609">
        <ele>176</ele>
        <time>2018-10-06T10:41:51Z</time>
      </trkpt>
      <trkpt lat="43.433" lon="1.4361">
        <ele>176</ele>
        <time>2018-10-06T10:41:51Z</time>
      </trkpt>
      <trkpt lat="43.43303" lon="1.43613">
        <ele>176</ele>
        <time>2018-10-06T10:41:51Z</time>
      </trkpt>
      <trkpt lat="43.43307" lon="1.43617">
        <ele>176</ele>
        <time>2018-10-06T10:42:07Z</time>
      </trkpt>
      <trkpt lat="43.4331" lon="1.43623">
        <ele>176</ele>
        <time>2018-10-06T10:42:07Z</time>
      </trkpt>
      <trkpt lat="43.43312" lon="1.43631">
        <ele>168</ele>
        <time>2018-10-06T10:42:07Z</time>
      </trkpt>
      <trkpt lat="43.43316" lon="1.43636">
        <ele>168</ele>
        <time>2018-10-06T10:42:07Z</time>
      </trkpt>
      <trkpt lat="43.4332" lon="1.43641">
        <ele>168</ele>
        <time>2018-10-06T10:42:23Z</time>
      </trkpt>
      <trkpt lat="43.43324" lon="1.43645">
        <ele>168</ele>
        <time>2018-10-06T10:42:23Z</time>
      </trkpt>
      <trkpt lat="43.43327" lon="1.43647">
        <ele>168</ele>
        <time>2018-10-06T10:42:23Z</time>
      </trkpt>
      <trkpt lat="43.43329" lon="1.43651">
        <ele>168</ele>
        <time>2018-10-06T10:42:23Z</time>
      </trkpt>
      <trkpt lat="43.4333" lon="1.43656">
        <ele>168</ele>
        <time>2018-10-06T10:42:39Z</time>
      </trkpt>
      <trkpt lat="43.43334" lon="1.43659">
        <ele>168</ele>
        <time>2018-10-06T10:42:39Z</time>
      </trkpt>
      <trkpt lat="43.43337" lon="1.43661">
        <ele>168</ele>
        <time>2018-10-06T10:42:39Z</time>
      </trkpt>
      <trkpt lat="43.4334" lon="1.43667">
        <ele>168</ele>
        <time>2018-10-06T10:42:39Z</time>
      </trkpt>
      <trkpt lat="43.43343" lon="1.43671">
        <ele>168</ele>
        <time>2018-10-06T10:42:55Z</time>
      </trkpt>
      <trkpt lat="43.43348" lon="1.43675">
        <ele>168</ele>
        <time>2018-10-06T10:42:55Z</time>
      </trkpt>
      <trkpt lat="43.43352" lon="1.43678">
        <ele>168</ele>
        <time>2018-10-06T10:42:55Z</time>
      </trkpt>
      <trkpt lat="43.43356" lon="1.43682">
        <ele>168</ele>
        <time>2018-10-06T10:42:55Z</time>
      </trkpt>
      <trkpt lat="43.43359" lon="1.43687">
        <ele>168</ele>
        <time>2018-10-06T10:43:11Z</time>
      </trkpt>
      <trkpt lat="43.43363" lon="1.43691">
        <ele>168</ele>
        <time>2018-10-06T10:43:11Z</time>
      </trkpt>
      <trkpt lat="43.43367" lon="1.43693">
        <ele>168</ele>
        <time>2018-10-06T10:43:11Z</time>
      </trkpt>
      <trkpt lat="43.4337" lon="1.43696">
        <ele>168</ele>
        <time>2018-10-06T10:43:11Z</time>
      </trkpt>
      <trkpt lat="43.43377" lon="1.43695">
        <ele>169</ele>
        <time>2018-10-06T10:43:27Z</time>
      </trkpt>
      <trkpt lat="43.43381" lon="1.43699">
        <ele>169</ele>
        <time>2018-10-06T10:43:27Z</time>
      </trkpt>
      <trkpt lat="43.43385" lon="1.43702">
        <ele>169</ele>
        <time>2018-10-06T10:43:27Z</time>
      </trkpt>
      <trkpt lat="43.43391" lon="1.437">
        <ele>169</ele>
        <time>2018-10-06T10:43:27Z</time>
      </trkpt>
      <trkpt lat="43.43399" lon="1.43701">
        <ele>169</ele>
        <time>2018-10-06T10:43:43Z</time>
      </trkpt>
      <trkpt lat="43.43404" lon="1.43706">
        <ele>169</ele>
        <time>2018-10-06T10:43:43Z</time>
      </trkpt>
      <trkpt lat="43.43408" lon="1.43707">
        <ele>169</ele>
        <time>2018-10-06T10:43:43Z</time>
      </trkpt>
      <trkpt lat="43.43412" lon="1.43707">
        <ele>169</ele>
        <time>2018-10-06T10:43:43Z</time>
      </trkpt>
      <trkpt lat="43.43417" lon="1.43706">
        <ele>169</ele>
        <time>2018-10-06T10:43:59Z</time>
      </trkpt>
      <trkpt lat="43.43423" lon="1.43705">
        <ele>169</ele>
        <time>2018-10-06T10:43:59Z</time>
      </trkpt>
      <trkpt lat="43.4343" lon="1.43699">
        <ele>169</ele>
        <time>2018-10-06T10:43:59Z</time>
      </trkpt>
      <trkpt lat="43.43437" lon="1.43698">
        <ele>169</ele>
        <time>2018-10-06T10:43:59Z</time>
      </trkpt>
      <trkpt lat="43.4345" lon="1.43699">
        <ele>169</ele>
        <time>2018-10-06T10:44:31Z</time>
      </trkpt>
      <trkpt lat="43.43453" lon="1.43697">
        <ele>169</ele>
        <time>2018-10-06T10:44:31Z</time>
      </trkpt>
      <trkpt lat="43.43459" lon="1.43694">
        <ele>170</ele>
        <time>2018-10-06T10:44:31Z</time>
      </trkpt>
      <trkpt lat="43.43466" lon="1.43689">
        <ele>170</ele>
        <time>2018-10-06T10:44:31Z</time>
      </trkpt>
      <trkpt lat="43.43472" lon="1.43684">
        <ele>170</ele>
        <time>2018-10-06T10:44:31Z</time>
      </trkpt>
      <trkpt lat="43.43477" lon="1.43676">
        <ele>170</ele>
        <time>2018-10-06T10:44:47Z</time>
      </trkpt>
      <trkpt lat="43.4348" lon="1.4367">
        <ele>170</ele>
        <time>2018-10-06T10:44:47Z</time>
      </trkpt>
      <trkpt lat="43.43485" lon="1.43667">
        <ele>170</ele>
        <time>2018-10-06T10:44:47Z</time>
      </trkpt>
      <trkpt lat="43.4349" lon="1.43663">
        <ele>170</ele>
        <time>2018-10-06T10:44:47Z</time>
      </trkpt>
      <trkpt lat="43.43496" lon="1.43658">
        <ele>170</ele>
        <time>2018-10-06T10:45:03Z</time>
      </trkpt>
      <trkpt lat="43.43501" lon="1.43654">
        <ele>170</ele>
        <time>2018-10-06T10:45:03Z</time>
      </trkpt>
      <trkpt lat="43.43506" lon="1.43647">
        <ele>170</ele>
        <time>2018-10-06T10:45:03Z</time>
      </trkpt>
      <trkpt lat="43.43512" lon="1.43639">
        <ele>170</ele>
        <time>2018-10-06T10:45:03Z</time>
      </trkpt>
      <trkpt lat="43.43516" lon="1.43635">
        <ele>170</ele>
        <time>2018-10-06T10:45:19Z</time>
      </trkpt>
      <trkpt lat="43.43518" lon="1.43633">
        <ele>170</ele>
        <time>2018-10-06T10:45:19Z</time>
      </trkpt>
      <trkpt lat="43.4352" lon="1.43631">
        <ele>170</ele>
        <time>2018-10-06T10:45:19Z</time>
      </trkpt>
      <trkpt lat="43.43523" lon="1.43626">
        <ele>170</ele>
        <time>2018-10-06T10:45:19Z</time>
      </trkpt>
      <trkpt lat="43.43525" lon="1.43623">
        <ele>174</ele>
        <time>2018-10-06T10:45:35Z</time>
      </trkpt>
      <trkpt lat="43.43528" lon="1.43619">
        <ele>174</ele>
        <time>2018-10-06T10:45:35Z</time>
      </trkpt>
      <trkpt lat="43.4353" lon="1.43612">
        <ele>174</ele>
        <time>2018-10-06T10:45:35Z</time>
      </trkpt>
      <trkpt lat="43.43534" lon="1.43609">
        <ele>174</ele>
        <time>2018-10-06T10:45:35Z</time>
      </trkpt>
      <trkpt lat="43.43537" lon="1.43607">
        <ele>174</ele>
        <time>2018-10-06T10:45:51Z</time>
      </trkpt>
      <trkpt lat="43.4354" lon="1.436">
        <ele>174</ele>
        <time>2018-10-06T10:45:51Z</time>
      </trkpt>
      <trkpt lat="43.43544" lon="1.43596">
        <ele>171</ele>
        <time>2018-10-06T10:45:51Z</time>
      </trkpt>
      <trkpt lat="43.43548" lon="1.43591">
        <ele>171</ele>
        <time>2018-10-06T10:45:51Z</time>
      </trkpt>
      <trkpt lat="43.4355" lon="1.43587">
        <ele>171</ele>
        <time>2018-10-06T10:46:07Z</time>
      </trkpt>
      <trkpt lat="43.43554" lon="1.43585">
        <ele>171</ele>
        <time>2018-10-06T10:46:07Z</time>
      </trkpt>
      <trkpt lat="43.4356" lon="1.43577">
        <ele>171</ele>
        <time>2018-10-06T10:46:07Z</time>
      </trkpt>
      <trkpt lat="43.43563" lon="1.43574">
        <ele>171</ele>
        <time>2018-10-06T10:46:07Z</time>
      </trkpt>
      <trkpt lat="43.43566" lon="1.4357">
        <ele>171</ele>
        <time>2018-10-06T10:46:23Z</time>
      </trkpt>
      <trkpt lat="43.43568" lon="1.43565">
        <ele>171</ele>
        <time>2018-10-06T10:46:23Z</time>
      </trkpt>
      <trkpt lat="43.43572" lon="1.4356">
        <ele>171</ele>
        <time>2018-10-06T10:46:23Z</time>
      </trkpt>
      <trkpt lat="43.43576" lon="1.43557">
        <ele>171</ele>
        <time>2018-10-06T10:46:23Z</time>
      </trkpt>
      <trkpt lat="43.43578" lon="1.43551">
        <ele>171</ele>
        <time>2018-10-06T10:46:39Z</time>
      </trkpt>
      <trkpt lat="43.43581" lon="1.43547">
        <ele>171</ele>
        <time>2018-10-06T10:46:39Z</time>
      </trkpt>
      <trkpt lat="43.43584" lon="1.43545">
        <ele>171</ele>
        <time>2018-10-06T10:46:39Z</time>
      </trkpt>
      <trkpt lat="43.43588" lon="1.4354">
        <ele>176</ele>
        <time>2018-10-06T10:46:39Z</time>
      </trkpt>
      <trkpt lat="43.43592" lon="1.43534">
        <ele>176</ele>
        <time>2018-10-06T10:46:55Z</time>
      </trkpt>
      <trkpt lat="43.43595" lon="1.4353">
        <ele>176</ele>
        <time>2018-10-06T10:46:55Z</time>
      </trkpt>
      <trkpt lat="43.43597" lon="1.43529">
        <ele>176</ele>
        <time>2018-10-06T10:46:55Z</time>
      </trkpt>
      <trkpt lat="43.43599" lon="1.43523">
        <ele>176</ele>
        <time>2018-10-06T10:46:55Z</time>
      </trkpt>
      <trkpt lat="43.43601" lon="1.43514">
        <ele>176</ele>
        <time>2018-10-06T10:47:11Z</time>
      </trkpt>
      <trkpt lat="43.43604" lon="1.43506">
        <ele>176</ele>
        <time>2018-10-06T10:47:11Z</time>
      </trkpt>
      <trkpt lat="43.43607" lon="1.43496">
        <ele>176</ele>
        <time>2018-10-06T10:47:11Z</time>
      </trkpt>
      <trkpt lat="43.43612" lon="1.4349">
        <ele>176</ele>
        <time>2018-10-06T10:47:11Z</time>
      </trkpt>
      <trkpt lat="43.43617" lon="1.43489">
        <ele>176</ele>
        <time>2018-10-06T10:47:27Z</time>
      </trkpt>
      <trkpt lat="43.43619" lon="1.43486">
        <ele>176</ele>
        <time>2018-10-06T10:47:27Z</time>
      </trkpt>
      <trkpt lat="43.4362" lon="1.43481">
        <ele>176</ele>
        <time>2018-10-06T10:47:27Z</time>
      </trkpt>
      <trkpt lat="43.43622" lon="1.43476">
        <ele>176</ele>
        <time>2018-10-06T10:47:27Z</time>
      </trkpt>
      <trkpt lat="43.43624" lon="1.43474">
        <ele>176</ele>
        <time>2018-10-06T10:47:43Z</time>
      </trkpt>
      <trkpt lat="43.43625" lon="1.43471">
        <ele>176</ele>
        <time>2018-10-06T10:47:43Z</time>
      </trkpt>
      <trkpt lat="43.43627" lon="1.43465">
        <ele>167</ele>
        <time>2018-10-06T10:47:43Z</time>
      </trkpt>
      <trkpt lat="43.43628" lon="1.43461">
        <ele>167</ele>
        <time>2018-10-06T10:47:43Z</time>
      </trkpt>
      <trkpt lat="43.4363" lon="1.43455">
        <ele>167</ele>
        <time>2018-10-06T10:47:59Z</time>
      </trkpt>
      <trkpt lat="43.43632" lon="1.43452">
        <ele>167</ele>
        <time>2018-10-06T10:47:59Z</time>
      </trkpt>
      <trkpt lat="43.43634" lon="1.43446">
        <ele>167</ele>
        <time>2018-10-06T10:47:59Z</time>
      </trkpt>
      <trkpt lat="43.43635" lon="1.4344">
        <ele>167</ele>
        <time>2018-10-06T10:47:59Z</time>
      </trkpt>
      <trkpt lat="43.43637" lon="1.43432">
        <ele>167</ele>
        <time>2018-10-06T10:48:15Z</time>
      </trkpt>
      <trkpt lat="43.43637" lon="1.43426">
        <ele>167</ele>
        <time>2018-10-06T10:48:15Z</time>
      </trkpt>
      <trkpt lat="43.43638" lon="1.43419">
        <ele>167</ele>
        <time>2018-10-06T10:48:15Z</time>
      </trkpt>
      <trkpt lat="43.43637" lon="1.43414">
        <ele>167</ele>
        <time>2018-10-06T10:48:15Z</time>
      </trkpt>
      <trkpt lat="43.43636" lon="1.4341">
        <ele>167</ele>
        <time>2018-10-06T10:48:31Z</time>
      </trkpt>
      <trkpt lat="43.43636" lon="1.43404">
        <ele>167</ele>
        <time>2018-10-06T10:48:31Z</time>
      </trkpt>
      <trkpt lat="43.43633" lon="1.43395">
        <ele>167</ele>
        <time>2018-10-06T10:48:31Z</time>
      </trkpt>
      <trkpt lat="43.4363" lon="1.43387">
        <ele>167</ele>
        <time>2018-10-06T10:48:31Z</time>
      </trkpt>
      <trkpt lat="43.43628" lon="1.4338">
        <ele>167</ele>
        <time>2018-10-06T10:48:47Z</time>
      </trkpt>
      <trkpt lat="43.43626" lon="1.43371">
        <ele>165</ele>
        <time>2018-10-06T10:48:47Z</time>
      </trkpt>
      <trkpt lat="43.43625" lon="1.43362">
        <ele>167</ele>
        <time>2018-10-06T10:48:47Z</time>
      </trkpt>
      <trkpt lat="43.43623" lon="1.43353">
        <ele>167</ele>
        <time>2018-10-06T10:48:47Z</time>
      </trkpt>
      <trkpt lat="43.4362" lon="1.43344">
        <ele>167</ele>
        <time>2018-10-06T10:49:03Z</time>
      </trkpt>
      <trkpt lat="43.43618" lon="1.43337">
        <ele>167</ele>
        <time>2018-10-06T10:49:03Z</time>
      </trkpt>
      <trkpt lat="43.43616" lon="1.43332">
        <ele>167</ele>
        <time>2018-10-06T10:49:03Z</time>
      </trkpt>
      <trkpt lat="43.43613" lon="1.43329">
        <ele>167</ele>
        <time>2018-10-06T10:49:03Z</time>
      </trkpt>
      <trkpt lat="43.43611" lon="1.43326">
        <ele>167</ele>
        <time>2018-10-06T10:49:19Z</time>
      </trkpt>
      <trkpt lat="43.4361" lon="1.43319">
        <ele>167</ele>
        <time>2018-10-06T10:49:19Z</time>
      </trkpt>
      <trkpt lat="43.4361" lon="1.43312">
        <ele>167</ele>
        <time>2018-10-06T10:49:19Z</time>
      </trkpt>
      <trkpt lat="43.4361" lon="1.43304">
        <ele>167</ele>
        <time>2018-10-06T10:49:19Z</time>
      </trkpt>
      <trkpt lat="43.43608" lon="1.43295">
        <ele>167</ele>
        <time>2018-10-06T10:49:35Z</time>
      </trkpt>
      <trkpt lat="43.43608" lon="1.43289">
        <ele>166</ele>
        <time>2018-10-06T10:49:35Z</time>
      </trkpt>
      <trkpt lat="43.43607" lon="1.43285">
        <ele>166</ele>
        <time>2018-10-06T10:49:35Z</time>
      </trkpt>
      <trkpt lat="43.43605" lon="1.4328">
        <ele>166</ele>
        <time>2018-10-06T10:49:35Z</time>
      </trkpt>
      <trkpt lat="43.43606" lon="1.43274">
        <ele>166</ele>
        <time>2018-10-06T10:49:51Z</time>
      </trkpt>
      <trkpt lat="43.43603" lon="1.43269">
        <ele>166</ele>
        <time>2018-10-06T10:49:51Z</time>
      </trkpt>
      <trkpt lat="43.436" lon="1.43263">
        <ele>166</ele>
        <time>2018-10-06T10:49:51Z</time>
      </trkpt>
      <trkpt lat="43.43596" lon="1.43259">
        <ele>166</ele>
        <time>2018-10-06T10:49:51Z</time>
      </trkpt>
      <trkpt lat="43.43594" lon="1.43253">
        <ele>166</ele>
        <time>2018-10-06T10:50:07Z</time>
      </trkpt>
      <trkpt lat="43.43591" lon="1.43244">
        <ele>166</ele>
        <time>2018-10-06T10:50:07Z</time>
      </trkpt>
      <trkpt lat="43.43589" lon="1.43235">
        <ele>166</ele>
        <time>2018-10-06T10:50:07Z</time>
      </trkpt>
      <trkpt lat="43.4359" lon="1.43229">
        <ele>166</ele>
        <time>2018-10-06T10:50:07Z</time>
      </trkpt>
      <trkpt lat="43.4359" lon="1.43224">
        <ele>166</ele>
        <time>2018-10-06T10:50:23Z</time>
      </trkpt>
      <trkpt lat="43.4359" lon="1.43221">
        <ele>166</ele>
        <time>2018-10-06T10:50:23Z</time>
      </trkpt>
      <trkpt lat="43.43592" lon="1.43218">
        <ele>166</ele>
        <time>2018-10-06T10:50:23Z</time>
      </trkpt>
      <trkpt lat="43.43593" lon="1.43212">
        <ele>166</ele>
        <time>2018-10-06T10:50:23Z</time>
      </trkpt>
      <trkpt lat="43.43594" lon="1.43207">
        <ele>168</ele>
        <time>2018-10-06T10:50:39Z</time>
      </trkpt>
      <trkpt lat="43.43595" lon="1.432">
        <ele>168</ele>
        <time>2018-10-06T10:50:39Z</time>
      </trkpt>
      <trkpt lat="43.43599" lon="1.43192">
        <ele>168</ele>
        <time>2018-10-06T10:50:39Z</time>
      </trkpt>
      <trkpt lat="43.43604" lon="1.43187">
        <ele>168</ele>
        <time>2018-10-06T10:50:39Z</time>
      </trkpt>
      <trkpt lat="43.43611" lon="1.43184">
        <ele>168</ele>
        <time>2018-10-06T10:50:55Z</time>
      </trkpt>
      <trkpt lat="43.43616" lon="1.43183">
        <ele>168</ele>
        <time>2018-10-06T10:50:55Z</time>
      </trkpt>
      <trkpt lat="43.43616" lon="1.43176">
        <ele>168</ele>
        <time>2018-10-06T10:50:55Z</time>
      </trkpt>
      <trkpt lat="43.43617" lon="1.4317">
        <ele>168</ele>
        <time>2018-10-06T10:50:55Z</time>
      </trkpt>
      <trkpt lat="43.43618" lon="1.43165">
        <ele>168</ele>
        <time>2018-10-06T10:51:11Z</time>
      </trkpt>
      <trkpt lat="43.4362" lon="1.4316">
        <ele>168</ele>
        <time>2018-10-06T10:51:11Z</time>
      </trkpt>
      <trkpt lat="43.43623" lon="1.43153">
        <ele>168</ele>
        <time>2018-10-06T10:51:11Z</time>
      </trkpt>
      <trkpt lat="43.43626" lon="1.43149">
        <ele>166</ele>
        <time>2018-10-06T10:51:11Z</time>
      </trkpt>
      <trkpt lat="43.43639" lon="1.43129">
        <ele>166</ele>
        <time>2018-10-06T10:51:43Z</time>
      </trkpt>
      <trkpt lat="43.43642" lon="1.43121">
        <ele>168</ele>
        <time>2018-10-06T10:51:43Z</time>
      </trkpt>
      <trkpt lat="43.43645" lon="1.43114">
        <ele>168</ele>
        <time>2018-10-06T10:51:43Z</time>
      </trkpt>
      <trkpt lat="43.43648" lon="1.43108">
        <ele>168</ele>
        <time>2018-10-06T10:51:43Z</time>
      </trkpt>
      <trkpt lat="43.4365" lon="1.43102">
        <ele>168</ele>
        <time>2018-10-06T10:51:43Z</time>
      </trkpt>
      <trkpt lat="43.43653" lon="1.43098">
        <ele>168</ele>
        <time>2018-10-06T10:51:59Z</time>
      </trkpt>
      <trkpt lat="43.43655" lon="1.43093">
        <ele>168</ele>
        <time>2018-10-06T10:51:59Z</time>
      </trkpt>
      <trkpt lat="43.43658" lon="1.43089">
        <ele>168</ele>
        <time>2018-10-06T10:51:59Z</time>
      </trkpt>
      <trkpt lat="43.43661" lon="1.43084">
        <ele>168</ele>
        <time>2018-10-06T10:51:59Z</time>
      </trkpt>
      <trkpt lat="43.43664" lon="1.43078">
        <ele>168</ele>
        <time>2018-10-06T10:52:15Z</time>
      </trkpt>
      <trkpt lat="43.43666" lon="1.43073">
        <ele>168</ele>
        <time>2018-10-06T10:52:15Z</time>
      </trkpt>
      <trkpt lat="43.43668" lon="1.43066">
        <ele>168</ele>
        <time>2018-10-06T10:52:15Z</time>
      </trkpt>
      <trkpt lat="43.4367" lon="1.4306">
        <ele>168</ele>
        <time>2018-10-06T10:52:15Z</time>
      </trkpt>
      <trkpt lat="43.43673" lon="1.43055">
        <ele>168</ele>
        <time>2018-10-06T10:52:31Z</time>
      </trkpt>
      <trkpt lat="43.43676" lon="1.4305">
        <ele>168</ele>
        <time>2018-10-06T10:52:31Z</time>
      </trkpt>
      <trkpt lat="43.43678" lon="1.43044">
        <ele>168</ele>
        <time>2018-10-06T10:52:31Z</time>
      </trkpt>
      <trkpt lat="43.43681" lon="1.43039">
        <ele>169</ele>
        <time>2018-10-06T10:52:31Z</time>
      </trkpt>
      <trkpt lat="43.43684" lon="1.43033">
        <ele>169</ele>
        <time>2018-10-06T10:52:47Z</time>
      </trkpt>
      <trkpt lat="43.43687" lon="1.43028">
        <ele>169</ele>
        <time>2018-10-06T10:52:47Z</time>
      </trkpt>
      <trkpt lat="43.43689" lon="1.43022">
        <ele>169</ele>
        <time>2018-10-06T10:52:47Z</time>
      </trkpt>
      <trkpt lat="43.43692" lon="1.43016">
        <ele>169</ele>
        <time>2018-10-06T10:52:47Z</time>
      </trkpt>
      <trkpt lat="43.43695" lon="1.4301">
        <ele>169</ele>
        <time>2018-10-06T10:53:03Z</time>
      </trkpt>
      <trkpt lat="43.43697" lon="1.43005">
        <ele>169</ele>
        <time>2018-10-06T10:53:03Z</time>
      </trkpt>
      <trkpt lat="43.437" lon="1.43001">
        <ele>169</ele>
        <time>2018-10-06T10:53:03Z</time>
      </trkpt>
      <trkpt lat="43.43703" lon="1.42997">
        <ele>169</ele>
        <time>2018-10-06T10:53:03Z</time>
      </trkpt>
      <trkpt lat="43.43707" lon="1.42998">
        <ele>169</ele>
        <time>2018-10-06T10:53:19Z</time>
      </trkpt>
      <trkpt lat="43.4371" lon="1.42999">
        <ele>169</ele>
        <time>2018-10-06T10:53:19Z</time>
      </trkpt>
      <trkpt lat="43.43714" lon="1.43">
        <ele>169</ele>
        <time>2018-10-06T10:53:19Z</time>
      </trkpt>
      <trkpt lat="43.43718" lon="1.43001">
        <ele>169</ele>
        <time>2018-10-06T10:53:19Z</time>
      </trkpt>
      <trkpt lat="43.43722" lon="1.43002">
        <ele>169</ele>
        <time>2018-10-06T10:53:35Z</time>
      </trkpt>
      <trkpt lat="43.43727" lon="1.43001">
        <ele>169</ele>
        <time>2018-10-06T10:53:35Z</time>
      </trkpt>
      <trkpt lat="43.43733" lon="1.42999">
        <ele>169</ele>
        <time>2018-10-06T10:53:35Z</time>
      </trkpt>
      <trkpt lat="43.4374" lon="1.43">
        <ele>169</ele>
        <time>2018-10-06T10:53:35Z</time>
      </trkpt>
      <trkpt lat="43.43745" lon="1.43001">
        <ele>169</ele>
        <time>2018-10-06T10:53:51Z</time>
      </trkpt>
      <trkpt lat="43.43749" lon="1.42997">
        <ele>169</ele>
        <time>2018-10-06T10:53:51Z</time>
      </trkpt>
      <trkpt lat="43.43753" lon="1.42991">
        <ele>169</ele>
        <time>2018-10-06T10:53:51Z</time>
      </trkpt>
      <trkpt lat="43.43756" lon="1.42984">
        <ele>169</ele>
        <time>2018-10-06T10:53:51Z</time>
      </trkpt>
      <trkpt lat="43.43757" lon="1.42977">
        <ele>169</ele>
        <time>2018-10-06T10:54:07Z</time>
      </trkpt>
      <trkpt lat="43.43758" lon="1.42971">
        <ele>169</ele>
        <time>2018-10-06T10:54:07Z</time>
      </trkpt>
      <trkpt lat="43.4376" lon="1.42965">
        <ele>169</ele>
        <time>2018-10-06T10:54:07Z</time>
      </trkpt>
      <trkpt lat="43.43763" lon="1.42959">
        <ele>169</ele>
        <time>2018-10-06T10:54:07Z</time>
      </trkpt>
      <trkpt lat="43.43766" lon="1.42956">
        <ele>170</ele>
        <time>2018-10-06T10:54:23Z</time>
      </trkpt>
      <trkpt lat="43.4377" lon="1.42957">
        <ele>170</ele>
        <time>2018-10-06T10:54:23Z</time>
      </trkpt>
      <trkpt lat="43.43774" lon="1.42959">
        <ele>169</ele>
        <time>2018-10-06T10:54:23Z</time>
      </trkpt>
      <trkpt lat="43.43779" lon="1.42962">
        <ele>169</ele>
        <time>2018-10-06T10:54:23Z</time>
      </trkpt>
      <trkpt lat="43.43782" lon="1.42965">
        <ele>169</ele>
        <time>2018-10-06T10:54:39Z</time>
      </trkpt>
      <trkpt lat="43.43787" lon="1.42963">
        <ele>169</ele>
        <time>2018-10-06T10:54:39Z</time>
      </trkpt>
      <trkpt lat="43.4379" lon="1.42964">
        <ele>169</ele>
        <time>2018-10-06T10:54:39Z</time>
      </trkpt>
      <trkpt lat="43.43794" lon="1.42965">
        <ele>166</ele>
        <time>2018-10-06T10:54:39Z</time>
      </trkpt>
      <trkpt lat="43.43799" lon="1.42964">
        <ele>166</ele>
        <time>2018-10-06T10:54:55Z</time>
      </trkpt>
      <trkpt lat="43.43803" lon="1.42965">
        <ele>166</ele>
        <time>2018-10-06T10:54:55Z</time>
      </trkpt>
      <trkpt lat="43.43808" lon="1.42965">
        <ele>166</ele>
        <time>2018-10-06T10:54:55Z</time>
      </trkpt>
      <trkpt lat="43.43813" lon="1.42965">
        <ele>166</ele>
        <time>2018-10-06T10:54:55Z</time>
      </trkpt>
      <trkpt lat="43.43818" lon="1.42965">
        <ele>166</ele>
        <time>2018-10-06T10:55:11Z</time>
      </trkpt>
      <trkpt lat="43.43823" lon="1.42965">
        <ele>166</ele>
        <time>2018-10-06T10:55:11Z</time>
      </trkpt>
      <trkpt lat="43.43828" lon="1.42965">
        <ele>166</ele>
        <time>2018-10-06T10:55:11Z</time>
      </trkpt>
      <trkpt lat="43.43833" lon="1.42966">
        <ele>166</ele>
        <time>2018-10-06T10:55:11Z</time>
      </trkpt>
      <trkpt lat="43.43838" lon="1.42967">
        <ele>166</ele>
        <time>2018-10-06T10:55:27Z</time>
      </trkpt>
      <trkpt lat="43.43844" lon="1.42964">
        <ele>166</ele>
        <time>2018-10-06T10:55:27Z</time>
      </trkpt>
      <trkpt lat="43.4385" lon="1.42961">
        <ele>166</ele>
        <time>2018-10-06T10:55:27Z</time>
      </trkpt>
      <trkpt lat="43.43854" lon="1.42962">
        <ele>166</ele>
        <time>2018-10-06T10:55:27Z</time>
      </trkpt>
      <trkpt lat="43.43859" lon="1.42963">
        <ele>166</ele>
        <time>2018-10-06T10:55:43Z</time>
      </trkpt>
      <trkpt lat="43.43864" lon="1.42962">
        <ele>166</ele>
        <time>2018-10-06T10:55:43Z</time>
      </trkpt>
      <trkpt lat="43.43869" lon="1.4296">
        <ele>166</ele>
        <time>2018-10-06T10:55:43Z</time>
      </trkpt>
      <trkpt lat="43.43873" lon="1.42963">
        <ele>166</ele>
        <time>2018-10-06T10:55:43Z</time>
      </trkpt>
      <trkpt lat="43.43878" lon="1.42967">
        <ele>166</ele>
        <time>2018-10-06T10:55:59Z</time>
      </trkpt>
      <trkpt lat="43.43883" lon="1.42969">
        <ele>166</ele>
        <time>2018-10-06T10:55:59Z</time>
      </trkpt>
      <trkpt lat="43.43889" lon="1.42968">
        <ele>166</ele>
        <time>2018-10-06T10:55:59Z</time>
      </trkpt>
      <trkpt lat="43.43894" lon="1.42967">
        <ele>166</ele>
        <time>2018-10-06T10:55:59Z</time>
      </trkpt>
      <trkpt lat="43.43899" lon="1.42965">
        <ele>166</ele>
        <time>2018-10-06T10:56:15Z</time>
      </trkpt>
      <trkpt lat="43.43904" lon="1.42962">
        <ele>166</ele>
        <time>2018-10-06T10:56:15Z</time>
      </trkpt>
      <trkpt lat="43.43909" lon="1.4296">
        <ele>166</ele>
        <time>2018-10-06T10:56:15Z</time>
      </trkpt>
      <trkpt lat="43.43913" lon="1.42955">
        <ele>167</ele>
        <time>2018-10-06T10:56:15Z</time>
      </trkpt>
      <trkpt lat="43.43918" lon="1.42953">
        <ele>167</ele>
        <time>2018-10-06T10:56:31Z</time>
      </trkpt>
      <trkpt lat="43.43922" lon="1.42951">
        <ele>167</ele>
        <time>2018-10-06T10:56:31Z</time>
      </trkpt>
      <trkpt lat="43.43928" lon="1.4295">
        <ele>167</ele>
        <time>2018-10-06T10:56:31Z</time>
      </trkpt>
      <trkpt lat="43.43933" lon="1.4295">
        <ele>167</ele>
        <time>2018-10-06T10:56:31Z</time>
      </trkpt>
      <trkpt lat="43.43938" lon="1.42947">
        <ele>167</ele>
        <time>2018-10-06T10:56:47Z</time>
      </trkpt>
      <trkpt lat="43.43942" lon="1.42944">
        <ele>167</ele>
        <time>2018-10-06T10:56:47Z</time>
      </trkpt>
      <trkpt lat="43.43947" lon="1.4294">
        <ele>167</ele>
        <time>2018-10-06T10:56:47Z</time>
      </trkpt>
      <trkpt lat="43.43952" lon="1.42936">
        <ele>167</ele>
        <time>2018-10-06T10:56:47Z</time>
      </trkpt>
      <trkpt lat="43.43956" lon="1.42931">
        <ele>167</ele>
        <time>2018-10-06T10:57:03Z</time>
      </trkpt>
      <trkpt lat="43.4396" lon="1.42927">
        <ele>167</ele>
        <time>2018-10-06T10:57:03Z</time>
      </trkpt>
      <trkpt lat="43.43964" lon="1.42923">
        <ele>167</ele>
        <time>2018-10-06T10:57:03Z</time>
      </trkpt>
      <trkpt lat="43.43968" lon="1.42919">
        <ele>167</ele>
        <time>2018-10-06T10:57:03Z</time>
      </trkpt>
      <trkpt lat="43.43972" lon="1.42915">
        <ele>167</ele>
        <time>2018-10-06T10:57:19Z</time>
      </trkpt>
      <trkpt lat="43.43976" lon="1.42911">
        <ele>167</ele>
        <time>2018-10-06T10:57:19Z</time>
      </trkpt>
      <trkpt lat="43.4398" lon="1.42908">
        <ele>167</ele>
        <time>2018-10-06T10:57:19Z</time>
      </trkpt>
      <trkpt lat="43.43983" lon="1.42903">
        <ele>167</ele>
        <time>2018-10-06T10:57:19Z</time>
      </trkpt>
      <trkpt lat="43.43987" lon="1.42898">
        <ele>167</ele>
        <time>2018-10-06T10:57:35Z</time>
      </trkpt>
      <trkpt lat="43.4399" lon="1.42894">
        <ele>167</ele>
        <time>2018-10-06T10:57:35Z</time>
      </trkpt>
      <trkpt lat="43.43994" lon="1.42891">
        <ele>167</ele>
        <time>2018-10-06T10:57:35Z</time>
      </trkpt>
      <trkpt lat="43.43998" lon="1.42888">
        <ele>167</ele>
        <time>2018-10-06T10:57:35Z</time>
      </trkpt>
      <trkpt lat="43.44003" lon="1.42886">
        <ele>167</ele>
        <time>2018-10-06T10:57:51Z</time>
      </trkpt>
      <trkpt lat="43.44007" lon="1.42882">
        <ele>167</ele>
        <time>2018-10-06T10:57:51Z</time>
      </trkpt>
      <trkpt lat="43.44012" lon="1.42878">
        <ele>167</ele>
        <time>2018-10-06T10:57:51Z</time>
      </trkpt>
      <trkpt lat="43.44015" lon="1.42873">
        <ele>166</ele>
        <time>2018-10-06T10:57:51Z</time>
      </trkpt>
      <trkpt lat="43.44019" lon="1.42868">
        <ele>166</ele>
        <time>2018-10-06T10:58:07Z</time>
      </trkpt>
      <trkpt lat="43.44022" lon="1.42863">
        <ele>166</ele>
        <time>2018-10-06T10:58:07Z</time>
      </trkpt>
      <trkpt lat="43.44025" lon="1.42858">
        <ele>166</ele>
        <time>2018-10-06T10:58:07Z</time>
      </trkpt>
      <trkpt lat="43.44029" lon="1.42854">
        <ele>166</ele>
        <time>2018-10-06T10:58:07Z</time>
      </trkpt>
      <trkpt lat="43.44033" lon="1.4285">
        <ele>166</ele>
        <time>2018-10-06T10:58:23Z</time>
      </trkpt>
      <trkpt lat="43.44038" lon="1.42847">
        <ele>166</ele>
        <time>2018-10-06T10:58:23Z</time>
      </trkpt>
      <trkpt lat="43.44041" lon="1.42843">
        <ele>166</ele>
        <time>2018-10-06T10:58:23Z</time>
      </trkpt>
      <trkpt lat="43.44045" lon="1.42839">
        <ele>166</ele>
        <time>2018-10-06T10:58:23Z</time>
      </trkpt>
      <trkpt lat="43.44049" lon="1.42836">
        <ele>166</ele>
        <time>2018-10-06T10:58:39Z</time>
      </trkpt>
      <trkpt lat="43.44053" lon="1.42832">
        <ele>166</ele>
        <time>2018-10-06T10:58:39Z</time>
      </trkpt>
      <trkpt lat="43.44056" lon="1.42828">
        <ele>166</ele>
        <time>2018-10-06T10:58:39Z</time>
      </trkpt>
      <trkpt lat="43.44059" lon="1.42825">
        <ele>166</ele>
        <time>2018-10-06T10:58:39Z</time>
      </trkpt>
      <trkpt lat="43.44064" lon="1.42822">
        <ele>166</ele>
        <time>2018-10-06T10:58:55Z</time>
      </trkpt>
      <trkpt lat="43.44068" lon="1.42819">
        <ele>166</ele>
        <time>2018-10-06T10:58:55Z</time>
      </trkpt>
      <trkpt lat="43.44073" lon="1.42818">
        <ele>166</ele>
        <time>2018-10-06T10:58:55Z</time>
      </trkpt>
      <trkpt lat="43.44078" lon="1.42818">
        <ele>166</ele>
        <time>2018-10-06T10:58:55Z</time>
      </trkpt>
      <trkpt lat="43.44083" lon="1.42818">
        <ele>166</ele>
        <time>2018-10-06T10:59:11Z</time>
      </trkpt>
      <trkpt lat="43.44089" lon="1.42817">
        <ele>166</ele>
        <time>2018-10-06T10:59:11Z</time>
      </trkpt>
      <trkpt lat="43.44095" lon="1.42815">
        <ele>166</ele>
        <time>2018-10-06T10:59:11Z</time>
      </trkpt>
      <trkpt lat="43.441" lon="1.42816">
        <ele>166</ele>
        <time>2018-10-06T10:59:11Z</time>
      </trkpt>
      <trkpt lat="43.44105" lon="1.42816">
        <ele>166</ele>
        <time>2018-10-06T10:59:27Z</time>
      </trkpt>
      <trkpt lat="43.44109" lon="1.42817">
        <ele>166</ele>
        <time>2018-10-06T10:59:27Z</time>
      </trkpt>
      <trkpt lat="43.44113" lon="1.42819">
        <ele>166</ele>
        <time>2018-10-06T10:59:27Z</time>
      </trkpt>
      <trkpt lat="43.44118" lon="1.4282">
        <ele>166</ele>
        <time>2018-10-06T10:59:27Z</time>
      </trkpt>
      <trkpt lat="43.44122" lon="1.4282">
        <ele>166</ele>
        <time>2018-10-06T10:59:43Z</time>
      </trkpt>
      <trkpt lat="43.44128" lon="1.42821">
        <ele>167</ele>
        <time>2018-10-06T10:59:43Z</time>
      </trkpt>
      <trkpt lat="43.44133" lon="1.42822">
        <ele>167</ele>
        <time>2018-10-06T10:59:43Z</time>
      </trkpt>
      <trkpt lat="43.44139" lon="1.42822">
        <ele>167</ele>
        <time>2018-10-06T10:59:43Z</time>
      </trkpt>
      <trkpt lat="43.44144" lon="1.42823">
        <ele>167</ele>
        <time>2018-10-06T10:59:59Z</time>
      </trkpt>
      <trkpt lat="43.44149" lon="1.42823">
        <ele>167</ele>
        <time>2018-10-06T10:59:59Z</time>
      </trkpt>
      <trkpt lat="43.44153" lon="1.42824">
        <ele>167</ele>
        <time>2018-10-06T10:59:59Z</time>
      </trkpt>
      <trkpt lat="43.44156" lon="1.42826">
        <ele>167</ele>
        <time>2018-10-06T10:59:59Z</time>
      </trkpt>
      <trkpt lat="43.44158" lon="1.42829">
        <ele>167</ele>
        <time>2018-10-06T11:00:15Z</time>
      </trkpt>
      <trkpt lat="43.44161" lon="1.42831">
        <ele>167</ele>
        <time>2018-10-06T11:00:15Z</time>
      </trkpt>
      <trkpt lat="43.44166" lon="1.4283">
        <ele>167</ele>
        <time>2018-10-06T11:00:15Z</time>
      </trkpt>
      <trkpt lat="43.44171" lon="1.42829">
        <ele>167</ele>
        <time>2018-10-06T11:00:15Z</time>
      </trkpt>
      <trkpt lat="43.44176" lon="1.42827">
        <ele>167</ele>
        <time>2018-10-06T11:00:31Z</time>
      </trkpt>
      <trkpt lat="43.44181" lon="1.42824">
        <ele>167</ele>
        <time>2018-10-06T11:00:31Z</time>
      </trkpt>
      <trkpt lat="43.44184" lon="1.42819">
        <ele>167</ele>
        <time>2018-10-06T11:00:31Z</time>
      </trkpt>
      <trkpt lat="43.44188" lon="1.42813">
        <ele>167</ele>
        <time>2018-10-06T11:00:31Z</time>
      </trkpt>
      <trkpt lat="43.44193" lon="1.42806">
        <ele>167</ele>
        <time>2018-10-06T11:00:47Z</time>
      </trkpt>
      <trkpt lat="43.44198" lon="1.42801">
        <ele>167</ele>
        <time>2018-10-06T11:00:47Z</time>
      </trkpt>
      <trkpt lat="43.44204" lon="1.42796">
        <ele>167</ele>
        <time>2018-10-06T11:00:47Z</time>
      </trkpt>
      <trkpt lat="43.44208" lon="1.4279">
        <ele>164</ele>
        <time>2018-10-06T11:00:47Z</time>
      </trkpt>
      <trkpt lat="43.44213" lon="1.42785">
        <ele>170</ele>
        <time>2018-10-06T11:01:03Z</time>
      </trkpt>
      <trkpt lat="43.44216" lon="1.42779">
        <ele>170</ele>
        <time>2018-10-06T11:01:03Z</time>
      </trkpt>
      <trkpt lat="43.44219" lon="1.42773">
        <ele>170</ele>
        <time>2018-10-06T11:01:03Z</time>
      </trkpt>
      <trkpt lat="43.44223" lon="1.42768">
        <ele>170</ele>
        <time>2018-10-06T11:01:03Z</time>
      </trkpt>
      <trkpt lat="43.44226" lon="1.42763">
        <ele>170</ele>
        <time>2018-10-06T11:01:19Z</time>
      </trkpt>
      <trkpt lat="43.44229" lon="1.42758">
        <ele>170</ele>
        <time>2018-10-06T11:01:19Z</time>
      </trkpt>
      <trkpt lat="43.44231" lon="1.42754">
        <ele>170</ele>
        <time>2018-10-06T11:01:19Z</time>
      </trkpt>
      <trkpt lat="43.44233" lon="1.42749">
        <ele>170</ele>
        <time>2018-10-06T11:01:19Z</time>
      </trkpt>
      <trkpt lat="43.44237" lon="1.42744">
        <ele>170</ele>
        <time>2018-10-06T11:01:35Z</time>
      </trkpt>
      <trkpt lat="43.4424" lon="1.42739">
        <ele>170</ele>
        <time>2018-10-06T11:01:35Z</time>
      </trkpt>
      <trkpt lat="43.44244" lon="1.42733">
        <ele>170</ele>
        <time>2018-10-06T11:01:35Z</time>
      </trkpt>
      <trkpt lat="43.44248" lon="1.42728">
        <ele>170</ele>
        <time>2018-10-06T11:01:35Z</time>
      </trkpt>
      <trkpt lat="43.44251" lon="1.42724">
        <ele>170</ele>
        <time>2018-10-06T11:01:51Z</time>
      </trkpt>
      <trkpt lat="43.44254" lon="1.42718">
        <ele>170</ele>
        <time>2018-10-06T11:01:51Z</time>
      </trkpt>
      <trkpt lat="43.44256" lon="1.42711">
        <ele>170</ele>
        <time>2018-10-06T11:01:51Z</time>
      </trkpt>
      <trkpt lat="43.44257" lon="1.42705">
        <ele>167</ele>
        <time>2018-10-06T11:01:51Z</time>
      </trkpt>
      <trkpt lat="43.44261" lon="1.427">
        <ele>167</ele>
        <time>2018-10-06T11:02:07Z</time>
      </trkpt>
      <trkpt lat="43.44265" lon="1.42694">
        <ele>167</ele>
        <time>2018-10-06T11:02:07Z</time>
      </trkpt>
      <trkpt lat="43.44268" lon="1.4269">
        <ele>167</ele>
        <time>2018-10-06T11:02:07Z</time>
      </trkpt>
      <trkpt lat="43.44271" lon="1.42685">
        <ele>167</ele>
        <time>2018-10-06T11:02:07Z</time>
      </trkpt>
      <trkpt lat="43.44275" lon="1.42679">
        <ele>167</ele>
        <time>2018-10-06T11:02:23Z</time>
      </trkpt>
      <trkpt lat="43.4428" lon="1.42675">
        <ele>167</ele>
        <time>2018-10-06T11:02:23Z</time>
      </trkpt>
      <trkpt lat="43.44284" lon="1.42669">
        <ele>167</ele>
        <time>2018-10-06T11:02:23Z</time>
      </trkpt>
      <trkpt lat="43.44286" lon="1.42664">
        <ele>167</ele>
        <time>2018-10-06T11:02:23Z</time>
      </trkpt>
      <trkpt lat="43.44289" lon="1.4266">
        <ele>167</ele>
        <time>2018-10-06T11:02:39Z</time>
      </trkpt>
      <trkpt lat="43.44293" lon="1.42654">
        <ele>173</ele>
        <time>2018-10-06T11:02:39Z</time>
      </trkpt>
      <trkpt lat="43.44296" lon="1.4265">
        <ele>173</ele>
        <time>2018-10-06T11:02:39Z</time>
      </trkpt>
      <trkpt lat="43.443" lon="1.42646">
        <ele>173</ele>
        <time>2018-10-06T11:02:39Z</time>
      </trkpt>
      <trkpt lat="43.44303" lon="1.42642">
        <ele>173</ele>
        <time>2018-10-06T11:02:55Z</time>
      </trkpt>
      <trkpt lat="43.44306" lon="1.42636">
        <ele>173</ele>
        <time>2018-10-06T11:02:55Z</time>
      </trkpt>
      <trkpt lat="43.4431" lon="1.42629">
        <ele>173</ele>
        <time>2018-10-06T11:02:55Z</time>
      </trkpt>
      <trkpt lat="43.44313" lon="1.42622">
        <ele>170</ele>
        <time>2018-10-06T11:02:55Z</time>
      </trkpt>
      <trkpt lat="43.44318" lon="1.42617">
        <ele>170</ele>
        <time>2018-10-06T11:03:11Z</time>
      </trkpt>
      <trkpt lat="43.44321" lon="1.42611">
        <ele>170</ele>
        <time>2018-10-06T11:03:11Z</time>
      </trkpt>
      <trkpt lat="43.44325" lon="1.42605">
        <ele>170</ele>
        <time>2018-10-06T11:03:11Z</time>
      </trkpt>
      <trkpt lat="43.44329" lon="1.42598">
        <ele>170</ele>
        <time>2018-10-06T11:03:11Z</time>
      </trkpt>
      <trkpt lat="43.44334" lon="1.42595">
        <ele>170</ele>
        <time>2018-10-06T11:03:27Z</time>
      </trkpt>
      <trkpt lat="43.44339" lon="1.42589">
        <ele>170</ele>
        <time>2018-10-06T11:03:27Z</time>
      </trkpt>
      <trkpt lat="43.4434" lon="1.42582">
        <ele>170</ele>
        <time>2018-10-06T11:03:27Z</time>
      </trkpt>
      <trkpt lat="43.44343" lon="1.42576">
        <ele>170</ele>
        <time>2018-10-06T11:03:27Z</time>
      </trkpt>
      <trkpt lat="43.44348" lon="1.42572">
        <ele>170</ele>
        <time>2018-10-06T11:03:43Z</time>
      </trkpt>
      <trkpt lat="43.44351" lon="1.42568">
        <ele>170</ele>
        <time>2018-10-06T11:03:43Z</time>
      </trkpt>
      <trkpt lat="43.44354" lon="1.42563">
        <ele>170</ele>
        <time>2018-10-06T11:03:43Z</time>
      </trkpt>
      <trkpt lat="43.44357" lon="1.42559">
        <ele>170</ele>
        <time>2018-10-06T11:03:43Z</time>
      </trkpt>
      <trkpt lat="43.44361" lon="1.42554">
        <ele>170</ele>
        <time>2018-10-06T11:03:59Z</time>
      </trkpt>
      <trkpt lat="43.44365" lon="1.4255">
        <ele>170</ele>
        <time>2018-10-06T11:03:59Z</time>
      </trkpt>
      <trkpt lat="43.44369" lon="1.42545">
        <ele>170</ele>
        <time>2018-10-06T11:03:59Z</time>
      </trkpt>
      <trkpt lat="43.44371" lon="1.42539">
        <ele>165</ele>
        <time>2018-10-06T11:03:59Z</time>
      </trkpt>
      <trkpt lat="43.44375" lon="1.42533">
        <ele>165</ele>
        <time>2018-10-06T11:04:15Z</time>
      </trkpt>
      <trkpt lat="43.44377" lon="1.42526">
        <ele>167</ele>
        <time>2018-10-06T11:04:15Z</time>
      </trkpt>
      <trkpt lat="43.4438" lon="1.42519">
        <ele>167</ele>
        <time>2018-10-06T11:04:15Z</time>
      </trkpt>
      <trkpt lat="43.44383" lon="1.42514">
        <ele>167</ele>
        <time>2018-10-06T11:04:15Z</time>
      </trkpt>
      <trkpt lat="43.44387" lon="1.42509">
        <ele>167</ele>
        <time>2018-10-06T11:04:31Z</time>
      </trkpt>
      <trkpt lat="43.4439" lon="1.42502">
        <ele>167</ele>
        <time>2018-10-06T11:04:31Z</time>
      </trkpt>
      <trkpt lat="43.44393" lon="1.42495">
        <ele>167</ele>
        <time>2018-10-06T11:04:31Z</time>
      </trkpt>
      <trkpt lat="43.44397" lon="1.42489">
        <ele>167</ele>
        <time>2018-10-06T11:04:31Z</time>
      </trkpt>
      <trkpt lat="43.444" lon="1.42485">
        <ele>167</ele>
        <time>2018-10-06T11:04:47Z</time>
      </trkpt>
      <trkpt lat="43.44402" lon="1.42485">
        <ele>167</ele>
        <time>2018-10-06T11:04:47Z</time>
      </trkpt>
      <trkpt lat="43.44405" lon="1.42488">
        <ele>167</ele>
        <time>2018-10-06T11:04:47Z</time>
      </trkpt>
      <trkpt lat="43.44409" lon="1.42492">
        <ele>167</ele>
        <time>2018-10-06T11:04:47Z</time>
      </trkpt>
      <trkpt lat="43.44413" lon="1.42497">
        <ele>167</ele>
        <time>2018-10-06T11:05:03Z</time>
      </trkpt>
      <trkpt lat="43.44416" lon="1.42503">
        <ele>167</ele>
        <time>2018-10-06T11:05:03Z</time>
      </trkpt>
      <trkpt lat="43.4442" lon="1.42503">
        <ele>167</ele>
        <time>2018-10-06T11:05:03Z</time>
      </trkpt>
      <trkpt lat="43.44426" lon="1.42502">
        <ele>167</ele>
        <time>2018-10-06T11:05:03Z</time>
      </trkpt>
      <trkpt lat="43.44433" lon="1.425">
        <ele>167</ele>
        <time>2018-10-06T11:05:19Z</time>
      </trkpt>
      <trkpt lat="43.4444" lon="1.42495">
        <ele>167</ele>
        <time>2018-10-06T11:05:19Z</time>
      </trkpt>
      <trkpt lat="43.44446" lon="1.42491">
        <ele>167</ele>
        <time>2018-10-06T11:05:19Z</time>
      </trkpt>
      <trkpt lat="43.4445" lon="1.42486">
        <ele>167</ele>
        <time>2018-10-06T11:05:19Z</time>
      </trkpt>
      <trkpt lat="43.44454" lon="1.42485">
        <ele>167</ele>
        <time>2018-10-06T11:05:35Z</time>
      </trkpt>
      <trkpt lat="43.44458" lon="1.42485">
        <ele>167</ele>
        <time>2018-10-06T11:05:35Z</time>
      </trkpt>
      <trkpt lat="43.44463" lon="1.42486">
        <ele>167</ele>
        <time>2018-10-06T11:05:35Z</time>
      </trkpt>
      <trkpt lat="43.44467" lon="1.42487">
        <ele>167</ele>
        <time>2018-10-06T11:05:35Z</time>
      </trkpt>
      <trkpt lat="43.44471" lon="1.42486">
        <ele>167</ele>
        <time>2018-10-06T11:05:55Z</time>
      </trkpt>
      <trkpt lat="43.44475" lon="1.42484">
        <ele>167</ele>
        <time>2018-10-06T11:05:55Z</time>
      </trkpt>
      <trkpt lat="43.44477" lon="1.42482">
        <ele>167</ele>
        <time>2018-10-06T11:05:55Z</time>
      </trkpt>
      <trkpt lat="43.44478" lon="1.42481">
        <ele>167</ele>
        <time>2018-10-06T11:05:55Z</time>
      </trkpt>
      <trkpt lat="43.44482" lon="1.4248">
        <ele>167</ele>
        <time>2018-10-06T11:05:55Z</time>
      </trkpt>
      <trkpt lat="43.44487" lon="1.4248">
        <ele>167</ele>
        <time>2018-10-06T11:06:11Z</time>
      </trkpt>
      <trkpt lat="43.44493" lon="1.42479">
        <ele>167</ele>
        <time>2018-10-06T11:06:11Z</time>
      </trkpt>
      <trkpt lat="43.44497" lon="1.42477">
        <ele>167</ele>
        <time>2018-10-06T11:06:11Z</time>
      </trkpt>
      <trkpt lat="43.44501" lon="1.42477">
        <ele>167</ele>
        <time>2018-10-06T11:06:11Z</time>
      </trkpt>
      <trkpt lat="43.44505" lon="1.42473">
        <ele>167</ele>
        <time>2018-10-06T11:06:27Z</time>
      </trkpt>
      <trkpt lat="43.44508" lon="1.4247">
        <ele>167</ele>
        <time>2018-10-06T11:06:27Z</time>
      </trkpt>
      <trkpt lat="43.44514" lon="1.42468">
        <ele>167</ele>
        <time>2018-10-06T11:06:27Z</time>
      </trkpt>
      <trkpt lat="43.44519" lon="1.42468">
        <ele>167</ele>
        <time>2018-10-06T11:06:27Z</time>
      </trkpt>
      <trkpt lat="43.44521" lon="1.42467">
        <ele>167</ele>
        <time>2018-10-06T11:06:51Z</time>
      </trkpt>
      <trkpt lat="43.44522" lon="1.42467">
        <ele>167</ele>
        <time>2018-10-06T11:06:51Z</time>
      </trkpt>
      <trkpt lat="43.44524" lon="1.42469">
        <ele>167</ele>
        <time>2018-10-06T11:06:51Z</time>
      </trkpt>
      <trkpt lat="43.44525" lon="1.42477">
        <ele>167</ele>
        <time>2018-10-06T11:06:51Z</time>
      </trkpt>
      <trkpt lat="43.4453" lon="1.42482">
        <ele>167</ele>
        <time>2018-10-06T11:06:51Z</time>
      </trkpt>
      <trkpt lat="43.44531" lon="1.42487">
        <ele>167</ele>
        <time>2018-10-06T11:07:07Z</time>
      </trkpt>
      <trkpt lat="43.44532" lon="1.42492">
        <ele>167</ele>
        <time>2018-10-06T11:07:07Z</time>
      </trkpt>
      <trkpt lat="43.44535" lon="1.42497">
        <ele>167</ele>
        <time>2018-10-06T11:07:07Z</time>
      </trkpt>
      <trkpt lat="43.44536" lon="1.42501">
        <ele>167</ele>
        <time>2018-10-06T11:07:07Z</time>
      </trkpt>
      <trkpt lat="43.44538" lon="1.42507">
        <ele>167</ele>
        <time>2018-10-06T11:07:23Z</time>
      </trkpt>
      <trkpt lat="43.4454" lon="1.42514">
        <ele>167</ele>
        <time>2018-10-06T11:07:23Z</time>
      </trkpt>
      <trkpt lat="43.44542" lon="1.42521">
        <ele>167</ele>
        <time>2018-10-06T11:07:23Z</time>
      </trkpt>
      <trkpt lat="43.44545" lon="1.42528">
        <ele>164</ele>
        <time>2018-10-06T11:07:23Z</time>
      </trkpt>
      <trkpt lat="43.44547" lon="1.42534">
        <ele>164</ele>
        <time>2018-10-06T11:07:39Z</time>
      </trkpt>
      <trkpt lat="43.44548" lon="1.42539">
        <ele>164</ele>
        <time>2018-10-06T11:07:39Z</time>
      </trkpt>
      <trkpt lat="43.4455" lon="1.42544">
        <ele>167</ele>
        <time>2018-10-06T11:07:39Z</time>
      </trkpt>
      <trkpt lat="43.44553" lon="1.4255">
        <ele>167</ele>
        <time>2018-10-06T11:07:39Z</time>
      </trkpt>
      <trkpt lat="43.44554" lon="1.42555">
        <ele>167</ele>
        <time>2018-10-06T11:07:55Z</time>
      </trkpt>
      <trkpt lat="43.44556" lon="1.4256">
        <ele>167</ele>
        <time>2018-10-06T11:07:55Z</time>
      </trkpt>
      <trkpt lat="43.44559" lon="1.42564">
        <ele>167</ele>
        <time>2018-10-06T11:07:55Z</time>
      </trkpt>
      <trkpt lat="43.44562" lon="1.42569">
        <ele>167</ele>
        <time>2018-10-06T11:07:55Z</time>
      </trkpt>
      <trkpt lat="43.44565" lon="1.42573">
        <ele>167</ele>
        <time>2018-10-06T11:08:11Z</time>
      </trkpt>
      <trkpt lat="43.44569" lon="1.42577">
        <ele>167</ele>
        <time>2018-10-06T11:08:11Z</time>
      </trkpt>
      <trkpt lat="43.44574" lon="1.42578">
        <ele>167</ele>
        <time>2018-10-06T11:08:11Z</time>
      </trkpt>
      <trkpt lat="43.4458" lon="1.42581">
        <ele>167</ele>
        <time>2018-10-06T11:08:11Z</time>
      </trkpt>
      <trkpt lat="43.44585" lon="1.42581">
        <ele>167</ele>
        <time>2018-10-06T11:08:27Z</time>
      </trkpt>
      <trkpt lat="43.4459" lon="1.42583">
        <ele>167</ele>
        <time>2018-10-06T11:08:27Z</time>
      </trkpt>
      <trkpt lat="43.44591" lon="1.42585">
        <ele>167</ele>
        <time>2018-10-06T11:08:27Z</time>
      </trkpt>
      <trkpt lat="43.44594" lon="1.42584">
        <ele>167</ele>
        <time>2018-10-06T11:08:27Z</time>
      </trkpt>
      <trkpt lat="43.44599" lon="1.42584">
        <ele>167</ele>
        <time>2018-10-06T11:08:43Z</time>
      </trkpt>
      <trkpt lat="43.44605" lon="1.42583">
        <ele>167</ele>
        <time>2018-10-06T11:08:43Z</time>
      </trkpt>
      <trkpt lat="43.44611" lon="1.42582">
        <ele>167</ele>
        <time>2018-10-06T11:08:43Z</time>
      </trkpt>
      <trkpt lat="43.44615" lon="1.42583">
        <ele>167</ele>
        <time>2018-10-06T11:08:43Z</time>
      </trkpt>
      <trkpt lat="43.44621" lon="1.42583">
        <ele>167</ele>
        <time>2018-10-06T11:08:59Z</time>
      </trkpt>
      <trkpt lat="43.44627" lon="1.42582">
        <ele>166</ele>
        <time>2018-10-06T11:08:59Z</time>
      </trkpt>
      <trkpt lat="43.44633" lon="1.42583">
        <ele>166</ele>
        <time>2018-10-06T11:08:59Z</time>
      </trkpt>
      <trkpt lat="43.44638" lon="1.42583">
        <ele>166</ele>
        <time>2018-10-06T11:08:59Z</time>
      </trkpt>
      <trkpt lat="43.44642" lon="1.42584">
        <ele>166</ele>
        <time>2018-10-06T11:09:15Z</time>
      </trkpt>
      <trkpt lat="43.44646" lon="1.42586">
        <ele>166</ele>
        <time>2018-10-06T11:09:15Z</time>
      </trkpt>
      <trkpt lat="43.44649" lon="1.4259">
        <ele>166</ele>
        <time>2018-10-06T11:09:15Z</time>
      </trkpt>
      <trkpt lat="43.44654" lon="1.4259">
        <ele>166</ele>
        <time>2018-10-06T11:09:15Z</time>
      </trkpt>
      <trkpt lat="43.44659" lon="1.42592">
        <ele>166</ele>
        <time>2018-10-06T11:09:31Z</time>
      </trkpt>
      <trkpt lat="43.44665" lon="1.42593">
        <ele>166</ele>
        <time>2018-10-06T11:09:31Z</time>
      </trkpt>
      <trkpt lat="43.44669" lon="1.42593">
        <ele>166</ele>
        <time>2018-10-06T11:09:31Z</time>
      </trkpt>
      <trkpt lat="43.44675" lon="1.42595">
        <ele>166</ele>
        <time>2018-10-06T11:09:31Z</time>
      </trkpt>
      <trkpt lat="43.44681" lon="1.42595">
        <ele>166</ele>
        <time>2018-10-06T11:09:47Z</time>
      </trkpt>
      <trkpt lat="43.44687" lon="1.42594">
        <ele>166</ele>
        <time>2018-10-06T11:09:47Z</time>
      </trkpt>
      <trkpt lat="43.44694" lon="1.42591">
        <ele>166</ele>
        <time>2018-10-06T11:09:47Z</time>
      </trkpt>
      <trkpt lat="43.447" lon="1.42589">
        <ele>166</ele>
        <time>2018-10-06T11:09:47Z</time>
      </trkpt>
      <trkpt lat="43.44704" lon="1.42588">
        <ele>166</ele>
        <time>2018-10-06T11:10:03Z</time>
      </trkpt>
      <trkpt lat="43.44708" lon="1.42588">
        <ele>166</ele>
        <time>2018-10-06T11:10:03Z</time>
      </trkpt>
      <trkpt lat="43.44714" lon="1.42588">
        <ele>166</ele>
        <time>2018-10-06T11:10:03Z</time>
      </trkpt>
      <trkpt lat="43.44719" lon="1.42588">
        <ele>166</ele>
        <time>2018-10-06T11:10:03Z</time>
      </trkpt>
      <trkpt lat="43.44724" lon="1.42589">
        <ele>166</ele>
        <time>2018-10-06T11:10:19Z</time>
      </trkpt>
      <trkpt lat="43.4473" lon="1.42586">
        <ele>166</ele>
        <time>2018-10-06T11:10:19Z</time>
      </trkpt>
      <trkpt lat="43.44736" lon="1.42581">
        <ele>166</ele>
        <time>2018-10-06T11:10:19Z</time>
      </trkpt>
      <trkpt lat="43.44742" lon="1.42575">
        <ele>166</ele>
        <time>2018-10-06T11:10:19Z</time>
      </trkpt>
      <trkpt lat="43.44748" lon="1.42565">
        <ele>166</ele>
        <time>2018-10-06T11:10:35Z</time>
      </trkpt>
      <trkpt lat="43.44754" lon="1.4256">
        <ele>166</ele>
        <time>2018-10-06T11:10:35Z</time>
      </trkpt>
      <trkpt lat="43.4476" lon="1.42557">
        <ele>166</ele>
        <time>2018-10-06T11:10:35Z</time>
      </trkpt>
      <trkpt lat="43.44764" lon="1.42556">
        <ele>166</ele>
        <time>2018-10-06T11:10:35Z</time>
      </trkpt>
      <trkpt lat="43.44767" lon="1.42554">
        <ele>166</ele>
        <time>2018-10-06T11:10:55Z</time>
      </trkpt>
      <trkpt lat="43.44768" lon="1.4255">
        <ele>166</ele>
        <time>2018-10-06T11:10:55Z</time>
      </trkpt>
      <trkpt lat="43.44768" lon="1.42549">
        <ele>166</ele>
        <time>2018-10-06T11:10:55Z</time>
      </trkpt>
      <trkpt lat="43.44773" lon="1.42546">
        <ele>166</ele>
        <time>2018-10-06T11:10:55Z</time>
      </trkpt>
      <trkpt lat="43.4478" lon="1.42546">
        <ele>166</ele>
        <time>2018-10-06T11:10:55Z</time>
      </trkpt>
      <trkpt lat="43.44784" lon="1.42545">
        <ele>166</ele>
        <time>2018-10-06T11:11:11Z</time>
      </trkpt>
      <trkpt lat="43.44789" lon="1.42546">
        <ele>166</ele>
        <time>2018-10-06T11:11:11Z</time>
      </trkpt>
      <trkpt lat="43.44796" lon="1.42547">
        <ele>162</ele>
        <time>2018-10-06T11:11:11Z</time>
      </trkpt>
      <trkpt lat="43.44801" lon="1.4255">
        <ele>162</ele>
        <time>2018-10-06T11:11:11Z</time>
      </trkpt>
      <trkpt lat="43.44809" lon="1.42551">
        <ele>162</ele>
        <time>2018-10-06T11:11:27Z</time>
      </trkpt>
      <trkpt lat="43.44815" lon="1.42551">
        <ele>162</ele>
        <time>2018-10-06T11:11:27Z</time>
      </trkpt>
      <trkpt lat="43.44822" lon="1.42556">
        <ele>162</ele>
        <time>2018-10-06T11:11:27Z</time>
      </trkpt>
      <trkpt lat="43.44828" lon="1.4256">
        <ele>162</ele>
        <time>2018-10-06T11:11:27Z</time>
      </trkpt>
      <trkpt lat="43.44832" lon="1.42561">
        <ele>162</ele>
        <time>2018-10-06T11:11:43Z</time>
      </trkpt>
      <trkpt lat="43.44834" lon="1.42553">
        <ele>162</ele>
        <time>2018-10-06T11:11:43Z</time>
      </trkpt>
      <trkpt lat="43.44838" lon="1.4255">
        <ele>162</ele>
        <time>2018-10-06T11:11:43Z</time>
      </trkpt>
      <trkpt lat="43.44841" lon="1.42552">
        <ele>162</ele>
        <time>2018-10-06T11:11:43Z</time>
      </trkpt>
      <trkpt lat="43.44843" lon="1.42553">
        <ele>162</ele>
        <time>2018-10-06T11:11:59Z</time>
      </trkpt>
      <trkpt lat="43.44846" lon="1.42555">
        <ele>162</ele>
        <time>2018-10-06T11:11:59Z</time>
      </trkpt>
      <trkpt lat="43.44848" lon="1.42558">
        <ele>162</ele>
        <time>2018-10-06T11:11:59Z</time>
      </trkpt>
      <trkpt lat="43.44851" lon="1.4256">
        <ele>162</ele>
        <time>2018-10-06T11:11:59Z</time>
      </trkpt>
      <trkpt lat="43.44856" lon="1.42561">
        <ele>162</ele>
        <time>2018-10-06T11:12:15Z</time>
      </trkpt>
      <trkpt lat="43.44861" lon="1.42561">
        <ele>162</ele>
        <time>2018-10-06T11:12:15Z</time>
      </trkpt>
      <trkpt lat="43.44868" lon="1.4256">
        <ele>162</ele>
        <time>2018-10-06T11:12:15Z</time>
      </trkpt>
      <trkpt lat="43.44874" lon="1.42559">
        <ele>162</ele>
        <time>2018-10-06T11:12:15Z</time>
      </trkpt>
      <trkpt lat="43.4488" lon="1.42559">
        <ele>160</ele>
        <time>2018-10-06T11:12:31Z</time>
      </trkpt>
      <trkpt lat="43.44887" lon="1.42555">
        <ele>160</ele>
        <time>2018-10-06T11:12:31Z</time>
      </trkpt>
      <trkpt lat="43.44893" lon="1.4255">
        <ele>160</ele>
        <time>2018-10-06T11:12:31Z</time>
      </trkpt>
      <trkpt lat="43.44894" lon="1.42549">
        <ele>160</ele>
        <time>2018-10-06T11:12:31Z</time>
      </trkpt>
      <trkpt lat="43.44896" lon="1.42551">
        <ele>160</ele>
        <time>2018-10-06T11:12:47Z</time>
      </trkpt>
      <trkpt lat="43.44897" lon="1.42551">
        <ele>160</ele>
        <time>2018-10-06T11:12:47Z</time>
      </trkpt>
      <trkpt lat="43.44904" lon="1.42553">
        <ele>160</ele>
        <time>2018-10-06T11:12:47Z</time>
      </trkpt>
      <trkpt lat="43.44911" lon="1.42556">
        <ele>160</ele>
        <time>2018-10-06T11:12:47Z</time>
      </trkpt>
      <trkpt lat="43.44917" lon="1.42558">
        <ele>160</ele>
        <time>2018-10-06T11:13:03Z</time>
      </trkpt>
      <trkpt lat="43.4492" lon="1.42561">
        <ele>160</ele>
        <time>2018-10-06T11:13:03Z</time>
      </trkpt>
      <trkpt lat="43.44924" lon="1.42561">
        <ele>160</ele>
        <time>2018-10-06T11:13:03Z</time>
      </trkpt>
      <trkpt lat="43.4493" lon="1.42563">
        <ele>160</ele>
        <time>2018-10-06T11:13:03Z</time>
      </trkpt>
      <trkpt lat="43.44932" lon="1.42564">
        <ele>160</ele>
        <time>2018-10-06T11:13:19Z</time>
      </trkpt>
      <trkpt lat="43.44934" lon="1.42564">
        <ele>160</ele>
        <time>2018-10-06T11:13:19Z</time>
      </trkpt>
      <trkpt lat="43.44938" lon="1.42565">
        <ele>160</ele>
        <time>2018-10-06T11:13:19Z</time>
      </trkpt>
      <trkpt lat="43.44944" lon="1.42567">
        <ele>160</ele>
        <time>2018-10-06T11:13:19Z</time>
      </trkpt>
      <trkpt lat="43.44951" lon="1.4257">
        <ele>160</ele>
        <time>2018-10-06T11:13:35Z</time>
      </trkpt>
      <trkpt lat="43.44958" lon="1.42572">
        <ele>160</ele>
        <time>2018-10-06T11:13:35Z</time>
      </trkpt>
      <trkpt lat="43.44965" lon="1.42573">
        <ele>161</ele>
        <time>2018-10-06T11:13:35Z</time>
      </trkpt>
      <trkpt lat="43.44968" lon="1.42573">
        <ele>161</ele>
        <time>2018-10-06T11:13:35Z</time>
      </trkpt>
      <trkpt lat="43.44971" lon="1.42573">
        <ele>161</ele>
        <time>2018-10-06T11:13:51Z</time>
      </trkpt>
      <trkpt lat="43.44976" lon="1.42574">
        <ele>161</ele>
        <time>2018-10-06T11:13:51Z</time>
      </trkpt>
      <trkpt lat="43.44982" lon="1.42576">
        <ele>161</ele>
        <time>2018-10-06T11:13:51Z</time>
      </trkpt>
      <trkpt lat="43.44987" lon="1.42577">
        <ele>161</ele>
        <time>2018-10-06T11:13:51Z</time>
      </trkpt>
      <trkpt lat="43.44996" lon="1.42579">
        <ele>161</ele>
        <time>2018-10-06T11:14:07Z</time>
      </trkpt>
      <trkpt lat="43.45004" lon="1.42583">
        <ele>161</ele>
        <time>2018-10-06T11:14:07Z</time>
      </trkpt>
      <trkpt lat="43.4501" lon="1.42587">
        <ele>161</ele>
        <time>2018-10-06T11:14:07Z</time>
      </trkpt>
      <trkpt lat="43.45017" lon="1.42589">
        <ele>161</ele>
        <time>2018-10-06T11:14:07Z</time>
      </trkpt>
      <trkpt lat="43.45021" lon="1.42591">
        <ele>161</ele>
        <time>2018-10-06T11:14:23Z</time>
      </trkpt>
      <trkpt lat="43.45024" lon="1.42595">
        <ele>161</ele>
        <time>2018-10-06T11:14:23Z</time>
      </trkpt>
      <trkpt lat="43.45029" lon="1.426">
        <ele>161</ele>
        <time>2018-10-06T11:14:23Z</time>
      </trkpt>
      <trkpt lat="43.45033" lon="1.42605">
        <ele>161</ele>
        <time>2018-10-06T11:14:23Z</time>
      </trkpt>
      <trkpt lat="43.45037" lon="1.42608">
        <ele>161</ele>
        <time>2018-10-06T11:14:39Z</time>
      </trkpt>
      <trkpt lat="43.45043" lon="1.42611">
        <ele>160</ele>
        <time>2018-10-06T11:14:39Z</time>
      </trkpt>
      <trkpt lat="43.45047" lon="1.42615">
        <ele>160</ele>
        <time>2018-10-06T11:14:39Z</time>
      </trkpt>
      <trkpt lat="43.45049" lon="1.42622">
        <ele>160</ele>
        <time>2018-10-06T11:14:39Z</time>
      </trkpt>
      <trkpt lat="43.45054" lon="1.42625">
        <ele>160</ele>
        <time>2018-10-06T11:14:55Z</time>
      </trkpt>
      <trkpt lat="43.45059" lon="1.42625">
        <ele>161</ele>
        <time>2018-10-06T11:14:55Z</time>
      </trkpt>
      <trkpt lat="43.45063" lon="1.42625">
        <ele>160</ele>
        <time>2018-10-06T11:14:55Z</time>
      </trkpt>
      <trkpt lat="43.45066" lon="1.42627">
        <ele>161</ele>
        <time>2018-10-06T11:14:55Z</time>
      </trkpt>
      <trkpt lat="43.45071" lon="1.4263">
        <ele>161</ele>
        <time>2018-10-06T11:15:11Z</time>
      </trkpt>
      <trkpt lat="43.45077" lon="1.42631">
        <ele>161</ele>
        <time>2018-10-06T11:15:11Z</time>
      </trkpt>
      <trkpt lat="43.45085" lon="1.42631">
        <ele>161</ele>
        <time>2018-10-06T11:15:11Z</time>
      </trkpt>
      <trkpt lat="43.45093" lon="1.4263">
        <ele>161</ele>
        <time>2018-10-06T11:15:11Z</time>
      </trkpt>
      <trkpt lat="43.45097" lon="1.42629">
        <ele>161</ele>
        <time>2018-10-06T11:15:27Z</time>
      </trkpt>
      <trkpt lat="43.45101" lon="1.42631">
        <ele>161</ele>
        <time>2018-10-06T11:15:27Z</time>
      </trkpt>
      <trkpt lat="43.45104" lon="1.42635">
        <ele>161</ele>
        <time>2018-10-06T11:15:27Z</time>
      </trkpt>
      <trkpt lat="43.45108" lon="1.42639">
        <ele>161</ele>
        <time>2018-10-06T11:15:27Z</time>
      </trkpt>
      <trkpt lat="43.45113" lon="1.42642">
        <ele>161</ele>
        <time>2018-10-06T11:15:43Z</time>
      </trkpt>
      <trkpt lat="43.45118" lon="1.42645">
        <ele>161</ele>
        <time>2018-10-06T11:15:43Z</time>
      </trkpt>
      <trkpt lat="43.45122" lon="1.42649">
        <ele>161</ele>
        <time>2018-10-06T11:15:43Z</time>
      </trkpt>
      <trkpt lat="43.45122" lon="1.42654">
        <ele>161</ele>
        <time>2018-10-06T11:15:43Z</time>
      </trkpt>
      <trkpt lat="43.45125" lon="1.42659">
        <ele>161</ele>
        <time>2018-10-06T11:15:59Z</time>
      </trkpt>
      <trkpt lat="43.45129" lon="1.42662">
        <ele>160</ele>
        <time>2018-10-06T11:15:59Z</time>
      </trkpt>
      <trkpt lat="43.45135" lon="1.42664">
        <ele>160</ele>
        <time>2018-10-06T11:15:59Z</time>
      </trkpt>
      <trkpt lat="43.45138" lon="1.42671">
        <ele>160</ele>
        <time>2018-10-06T11:15:59Z</time>
      </trkpt>
      <trkpt lat="43.45141" lon="1.42676">
        <ele>160</ele>
        <time>2018-10-06T11:16:15Z</time>
      </trkpt>
      <trkpt lat="43.45147" lon="1.4268">
        <ele>160</ele>
        <time>2018-10-06T11:16:15Z</time>
      </trkpt>
      <trkpt lat="43.45153" lon="1.42684">
        <ele>160</ele>
        <time>2018-10-06T11:16:15Z</time>
      </trkpt>
      <trkpt lat="43.45157" lon="1.4269">
        <ele>160</ele>
        <time>2018-10-06T11:16:15Z</time>
      </trkpt>
      <trkpt lat="43.4516" lon="1.42695">
        <ele>160</ele>
        <time>2018-10-06T11:16:31Z</time>
      </trkpt>
      <trkpt lat="43.45163" lon="1.42699">
        <ele>160</ele>
        <time>2018-10-06T11:16:31Z</time>
      </trkpt>
      <trkpt lat="43.45168" lon="1.42704">
        <ele>160</ele>
        <time>2018-10-06T11:16:31Z</time>
      </trkpt>
      <trkpt lat="43.45172" lon="1.42709">
        <ele>161</ele>
        <time>2018-10-06T11:16:31Z</time>
      </trkpt>
      <trkpt lat="43.45177" lon="1.42714">
        <ele>161</ele>
        <time>2018-10-06T11:16:47Z</time>
      </trkpt>
      <trkpt lat="43.45182" lon="1.42717">
        <ele>161</ele>
        <time>2018-10-06T11:16:47Z</time>
      </trkpt>
      <trkpt lat="43.45186" lon="1.42721">
        <ele>161</ele>
        <time>2018-10-06T11:16:47Z</time>
      </trkpt>
      <trkpt lat="43.45188" lon="1.42725">
        <ele>161</ele>
        <time>2018-10-06T11:16:47Z</time>
      </trkpt>
      <trkpt lat="43.45192" lon="1.42729">
        <ele>161</ele>
        <time>2018-10-06T11:17:04Z</time>
      </trkpt>
      <trkpt lat="43.45195" lon="1.42733">
        <ele>161</ele>
        <time>2018-10-06T11:17:04Z</time>
      </trkpt>
      <trkpt lat="43.45202" lon="1.42734">
        <ele>161</ele>
        <time>2018-10-06T11:17:04Z</time>
      </trkpt>
      <trkpt lat="43.45205" lon="1.42738">
        <ele>161</ele>
        <time>2018-10-06T11:17:04Z</time>
      </trkpt>
      <trkpt lat="43.45209" lon="1.42742">
        <ele>160</ele>
        <time>2018-10-06T11:17:19Z</time>
      </trkpt>
      <trkpt lat="43.45212" lon="1.42747">
        <ele>160</ele>
        <time>2018-10-06T11:17:19Z</time>
      </trkpt>
      <trkpt lat="43.45214" lon="1.42752">
        <ele>160</ele>
        <time>2018-10-06T11:17:19Z</time>
      </trkpt>
      <trkpt lat="43.45214" lon="1.42759">
        <ele>160</ele>
        <time>2018-10-06T11:17:19Z</time>
      </trkpt>
      <trkpt lat="43.45217" lon="1.42766">
        <ele>160</ele>
        <time>2018-10-06T11:17:35Z</time>
      </trkpt>
      <trkpt lat="43.45218" lon="1.4277">
        <ele>160</ele>
        <time>2018-10-06T11:17:35Z</time>
      </trkpt>
      <trkpt lat="43.45216" lon="1.42775">
        <ele>160</ele>
        <time>2018-10-06T11:17:35Z</time>
      </trkpt>
      <trkpt lat="43.45218" lon="1.42779">
        <ele>160</ele>
        <time>2018-10-06T11:17:35Z</time>
      </trkpt>
      <trkpt lat="43.4522" lon="1.42781">
        <ele>160</ele>
        <time>2018-10-06T11:17:55Z</time>
      </trkpt>
      <trkpt lat="43.45222" lon="1.42783">
        <ele>160</ele>
        <time>2018-10-06T11:17:55Z</time>
      </trkpt>
      <trkpt lat="43.45223" lon="1.42783">
        <ele>160</ele>
        <time>2018-10-06T11:17:55Z</time>
      </trkpt>
      <trkpt lat="43.45226" lon="1.42787">
        <ele>160</ele>
        <time>2018-10-06T11:17:55Z</time>
      </trkpt>
      <trkpt lat="43.45228" lon="1.42793">
        <ele>160</ele>
        <time>2018-10-06T11:17:55Z</time>
      </trkpt>
      <trkpt lat="43.4523" lon="1.42798">
        <ele>160</ele>
        <time>2018-10-06T11:18:11Z</time>
      </trkpt>
      <trkpt lat="43.45233" lon="1.42801">
        <ele>160</ele>
        <time>2018-10-06T11:18:11Z</time>
      </trkpt>
      <trkpt lat="43.45233" lon="1.42808">
        <ele>160</ele>
        <time>2018-10-06T11:18:11Z</time>
      </trkpt>
      <trkpt lat="43.45236" lon="1.42813">
        <ele>160</ele>
        <time>2018-10-06T11:18:11Z</time>
      </trkpt>
      <trkpt lat="43.4524" lon="1.4282">
        <ele>160</ele>
        <time>2018-10-06T11:19:35Z</time>
      </trkpt>
      <trkpt lat="43.4524" lon="1.4282">
        <ele>160</ele>
        <time>2018-10-06T11:19:35Z</time>
      </trkpt>
      <trkpt lat="43.45242" lon="1.42821">
        <ele>160</ele>
        <time>2018-10-06T11:19:35Z</time>
      </trkpt>
      <trkpt lat="43.45245" lon="1.42822">
        <ele>160</ele>
        <time>2018-10-06T11:19:35Z</time>
      </trkpt>
      <trkpt lat="43.45247" lon="1.42824">
        <ele>160</ele>
        <time>2018-10-06T11:19:35Z</time>
      </trkpt>
      <trkpt lat="43.45249" lon="1.42825">
        <ele>160</ele>
        <time>2018-10-06T11:20:03Z</time>
      </trkpt>
      <trkpt lat="43.45249" lon="1.42827">
        <ele>160</ele>
        <time>2018-10-06T11:20:03Z</time>
      </trkpt>
      <trkpt lat="43.45249" lon="1.42828">
        <ele>160</ele>
        <time>2018-10-06T11:20:03Z</time>
      </trkpt>
      <trkpt lat="43.45252" lon="1.42832">
        <ele>160</ele>
        <time>2018-10-06T11:20:03Z</time>
      </trkpt>
      <trkpt lat="43.45254" lon="1.42838">
        <ele>160</ele>
        <time>2018-10-06T11:20:03Z</time>
      </trkpt>
      <trkpt lat="43.45255" lon="1.42845">
        <ele>160</ele>
        <time>2018-10-06T11:20:19Z</time>
      </trkpt>
      <trkpt lat="43.45256" lon="1.4285">
        <ele>160</ele>
        <time>2018-10-06T11:20:19Z</time>
      </trkpt>
      <trkpt lat="43.45257" lon="1.42856">
        <ele>160</ele>
        <time>2018-10-06T11:20:19Z</time>
      </trkpt>
      <trkpt lat="43.45258" lon="1.42861">
        <ele>160</ele>
        <time>2018-10-06T11:20:19Z</time>
      </trkpt>
      <trkpt lat="43.45261" lon="1.42867">
        <ele>160</ele>
        <time>2018-10-06T11:20:35Z</time>
      </trkpt>
      <trkpt lat="43.45263" lon="1.42874">
        <ele>160</ele>
        <time>2018-10-06T11:20:35Z</time>
      </trkpt>
      <trkpt lat="43.45264" lon="1.4288">
        <ele>162</ele>
        <time>2018-10-06T11:20:35Z</time>
      </trkpt>
      <trkpt lat="43.45264" lon="1.42883">
        <ele>162</ele>
        <time>2018-10-06T11:20:35Z</time>
      </trkpt>
      <trkpt lat="43.45272" lon="1.42889">
        <ele>162</ele>
        <time>2018-10-06T11:20:51Z</time>
      </trkpt>
      <trkpt lat="43.45277" lon="1.42894">
        <ele>162</ele>
        <time>2018-10-06T11:20:51Z</time>
      </trkpt>
      <trkpt lat="43.45281" lon="1.42902">
        <ele>162</ele>
        <time>2018-10-06T11:20:51Z</time>
      </trkpt>
      <trkpt lat="43.45282" lon="1.4291">
        <ele>162</ele>
        <time>2018-10-06T11:20:51Z</time>
      </trkpt>
      <trkpt lat="43.45281" lon="1.42926">
        <ele>162</ele>
        <time>2018-10-06T11:21:23Z</time>
      </trkpt>
      <trkpt lat="43.45282" lon="1.42926">
        <ele>162</ele>
        <time>2018-10-06T11:21:23Z</time>
      </trkpt>
      <trkpt lat="43.45282" lon="1.42927">
        <ele>162</ele>
        <time>2018-10-06T11:21:23Z</time>
      </trkpt>
      <trkpt lat="43.45283" lon="1.42928">
        <ele>162</ele>
        <time>2018-10-06T11:21:23Z</time>
      </trkpt>
      <trkpt lat="43.45283" lon="1.42932">
        <ele>162</ele>
        <time>2018-10-06T11:21:23Z</time>
      </trkpt>
      <trkpt lat="43.45288" lon="1.42936">
        <ele>162</ele>
        <time>2018-10-06T11:21:39Z</time>
      </trkpt>
      <trkpt lat="43.45292" lon="1.42937">
        <ele>163</ele>
        <time>2018-10-06T11:21:39Z</time>
      </trkpt>
      <trkpt lat="43.45297" lon="1.42936">
        <ele>163</ele>
        <time>2018-10-06T11:21:39Z</time>
      </trkpt>
      <trkpt lat="43.45303" lon="1.42937">
        <ele>163</ele>
        <time>2018-10-06T11:21:39Z</time>
      </trkpt>
      <trkpt lat="43.45306" lon="1.42937">
        <ele>163</ele>
        <time>2018-10-06T11:21:55Z</time>
      </trkpt>
      <trkpt lat="43.4531" lon="1.42936">
        <ele>163</ele>
        <time>2018-10-06T11:21:55Z</time>
      </trkpt>
      <trkpt lat="43.45315" lon="1.42934">
        <ele>163</ele>
        <time>2018-10-06T11:21:55Z</time>
      </trkpt>
      <trkpt lat="43.45319" lon="1.42931">
        <ele>163</ele>
        <time>2018-10-06T11:21:55Z</time>
      </trkpt>
      <trkpt lat="43.45323" lon="1.4293">
        <ele>163</ele>
        <time>2018-10-06T11:22:11Z</time>
      </trkpt>
      <trkpt lat="43.45327" lon="1.4293">
        <ele>163</ele>
        <time>2018-10-06T11:22:11Z</time>
      </trkpt>
      <trkpt lat="43.45332" lon="1.42927">
        <ele>163</ele>
        <time>2018-10-06T11:22:11Z</time>
      </trkpt>
      <trkpt lat="43.45335" lon="1.42924">
        <ele>163</ele>
        <time>2018-10-06T11:22:11Z</time>
      </trkpt>
      <trkpt lat="43.45337" lon="1.42921">
        <ele>163</ele>
        <time>2018-10-06T11:22:27Z</time>
      </trkpt>
      <trkpt lat="43.4534" lon="1.42915">
        <ele>163</ele>
        <time>2018-10-06T11:22:27Z</time>
      </trkpt>
      <trkpt lat="43.45344" lon="1.42911">
        <ele>163</ele>
        <time>2018-10-06T11:22:27Z</time>
      </trkpt>
      <trkpt lat="43.45348" lon="1.42905">
        <ele>163</ele>
        <time>2018-10-06T11:22:27Z</time>
      </trkpt>
      <trkpt lat="43.45353" lon="1.429">
        <ele>163</ele>
        <time>2018-10-06T11:22:43Z</time>
      </trkpt>
      <trkpt lat="43.45357" lon="1.42896">
        <ele>163</ele>
        <time>2018-10-06T11:22:43Z</time>
      </trkpt>
      <trkpt lat="43.4536" lon="1.42892">
        <ele>163</ele>
        <time>2018-10-06T11:22:43Z</time>
      </trkpt>
      <trkpt lat="43.45364" lon="1.42889">
        <ele>163</ele>
        <time>2018-10-06T11:22:43Z</time>
      </trkpt>
      <trkpt lat="43.45368" lon="1.42885">
        <ele>163</ele>
        <time>2018-10-06T11:22:59Z</time>
      </trkpt>
      <trkpt lat="43.45369" lon="1.42882">
        <ele>163</ele>
        <time>2018-10-06T11:22:59Z</time>
      </trkpt>
      <trkpt lat="43.45372" lon="1.42876">
        <ele>163</ele>
        <time>2018-10-06T11:22:59Z</time>
      </trkpt>
      <trkpt lat="43.45377" lon="1.4287">
        <ele>162</ele>
        <time>2018-10-06T11:22:59Z</time>
      </trkpt>
      <trkpt lat="43.45383" lon="1.42864">
        <ele>162</ele>
        <time>2018-10-06T11:23:15Z</time>
      </trkpt>
      <trkpt lat="43.45387" lon="1.4286">
        <ele>162</ele>
        <time>2018-10-06T11:23:15Z</time>
      </trkpt>
      <trkpt lat="43.45391" lon="1.42855">
        <ele>162</ele>
        <time>2018-10-06T11:23:15Z</time>
      </trkpt>
      <trkpt lat="43.45394" lon="1.42851">
        <ele>162</ele>
        <time>2018-10-06T11:23:15Z</time>
      </trkpt>
      <trkpt lat="43.45395" lon="1.42849">
        <ele>162</ele>
        <time>2018-10-06T11:23:31Z</time>
      </trkpt>
      <trkpt lat="43.45398" lon="1.42847">
        <ele>162</ele>
        <time>2018-10-06T11:23:31Z</time>
      </trkpt>
      <trkpt lat="43.45402" lon="1.42848">
        <ele>162</ele>
        <time>2018-10-06T11:23:31Z</time>
      </trkpt>
      <trkpt lat="43.45406" lon="1.42844">
        <ele>162</ele>
        <time>2018-10-06T11:23:31Z</time>
      </trkpt>
      <trkpt lat="43.45412" lon="1.4284">
        <ele>162</ele>
        <time>2018-10-06T11:23:47Z</time>
      </trkpt>
      <trkpt lat="43.45418" lon="1.42837">
        <ele>162</ele>
        <time>2018-10-06T11:23:47Z</time>
      </trkpt>
      <trkpt lat="43.45423" lon="1.42834">
        <ele>162</ele>
        <time>2018-10-06T11:23:47Z</time>
      </trkpt>
      <trkpt lat="43.45424" lon="1.42827">
        <ele>162</ele>
        <time>2018-10-06T11:23:47Z</time>
      </trkpt>
      <trkpt lat="43.45426" lon="1.42821">
        <ele>162</ele>
        <time>2018-10-06T11:24:03Z</time>
      </trkpt>
      <trkpt lat="43.45428" lon="1.42815">
        <ele>162</ele>
        <time>2018-10-06T11:24:03Z</time>
      </trkpt>
      <trkpt lat="43.45432" lon="1.42811">
        <ele>162</ele>
        <time>2018-10-06T11:24:03Z</time>
      </trkpt>
      <trkpt lat="43.45436" lon="1.42806">
        <ele>162</ele>
        <time>2018-10-06T11:24:03Z</time>
      </trkpt>
      <trkpt lat="43.45438" lon="1.428">
        <ele>162</ele>
        <time>2018-10-06T11:24:19Z</time>
      </trkpt>
      <trkpt lat="43.45436" lon="1.42793">
        <ele>162</ele>
        <time>2018-10-06T11:24:19Z</time>
      </trkpt>
      <trkpt lat="43.4544" lon="1.42785">
        <ele>161</ele>
        <time>2018-10-06T11:24:19Z</time>
      </trkpt>
      <trkpt lat="43.45447" lon="1.42781">
        <ele>161</ele>
        <time>2018-10-06T11:24:19Z</time>
      </trkpt>
      <trkpt lat="43.45453" lon="1.42774">
        <ele>161</ele>
        <time>2018-10-06T11:24:35Z</time>
      </trkpt>
      <trkpt lat="43.45456" lon="1.42767">
        <ele>161</ele>
        <time>2018-10-06T11:24:35Z</time>
      </trkpt>
      <trkpt lat="43.45459" lon="1.42762">
        <ele>160</ele>
        <time>2018-10-06T11:24:35Z</time>
      </trkpt>
      <trkpt lat="43.45461" lon="1.42755">
        <ele>160</ele>
        <time>2018-10-06T11:24:35Z</time>
      </trkpt>
      <trkpt lat="43.45461" lon="1.42749">
        <ele>160</ele>
        <time>2018-10-06T11:24:51Z</time>
      </trkpt>
      <trkpt lat="43.4546" lon="1.42743">
        <ele>160</ele>
        <time>2018-10-06T11:24:51Z</time>
      </trkpt>
      <trkpt lat="43.45462" lon="1.42739">
        <ele>160</ele>
        <time>2018-10-06T11:24:51Z</time>
      </trkpt>
      <trkpt lat="43.45466" lon="1.42736">
        <ele>160</ele>
        <time>2018-10-06T11:24:51Z</time>
      </trkpt>
      <trkpt lat="43.45471" lon="1.42732">
        <ele>160</ele>
        <time>2018-10-06T11:25:07Z</time>
      </trkpt>
      <trkpt lat="43.45475" lon="1.42726">
        <ele>160</ele>
        <time>2018-10-06T11:25:07Z</time>
      </trkpt>
      <trkpt lat="43.45478" lon="1.4272">
        <ele>160</ele>
        <time>2018-10-06T11:25:07Z</time>
      </trkpt>
      <trkpt lat="43.45482" lon="1.42714">
        <ele>160</ele>
        <time>2018-10-06T11:25:07Z</time>
      </trkpt>
      <trkpt lat="43.45485" lon="1.42709">
        <ele>160</ele>
        <time>2018-10-06T11:25:23Z</time>
      </trkpt>
      <trkpt lat="43.45486" lon="1.42703">
        <ele>159</ele>
        <time>2018-10-06T11:25:23Z</time>
      </trkpt>
      <trkpt lat="43.45488" lon="1.42698">
        <ele>159</ele>
        <time>2018-10-06T11:25:23Z</time>
      </trkpt>
      <trkpt lat="43.45492" lon="1.42694">
        <ele>159</ele>
        <time>2018-10-06T11:25:23Z</time>
      </trkpt>
      <trkpt lat="43.45495" lon="1.42689">
        <ele>159</ele>
        <time>2018-10-06T11:25:39Z</time>
      </trkpt>
      <trkpt lat="43.45498" lon="1.42683">
        <ele>159</ele>
        <time>2018-10-06T11:25:39Z</time>
      </trkpt>
      <trkpt lat="43.455" lon="1.42677">
        <ele>159</ele>
        <time>2018-10-06T11:25:39Z</time>
      </trkpt>
      <trkpt lat="43.45506" lon="1.42673">
        <ele>159</ele>
        <time>2018-10-06T11:25:39Z</time>
      </trkpt>
      <trkpt lat="43.45512" lon="1.42671">
        <ele>159</ele>
        <time>2018-10-06T11:25:55Z</time>
      </trkpt>
      <trkpt lat="43.45518" lon="1.42666">
        <ele>159</ele>
        <time>2018-10-06T11:25:55Z</time>
      </trkpt>
      <trkpt lat="43.45521" lon="1.42662">
        <ele>159</ele>
        <time>2018-10-06T11:25:55Z</time>
      </trkpt>
      <trkpt lat="43.45524" lon="1.42659">
        <ele>159</ele>
        <time>2018-10-06T11:25:55Z</time>
      </trkpt>
      <trkpt lat="43.45528" lon="1.42657">
        <ele>159</ele>
        <time>2018-10-06T11:26:11Z</time>
      </trkpt>
      <trkpt lat="43.4553" lon="1.42653">
        <ele>159</ele>
        <time>2018-10-06T11:26:11Z</time>
      </trkpt>
      <trkpt lat="43.45532" lon="1.42649">
        <ele>159</ele>
        <time>2018-10-06T11:26:11Z</time>
      </trkpt>
      <trkpt lat="43.45536" lon="1.42646">
        <ele>159</ele>
        <time>2018-10-06T11:26:11Z</time>
      </trkpt>
      <trkpt lat="43.45539" lon="1.42639">
        <ele>159</ele>
        <time>2018-10-06T11:26:27Z</time>
      </trkpt>
      <trkpt lat="43.45542" lon="1.42634">
        <ele>159</ele>
        <time>2018-10-06T11:26:27Z</time>
      </trkpt>
      <trkpt lat="43.45545" lon="1.42628">
        <ele>159</ele>
        <time>2018-10-06T11:26:27Z</time>
      </trkpt>
      <trkpt lat="43.45549" lon="1.42624">
        <ele>158</ele>
        <time>2018-10-06T11:26:27Z</time>
      </trkpt>
      <trkpt lat="43.45554" lon="1.4262">
        <ele>158</ele>
        <time>2018-10-06T11:26:44Z</time>
      </trkpt>
      <trkpt lat="43.45558" lon="1.42616">
        <ele>158</ele>
        <time>2018-10-06T11:26:44Z</time>
      </trkpt>
      <trkpt lat="43.45563" lon="1.42612">
        <ele>158</ele>
        <time>2018-10-06T11:26:44Z</time>
      </trkpt>
      <trkpt lat="43.45566" lon="1.42606">
        <ele>158</ele>
        <time>2018-10-06T11:26:44Z</time>
      </trkpt>
      <trkpt lat="43.4557" lon="1.426">
        <ele>158</ele>
        <time>2018-10-06T11:26:59Z</time>
      </trkpt>
      <trkpt lat="43.45575" lon="1.42595">
        <ele>158</ele>
        <time>2018-10-06T11:26:59Z</time>
      </trkpt>
      <trkpt lat="43.45579" lon="1.42587">
        <ele>158</ele>
        <time>2018-10-06T11:26:59Z</time>
      </trkpt>
      <trkpt lat="43.45584" lon="1.42582">
        <ele>158</ele>
        <time>2018-10-06T11:26:59Z</time>
      </trkpt>
      <trkpt lat="43.45587" lon="1.4258">
        <ele>158</ele>
        <time>2018-10-06T11:27:15Z</time>
      </trkpt>
      <trkpt lat="43.4559" lon="1.42578">
        <ele>158</ele>
        <time>2018-10-06T11:27:15Z</time>
      </trkpt>
      <trkpt lat="43.45594" lon="1.42576">
        <ele>158</ele>
        <time>2018-10-06T11:27:15Z</time>
      </trkpt>
      <trkpt lat="43.45599" lon="1.42569">
        <ele>158</ele>
        <time>2018-10-06T11:27:15Z</time>
      </trkpt>
      <trkpt lat="43.45603" lon="1.42561">
        <ele>158</ele>
        <time>2018-10-06T11:27:31Z</time>
      </trkpt>
      <trkpt lat="43.45605" lon="1.42556">
        <ele>158</ele>
        <time>2018-10-06T11:27:31Z</time>
      </trkpt>
      <trkpt lat="43.45608" lon="1.42554">
        <ele>158</ele>
        <time>2018-10-06T11:27:31Z</time>
      </trkpt>
      <trkpt lat="43.4561" lon="1.42553">
        <ele>158</ele>
        <time>2018-10-06T11:27:31Z</time>
      </trkpt>
      <trkpt lat="43.45614" lon="1.42552">
        <ele>158</ele>
        <time>2018-10-06T11:27:47Z</time>
      </trkpt>
      <trkpt lat="43.45617" lon="1.42547">
        <ele>158</ele>
        <time>2018-10-06T11:27:47Z</time>
      </trkpt>
      <trkpt lat="43.4562" lon="1.42541">
        <ele>161</ele>
        <time>2018-10-06T11:27:47Z</time>
      </trkpt>
      <trkpt lat="43.45624" lon="1.42538">
        <ele>161</ele>
        <time>2018-10-06T11:27:47Z</time>
      </trkpt>
      <trkpt lat="43.45628" lon="1.42534">
        <ele>159</ele>
        <time>2018-10-06T11:28:03Z</time>
      </trkpt>
      <trkpt lat="43.45635" lon="1.42525">
        <ele>159</ele>
        <time>2018-10-06T11:28:03Z</time>
      </trkpt>
      <trkpt lat="43.45638" lon="1.42517">
        <ele>159</ele>
        <time>2018-10-06T11:28:03Z</time>
      </trkpt>
      <trkpt lat="43.45642" lon="1.42511">
        <ele>159</ele>
        <time>2018-10-06T11:28:03Z</time>
      </trkpt>
      <trkpt lat="43.45648" lon="1.42508">
        <ele>159</ele>
        <time>2018-10-06T11:28:19Z</time>
      </trkpt>
      <trkpt lat="43.4565" lon="1.42501">
        <ele>159</ele>
        <time>2018-10-06T11:28:19Z</time>
      </trkpt>
      <trkpt lat="43.45653" lon="1.42497">
        <ele>159</ele>
        <time>2018-10-06T11:28:19Z</time>
      </trkpt>
      <trkpt lat="43.45656" lon="1.42493">
        <ele>159</ele>
        <time>2018-10-06T11:28:19Z</time>
      </trkpt>
      <trkpt lat="43.45665" lon="1.42482">
        <ele>159</ele>
        <time>2018-10-06T11:29:03Z</time>
      </trkpt>
      <trkpt lat="43.45667" lon="1.42483">
        <ele>159</ele>
        <time>2018-10-06T11:29:03Z</time>
      </trkpt>
      <trkpt lat="43.45669" lon="1.42486">
        <ele>159</ele>
        <time>2018-10-06T11:29:03Z</time>
      </trkpt>
      <trkpt lat="43.45671" lon="1.42488">
        <ele>159</ele>
        <time>2018-10-06T11:29:03Z</time>
      </trkpt>
      <trkpt lat="43.45673" lon="1.4249">
        <ele>159</ele>
        <time>2018-10-06T11:29:03Z</time>
      </trkpt>
      <trkpt lat="43.45676" lon="1.42494">
        <ele>159</ele>
        <time>2018-10-06T11:29:19Z</time>
      </trkpt>
      <trkpt lat="43.4568" lon="1.42497">
        <ele>159</ele>
        <time>2018-10-06T11:29:19Z</time>
      </trkpt>
      <trkpt lat="43.45686" lon="1.425">
        <ele>159</ele>
        <time>2018-10-06T11:29:19Z</time>
      </trkpt>
      <trkpt lat="43.45688" lon="1.42503">
        <ele>159</ele>
        <time>2018-10-06T11:29:19Z</time>
      </trkpt>
      <trkpt lat="43.45689" lon="1.42507">
        <ele>159</ele>
        <time>2018-10-06T11:29:35Z</time>
      </trkpt>
      <trkpt lat="43.45694" lon="1.42509">
        <ele>159</ele>
        <time>2018-10-06T11:29:35Z</time>
      </trkpt>
      <trkpt lat="43.45697" lon="1.42513">
        <ele>159</ele>
        <time>2018-10-06T11:29:35Z</time>
      </trkpt>
      <trkpt lat="43.45701" lon="1.42515">
        <ele>159</ele>
        <time>2018-10-06T11:29:35Z</time>
      </trkpt>
      <trkpt lat="43.45703" lon="1.42519">
        <ele>159</ele>
        <time>2018-10-06T11:29:51Z</time>
      </trkpt>
      <trkpt lat="43.45707" lon="1.42526">
        <ele>159</ele>
        <time>2018-10-06T11:29:51Z</time>
      </trkpt>
      <trkpt lat="43.4571" lon="1.42533">
        <ele>158</ele>
        <time>2018-10-06T11:29:51Z</time>
      </trkpt>
      <trkpt lat="43.45715" lon="1.42539">
        <ele>158</ele>
        <time>2018-10-06T11:29:51Z</time>
      </trkpt>
      <trkpt lat="43.45718" lon="1.42545">
        <ele>157</ele>
        <time>2018-10-06T11:30:07Z</time>
      </trkpt>
      <trkpt lat="43.45721" lon="1.4255">
        <ele>157</ele>
        <time>2018-10-06T11:30:07Z</time>
      </trkpt>
      <trkpt lat="43.45725" lon="1.42553">
        <ele>157</ele>
        <time>2018-10-06T11:30:07Z</time>
      </trkpt>
      <trkpt lat="43.45728" lon="1.42556">
        <ele>157</ele>
        <time>2018-10-06T11:30:07Z</time>
      </trkpt>
      <trkpt lat="43.45731" lon="1.42561">
        <ele>157</ele>
        <time>2018-10-06T11:30:23Z</time>
      </trkpt>
      <trkpt lat="43.45735" lon="1.42566">
        <ele>157</ele>
        <time>2018-10-06T11:30:23Z</time>
      </trkpt>
      <trkpt lat="43.45739" lon="1.42571">
        <ele>157</ele>
        <time>2018-10-06T11:30:23Z</time>
      </trkpt>
      <trkpt lat="43.45743" lon="1.42576">
        <ele>157</ele>
        <time>2018-10-06T11:30:23Z</time>
      </trkpt>
      <trkpt lat="43.45748" lon="1.4258">
        <ele>157</ele>
        <time>2018-10-06T11:30:39Z</time>
      </trkpt>
      <trkpt lat="43.45751" lon="1.42583">
        <ele>157</ele>
        <time>2018-10-06T11:30:39Z</time>
      </trkpt>
      <trkpt lat="43.45754" lon="1.42587">
        <ele>157</ele>
        <time>2018-10-06T11:30:39Z</time>
      </trkpt>
      <trkpt lat="43.45757" lon="1.42592">
        <ele>157</ele>
        <time>2018-10-06T11:30:39Z</time>
      </trkpt>
      <trkpt lat="43.45763" lon="1.42595">
        <ele>157</ele>
        <time>2018-10-06T11:30:55Z</time>
      </trkpt>
      <trkpt lat="43.45767" lon="1.42598">
        <ele>157</ele>
        <time>2018-10-06T11:30:55Z</time>
      </trkpt>
      <trkpt lat="43.45772" lon="1.42599">
        <ele>157</ele>
        <time>2018-10-06T11:30:55Z</time>
      </trkpt>
      <trkpt lat="43.45777" lon="1.42598">
        <ele>157</ele>
        <time>2018-10-06T11:30:55Z</time>
      </trkpt>
      <trkpt lat="43.4578" lon="1.42597">
        <ele>157</ele>
        <time>2018-10-06T11:31:11Z</time>
      </trkpt>
      <trkpt lat="43.45785" lon="1.42598">
        <ele>157</ele>
        <time>2018-10-06T11:31:11Z</time>
      </trkpt>
      <trkpt lat="43.45789" lon="1.42596">
        <ele>157</ele>
        <time>2018-10-06T11:31:11Z</time>
      </trkpt>
      <trkpt lat="43.4579" lon="1.42595">
        <ele>157</ele>
        <time>2018-10-06T11:31:11Z</time>
      </trkpt>
      <trkpt lat="43.45792" lon="1.4259">
        <ele>157</ele>
        <time>2018-10-06T11:31:27Z</time>
      </trkpt>
      <trkpt lat="43.45793" lon="1.42584">
        <ele>162</ele>
        <time>2018-10-06T11:31:27Z</time>
      </trkpt>
      <trkpt lat="43.45797" lon="1.4258">
        <ele>162</ele>
        <time>2018-10-06T11:31:27Z</time>
      </trkpt>
      <trkpt lat="43.45802" lon="1.42573">
        <ele>162</ele>
        <time>2018-10-06T11:31:27Z</time>
      </trkpt>
      <trkpt lat="43.45802" lon="1.42566">
        <ele>162</ele>
        <time>2018-10-06T11:31:43Z</time>
      </trkpt>
      <trkpt lat="43.45805" lon="1.42562">
        <ele>162</ele>
        <time>2018-10-06T11:31:43Z</time>
      </trkpt>
      <trkpt lat="43.45806" lon="1.42558">
        <ele>162</ele>
        <time>2018-10-06T11:31:43Z</time>
      </trkpt>
      <trkpt lat="43.45807" lon="1.4255">
        <ele>162</ele>
        <time>2018-10-06T11:31:43Z</time>
      </trkpt>
      <trkpt lat="43.45808" lon="1.42543">
        <ele>162</ele>
        <time>2018-10-06T11:31:59Z</time>
      </trkpt>
      <trkpt lat="43.4581" lon="1.42537">
        <ele>161</ele>
        <time>2018-10-06T11:31:59Z</time>
      </trkpt>
      <trkpt lat="43.45812" lon="1.42535">
        <ele>161</ele>
        <time>2018-10-06T11:31:59Z</time>
      </trkpt>
      <trkpt lat="43.45813" lon="1.42529">
        <ele>161</ele>
        <time>2018-10-06T11:31:59Z</time>
      </trkpt>
      <trkpt lat="43.45815" lon="1.42525">
        <ele>161</ele>
        <time>2018-10-06T11:32:19Z</time>
      </trkpt>
      <trkpt lat="43.45815" lon="1.42523">
        <ele>161</ele>
        <time>2018-10-06T11:32:19Z</time>
      </trkpt>
      <trkpt lat="43.45815" lon="1.42522">
        <ele>161</ele>
        <time>2018-10-06T11:32:19Z</time>
      </trkpt>
      <trkpt lat="43.45815" lon="1.42521">
        <ele>161</ele>
        <time>2018-10-06T11:32:19Z</time>
      </trkpt>
      <trkpt lat="43.45816" lon="1.42512">
        <ele>161</ele>
        <time>2018-10-06T11:32:19Z</time>
      </trkpt>
      <trkpt lat="43.45817" lon="1.42509">
        <ele>161</ele>
        <time>2018-10-06T11:32:35Z</time>
      </trkpt>
      <trkpt lat="43.45821" lon="1.42503">
        <ele>161</ele>
        <time>2018-10-06T11:32:35Z</time>
      </trkpt>
      <trkpt lat="43.45823" lon="1.42494">
        <ele>161</ele>
        <time>2018-10-06T11:32:35Z</time>
      </trkpt>
      <trkpt lat="43.45825" lon="1.42488">
        <ele>161</ele>
        <time>2018-10-06T11:32:35Z</time>
      </trkpt>
      <trkpt lat="43.45828" lon="1.42482">
        <ele>161</ele>
        <time>2018-10-06T11:32:51Z</time>
      </trkpt>
      <trkpt lat="43.45831" lon="1.42475">
        <ele>161</ele>
        <time>2018-10-06T11:32:51Z</time>
      </trkpt>
      <trkpt lat="43.45833" lon="1.42469">
        <ele>161</ele>
        <time>2018-10-06T11:32:51Z</time>
      </trkpt>
      <trkpt lat="43.45836" lon="1.42462">
        <ele>161</ele>
        <time>2018-10-06T11:32:51Z</time>
      </trkpt>
      <trkpt lat="43.45838" lon="1.42455">
        <ele>161</ele>
        <time>2018-10-06T11:33:07Z</time>
      </trkpt>
      <trkpt lat="43.45838" lon="1.42447">
        <ele>161</ele>
        <time>2018-10-06T11:33:07Z</time>
      </trkpt>
      <trkpt lat="43.4584" lon="1.42441">
        <ele>161</ele>
        <time>2018-10-06T11:33:07Z</time>
      </trkpt>
      <trkpt lat="43.45841" lon="1.42435">
        <ele>161</ele>
        <time>2018-10-06T11:33:07Z</time>
      </trkpt>
      <trkpt lat="43.45842" lon="1.42429">
        <ele>161</ele>
        <time>2018-10-06T11:33:27Z</time>
      </trkpt>
      <trkpt lat="43.45844" lon="1.42421">
        <ele>161</ele>
        <time>2018-10-06T11:33:27Z</time>
      </trkpt>
      <trkpt lat="43.45844" lon="1.4242">
        <ele>161</ele>
        <time>2018-10-06T11:33:27Z</time>
      </trkpt>
      <trkpt lat="43.45845" lon="1.42419">
        <ele>161</ele>
        <time>2018-10-06T11:33:27Z</time>
      </trkpt>
      <trkpt lat="43.45847" lon="1.42414">
        <ele>161</ele>
        <time>2018-10-06T11:33:27Z</time>
      </trkpt>
      <trkpt lat="43.45849" lon="1.42408">
        <ele>161</ele>
        <time>2018-10-06T11:33:43Z</time>
      </trkpt>
      <trkpt lat="43.45848" lon="1.42403">
        <ele>161</ele>
        <time>2018-10-06T11:33:43Z</time>
      </trkpt>
      <trkpt lat="43.45849" lon="1.424">
        <ele>161</ele>
        <time>2018-10-06T11:33:43Z</time>
      </trkpt>
      <trkpt lat="43.45849" lon="1.42394">
        <ele>161</ele>
        <time>2018-10-06T11:33:43Z</time>
      </trkpt>
      <trkpt lat="43.4585" lon="1.42385">
        <ele>161</ele>
        <time>2018-10-06T11:33:59Z</time>
      </trkpt>
      <trkpt lat="43.45852" lon="1.42378">
        <ele>161</ele>
        <time>2018-10-06T11:33:59Z</time>
      </trkpt>
      <trkpt lat="43.45855" lon="1.42371">
        <ele>160</ele>
        <time>2018-10-06T11:33:59Z</time>
      </trkpt>
      <trkpt lat="43.45856" lon="1.42364">
        <ele>160</ele>
        <time>2018-10-06T11:33:59Z</time>
      </trkpt>
      <trkpt lat="43.45857" lon="1.42358">
        <ele>160</ele>
        <time>2018-10-06T11:34:15Z</time>
      </trkpt>
      <trkpt lat="43.45858" lon="1.42351">
        <ele>160</ele>
        <time>2018-10-06T11:34:15Z</time>
      </trkpt>
      <trkpt lat="43.45859" lon="1.42347">
        <ele>160</ele>
        <time>2018-10-06T11:34:15Z</time>
      </trkpt>
      <trkpt lat="43.4586" lon="1.42342">
        <ele>160</ele>
        <time>2018-10-06T11:34:15Z</time>
      </trkpt>
      <trkpt lat="43.45861" lon="1.42338">
        <ele>160</ele>
        <time>2018-10-06T11:34:31Z</time>
      </trkpt>
      <trkpt lat="43.45862" lon="1.42336">
        <ele>160</ele>
        <time>2018-10-06T11:34:31Z</time>
      </trkpt>
      <trkpt lat="43.45864" lon="1.4233">
        <ele>160</ele>
        <time>2018-10-06T11:34:31Z</time>
      </trkpt>
      <trkpt lat="43.45863" lon="1.42319">
        <ele>160</ele>
        <time>2018-10-06T11:34:31Z</time>
      </trkpt>
      <trkpt lat="43.45862" lon="1.42311">
        <ele>160</ele>
        <time>2018-10-06T11:34:47Z</time>
      </trkpt>
      <trkpt lat="43.45863" lon="1.42309">
        <ele>160</ele>
        <time>2018-10-06T11:34:47Z</time>
      </trkpt>
      <trkpt lat="43.45864" lon="1.42304">
        <ele>160</ele>
        <time>2018-10-06T11:34:47Z</time>
      </trkpt>
      <trkpt lat="43.45866" lon="1.42293">
        <ele>160</ele>
        <time>2018-10-06T11:34:47Z</time>
      </trkpt>
      <trkpt lat="43.45869" lon="1.42281">
        <ele>162</ele>
        <time>2018-10-06T11:35:03Z</time>
      </trkpt>
      <trkpt lat="43.45869" lon="1.42272">
        <ele>162</ele>
        <time>2018-10-06T11:35:03Z</time>
      </trkpt>
      <trkpt lat="43.45872" lon="1.42269">
        <ele>162</ele>
        <time>2018-10-06T11:35:03Z</time>
      </trkpt>
      <trkpt lat="43.45873" lon="1.42265">
        <ele>162</ele>
        <time>2018-10-06T11:35:03Z</time>
      </trkpt>
      <trkpt lat="43.45874" lon="1.42261">
        <ele>162</ele>
        <time>2018-10-06T11:35:23Z</time>
      </trkpt>
      <trkpt lat="43.45875" lon="1.42259">
        <ele>162</ele>
        <time>2018-10-06T11:35:23Z</time>
      </trkpt>
      <trkpt lat="43.45875" lon="1.42256">
        <ele>159</ele>
        <time>2018-10-06T11:35:23Z</time>
      </trkpt>
      <trkpt lat="43.45876" lon="1.42254">
        <ele>159</ele>
        <time>2018-10-06T11:35:23Z</time>
      </trkpt>
      <trkpt lat="43.45878" lon="1.42248">
        <ele>159</ele>
        <time>2018-10-06T11:35:23Z</time>
      </trkpt>
      <trkpt lat="43.45878" lon="1.42242">
        <ele>159</ele>
        <time>2018-10-06T11:35:39Z</time>
      </trkpt>
      <trkpt lat="43.4588" lon="1.42236">
        <ele>159</ele>
        <time>2018-10-06T11:35:39Z</time>
      </trkpt>
      <trkpt lat="43.45883" lon="1.42227">
        <ele>159</ele>
        <time>2018-10-06T11:35:39Z</time>
      </trkpt>
      <trkpt lat="43.45885" lon="1.42215">
        <ele>159</ele>
        <time>2018-10-06T11:35:39Z</time>
      </trkpt>
      <trkpt lat="43.45885" lon="1.42206">
        <ele>157</ele>
        <time>2018-10-06T11:35:55Z</time>
      </trkpt>
      <trkpt lat="43.45886" lon="1.42197">
        <ele>157</ele>
        <time>2018-10-06T11:35:55Z</time>
      </trkpt>
      <trkpt lat="43.45887" lon="1.42194">
        <ele>157</ele>
        <time>2018-10-06T11:35:55Z</time>
      </trkpt>
      <trkpt lat="43.45888" lon="1.42187">
        <ele>157</ele>
        <time>2018-10-06T11:35:55Z</time>
      </trkpt>
      <trkpt lat="43.45887" lon="1.4218">
        <ele>157</ele>
        <time>2018-10-06T11:36:11Z</time>
      </trkpt>
      <trkpt lat="43.45886" lon="1.42174">
        <ele>157</ele>
        <time>2018-10-06T11:36:11Z</time>
      </trkpt>
      <trkpt lat="43.45887" lon="1.42165">
        <ele>157</ele>
        <time>2018-10-06T11:36:11Z</time>
      </trkpt>
      <trkpt lat="43.45888" lon="1.42155">
        <ele>157</ele>
        <time>2018-10-06T11:36:11Z</time>
      </trkpt>
      <trkpt lat="43.4589" lon="1.42146">
        <ele>157</ele>
        <time>2018-10-06T11:36:27Z</time>
      </trkpt>
      <trkpt lat="43.45895" lon="1.42139">
        <ele>157</ele>
        <time>2018-10-06T11:36:27Z</time>
      </trkpt>
      <trkpt lat="43.45899" lon="1.42132">
        <ele>157</ele>
        <time>2018-10-06T11:36:27Z</time>
      </trkpt>
      <trkpt lat="43.45901" lon="1.42125">
        <ele>159</ele>
        <time>2018-10-06T11:36:27Z</time>
      </trkpt>
      <trkpt lat="43.45905" lon="1.42119">
        <ele>159</ele>
        <time>2018-10-06T11:36:47Z</time>
      </trkpt>
      <trkpt lat="43.45909" lon="1.42115">
        <ele>159</ele>
        <time>2018-10-06T11:36:47Z</time>
      </trkpt>
      <trkpt lat="43.4591" lon="1.42113">
        <ele>159</ele>
        <time>2018-10-06T11:36:47Z</time>
      </trkpt>
      <trkpt lat="43.4591" lon="1.42109">
        <ele>159</ele>
        <time>2018-10-06T11:36:47Z</time>
      </trkpt>
      <trkpt lat="43.45912" lon="1.42105">
        <ele>159</ele>
        <time>2018-10-06T11:36:47Z</time>
      </trkpt>
      <trkpt lat="43.45914" lon="1.421">
        <ele>159</ele>
        <time>2018-10-06T11:37:03Z</time>
      </trkpt>
      <trkpt lat="43.45916" lon="1.42097">
        <ele>159</ele>
        <time>2018-10-06T11:37:03Z</time>
      </trkpt>
      <trkpt lat="43.45917" lon="1.42092">
        <ele>159</ele>
        <time>2018-10-06T11:37:03Z</time>
      </trkpt>
      <trkpt lat="43.45923" lon="1.42085">
        <ele>159</ele>
        <time>2018-10-06T11:37:03Z</time>
      </trkpt>
      <trkpt lat="43.45937" lon="1.42072">
        <ele>159</ele>
        <time>2018-10-06T11:38:07Z</time>
      </trkpt>
      <trkpt lat="43.45938" lon="1.42073">
        <ele>159</ele>
        <time>2018-10-06T11:38:07Z</time>
      </trkpt>
      <trkpt lat="43.45939" lon="1.42072">
        <ele>159</ele>
        <time>2018-10-06T11:38:07Z</time>
      </trkpt>
      <trkpt lat="43.45943" lon="1.4207">
        <ele>159</ele>
        <time>2018-10-06T11:38:07Z</time>
      </trkpt>
      <trkpt lat="43.45947" lon="1.42071">
        <ele>159</ele>
        <time>2018-10-06T11:38:07Z</time>
      </trkpt>
      <trkpt lat="43.45953" lon="1.42071">
        <ele>159</ele>
        <time>2018-10-06T11:38:23Z</time>
      </trkpt>
      <trkpt lat="43.45957" lon="1.42071">
        <ele>159</ele>
        <time>2018-10-06T11:38:23Z</time>
      </trkpt>
      <trkpt lat="43.45961" lon="1.4207">
        <ele>157</ele>
        <time>2018-10-06T11:38:23Z</time>
      </trkpt>
      <trkpt lat="43.45965" lon="1.42067">
        <ele>157</ele>
        <time>2018-10-06T11:38:23Z</time>
      </trkpt>
      <trkpt lat="43.45969" lon="1.42063">
        <ele>157</ele>
        <time>2018-10-06T11:38:39Z</time>
      </trkpt>
      <trkpt lat="43.45972" lon="1.4206">
        <ele>157</ele>
        <time>2018-10-06T11:38:39Z</time>
      </trkpt>
      <trkpt lat="43.45976" lon="1.42057">
        <ele>157</ele>
        <time>2018-10-06T11:38:39Z</time>
      </trkpt>
      <trkpt lat="43.45981" lon="1.42051">
        <ele>157</ele>
        <time>2018-10-06T11:38:39Z</time>
      </trkpt>
      <trkpt lat="43.45987" lon="1.42049">
        <ele>157</ele>
        <time>2018-10-06T11:38:55Z</time>
      </trkpt>
      <trkpt lat="43.45991" lon="1.42047">
        <ele>157</ele>
        <time>2018-10-06T11:38:55Z</time>
      </trkpt>
      <trkpt lat="43.45995" lon="1.42046">
        <ele>157</ele>
        <time>2018-10-06T11:38:55Z</time>
      </trkpt>
      <trkpt lat="43.46" lon="1.42044">
        <ele>157</ele>
        <time>2018-10-06T11:38:55Z</time>
      </trkpt>
      <trkpt lat="43.46004" lon="1.42042">
        <ele>157</ele>
        <time>2018-10-06T11:39:11Z</time>
      </trkpt>
      <trkpt lat="43.46008" lon="1.42038">
        <ele>158</ele>
        <time>2018-10-06T11:39:11Z</time>
      </trkpt>
      <trkpt lat="43.46011" lon="1.42035">
        <ele>158</ele>
        <time>2018-10-06T11:39:11Z</time>
      </trkpt>
      <trkpt lat="43.46015" lon="1.42031">
        <ele>158</ele>
        <time>2018-10-06T11:39:11Z</time>
      </trkpt>
      <trkpt lat="43.46018" lon="1.42027">
        <ele>158</ele>
        <time>2018-10-06T11:39:27Z</time>
      </trkpt>
      <trkpt lat="43.46023" lon="1.42024">
        <ele>158</ele>
        <time>2018-10-06T11:39:27Z</time>
      </trkpt>
      <trkpt lat="43.46028" lon="1.42021">
        <ele>158</ele>
        <time>2018-10-06T11:39:27Z</time>
      </trkpt>
      <trkpt lat="43.46031" lon="1.42013">
        <ele>158</ele>
        <time>2018-10-06T11:39:27Z</time>
      </trkpt>
      <trkpt lat="43.46031" lon="1.42005">
        <ele>158</ele>
        <time>2018-10-06T11:39:43Z</time>
      </trkpt>
      <trkpt lat="43.46029" lon="1.42">
        <ele>158</ele>
        <time>2018-10-06T11:39:43Z</time>
      </trkpt>
      <trkpt lat="43.46027" lon="1.41996">
        <ele>158</ele>
        <time>2018-10-06T11:39:43Z</time>
      </trkpt>
      <trkpt lat="43.46026" lon="1.41991">
        <ele>158</ele>
        <time>2018-10-06T11:39:43Z</time>
      </trkpt>
      <trkpt lat="43.46023" lon="1.41991">
        <ele>158</ele>
        <time>2018-10-06T11:39:59Z</time>
      </trkpt>
      <trkpt lat="43.46018" lon="1.41988">
        <ele>158</ele>
        <time>2018-10-06T11:39:59Z</time>
      </trkpt>
      <trkpt lat="43.46014" lon="1.41983">
        <ele>158</ele>
        <time>2018-10-06T11:39:59Z</time>
      </trkpt>
      <trkpt lat="43.4601" lon="1.41978">
        <ele>158</ele>
        <time>2018-10-06T11:39:59Z</time>
      </trkpt>
      <trkpt lat="43.46006" lon="1.41974">
        <ele>158</ele>
        <time>2018-10-06T11:40:15Z</time>
      </trkpt>
      <trkpt lat="43.46004" lon="1.41976">
        <ele>158</ele>
        <time>2018-10-06T11:40:15Z</time>
      </trkpt>
      <trkpt lat="43.46001" lon="1.41972">
        <ele>158</ele>
        <time>2018-10-06T11:40:15Z</time>
      </trkpt>
      <trkpt lat="43.45997" lon="1.41965">
        <ele>158</ele>
        <time>2018-10-06T11:40:15Z</time>
      </trkpt>
      <trkpt lat="43.45993" lon="1.41958">
        <ele>161</ele>
        <time>2018-10-06T11:40:31Z</time>
      </trkpt>
      <trkpt lat="43.45991" lon="1.41951">
        <ele>161</ele>
        <time>2018-10-06T11:40:31Z</time>
      </trkpt>
      <trkpt lat="43.45988" lon="1.41945">
        <ele>161</ele>
        <time>2018-10-06T11:40:31Z</time>
      </trkpt>
      <trkpt lat="43.45984" lon="1.41937">
        <ele>161</ele>
        <time>2018-10-06T11:40:31Z</time>
      </trkpt>
      <trkpt lat="43.45978" lon="1.41931">
        <ele>161</ele>
        <time>2018-10-06T11:40:47Z</time>
      </trkpt>
      <trkpt lat="43.45975" lon="1.41923">
        <ele>161</ele>
        <time>2018-10-06T11:40:47Z</time>
      </trkpt>
      <trkpt lat="43.45974" lon="1.41917">
        <ele>161</ele>
        <time>2018-10-06T11:40:47Z</time>
      </trkpt>
      <trkpt lat="43.45969" lon="1.41914">
        <ele>161</ele>
        <time>2018-10-06T11:40:47Z</time>
      </trkpt>
      <trkpt lat="43.45964" lon="1.41911">
        <ele>161</ele>
        <time>2018-10-06T11:41:03Z</time>
      </trkpt>
      <trkpt lat="43.45961" lon="1.41908">
        <ele>161</ele>
        <time>2018-10-06T11:41:03Z</time>
      </trkpt>
      <trkpt lat="43.45958" lon="1.41899">
        <ele>162</ele>
        <time>2018-10-06T11:41:03Z</time>
      </trkpt>
      <trkpt lat="43.45958" lon="1.41892">
        <ele>162</ele>
        <time>2018-10-06T11:41:03Z</time>
      </trkpt>
      <trkpt lat="43.45954" lon="1.41886">
        <ele>162</ele>
        <time>2018-10-06T11:41:19Z</time>
      </trkpt>
      <trkpt lat="43.4595" lon="1.41881">
        <ele>162</ele>
        <time>2018-10-06T11:41:19Z</time>
      </trkpt>
      <trkpt lat="43.45946" lon="1.41875">
        <ele>162</ele>
        <time>2018-10-06T11:41:19Z</time>
      </trkpt>
      <trkpt lat="43.45943" lon="1.41869">
        <ele>162</ele>
        <time>2018-10-06T11:41:19Z</time>
      </trkpt>
      <trkpt lat="43.45938" lon="1.41861">
        <ele>162</ele>
        <time>2018-10-06T11:41:35Z</time>
      </trkpt>
      <trkpt lat="43.45934" lon="1.41857">
        <ele>162</ele>
        <time>2018-10-06T11:41:35Z</time>
      </trkpt>
      <trkpt lat="43.45927" lon="1.41851">
        <ele>162</ele>
        <time>2018-10-06T11:41:35Z</time>
      </trkpt>
      <trkpt lat="43.45924" lon="1.41846">
        <ele>162</ele>
        <time>2018-10-06T11:41:35Z</time>
      </trkpt>
      <trkpt lat="43.4592" lon="1.41841">
        <ele>162</ele>
        <time>2018-10-06T11:41:51Z</time>
      </trkpt>
      <trkpt lat="43.45915" lon="1.41837">
        <ele>162</ele>
        <time>2018-10-06T11:41:51Z</time>
      </trkpt>
      <trkpt lat="43.4591" lon="1.41832">
        <ele>162</ele>
        <time>2018-10-06T11:41:51Z</time>
      </trkpt>
      <trkpt lat="43.45904" lon="1.41827">
        <ele>162</ele>
        <time>2018-10-06T11:41:51Z</time>
      </trkpt>
      <trkpt lat="43.45899" lon="1.41822">
        <ele>162</ele>
        <time>2018-10-06T11:42:11Z</time>
      </trkpt>
      <trkpt lat="43.45896" lon="1.41819">
        <ele>162</ele>
        <time>2018-10-06T11:42:11Z</time>
      </trkpt>
      <trkpt lat="43.45895" lon="1.41819">
        <ele>162</ele>
        <time>2018-10-06T11:42:11Z</time>
      </trkpt>
      <trkpt lat="43.45892" lon="1.41816">
        <ele>162</ele>
        <time>2018-10-06T11:42:11Z</time>
      </trkpt>
      <trkpt lat="43.45889" lon="1.41813">
        <ele>162</ele>
        <time>2018-10-06T11:42:11Z</time>
      </trkpt>
      <trkpt lat="43.45886" lon="1.4181">
        <ele>162</ele>
        <time>2018-10-06T11:42:27Z</time>
      </trkpt>
      <trkpt lat="43.45879" lon="1.41804">
        <ele>162</ele>
        <time>2018-10-06T11:42:27Z</time>
      </trkpt>
      <trkpt lat="43.45871" lon="1.41798">
        <ele>160</ele>
        <time>2018-10-06T11:42:27Z</time>
      </trkpt>
      <trkpt lat="43.45865" lon="1.41791">
        <ele>160</ele>
        <time>2018-10-06T11:42:27Z</time>
      </trkpt>
      <trkpt lat="43.45856" lon="1.4177">
        <ele>160</ele>
        <time>2018-10-06T11:44:15Z</time>
      </trkpt>
      <trkpt lat="43.45856" lon="1.41769">
        <ele>160</ele>
        <time>2018-10-06T11:44:15Z</time>
      </trkpt>
      <trkpt lat="43.45856" lon="1.41769">
        <ele>160</ele>
        <time>2018-10-06T11:44:15Z</time>
      </trkpt>
      <trkpt lat="43.45856" lon="1.41769">
        <ele>160</ele>
        <time>2018-10-06T11:44:15Z</time>
      </trkpt>
      <trkpt lat="43.45856" lon="1.41769">
        <ele>160</ele>
        <time>2018-10-06T11:44:15Z</time>
      </trkpt>
      <trkpt lat="43.45856" lon="1.41769">
        <ele>160</ele>
        <time>2018-10-06T11:44:51Z</time>
      </trkpt>
      <trkpt lat="43.45857" lon="1.41769">
        <ele>160</ele>
        <time>2018-10-06T11:44:51Z</time>
      </trkpt>
      <trkpt lat="43.45859" lon="1.41768">
        <ele>160</ele>
        <time>2018-10-06T11:44:51Z</time>
      </trkpt>
      <trkpt lat="43.45862" lon="1.41771">
        <ele>160</ele>
        <time>2018-10-06T11:44:51Z</time>
      </trkpt>
      <trkpt lat="43.45866" lon="1.41775">
        <ele>160</ele>
        <time>2018-10-06T11:44:51Z</time>
      </trkpt>
      <trkpt lat="43.4587" lon="1.41779">
        <ele>160</ele>
        <time>2018-10-06T11:45:07Z</time>
      </trkpt>
      <trkpt lat="43.45874" lon="1.41783">
        <ele>160</ele>
        <time>2018-10-06T11:45:07Z</time>
      </trkpt>
      <trkpt lat="43.45879" lon="1.41787">
        <ele>159</ele>
        <time>2018-10-06T11:45:07Z</time>
      </trkpt>
      <trkpt lat="43.45883" lon="1.41791">
        <ele>159</ele>
        <time>2018-10-06T11:45:07Z</time>
      </trkpt>
      <trkpt lat="43.45887" lon="1.41794">
        <ele>162</ele>
        <time>2018-10-06T11:45:23Z</time>
      </trkpt>
      <trkpt lat="43.45891" lon="1.41796">
        <ele>162</ele>
        <time>2018-10-06T11:45:23Z</time>
      </trkpt>
      <trkpt lat="43.45894" lon="1.41798">
        <ele>162</ele>
        <time>2018-10-06T11:45:23Z</time>
      </trkpt>
      <trkpt lat="43.45893" lon="1.41804">
        <ele>162</ele>
        <time>2018-10-06T11:45:23Z</time>
      </trkpt>
      <trkpt lat="43.45893" lon="1.41809">
        <ele>162</ele>
        <time>2018-10-06T11:45:39Z</time>
      </trkpt>
      <trkpt lat="43.45896" lon="1.41812">
        <ele>162</ele>
        <time>2018-10-06T11:45:39Z</time>
      </trkpt>
      <trkpt lat="43.45899" lon="1.41815">
        <ele>162</ele>
        <time>2018-10-06T11:45:39Z</time>
      </trkpt>
      <trkpt lat="43.45903" lon="1.41818">
        <ele>162</ele>
        <time>2018-10-06T11:45:39Z</time>
      </trkpt>
      <trkpt lat="43.4591" lon="1.41821">
        <ele>162</ele>
        <time>2018-10-06T11:45:55Z</time>
      </trkpt>
      <trkpt lat="43.45917" lon="1.41825">
        <ele>162</ele>
        <time>2018-10-06T11:45:55Z</time>
      </trkpt>
      <trkpt lat="43.45918" lon="1.41827">
        <ele>162</ele>
        <time>2018-10-06T11:45:55Z</time>
      </trkpt>
      <trkpt lat="43.45922" lon="1.41831">
        <ele>162</ele>
        <time>2018-10-06T11:45:55Z</time>
      </trkpt>
      <trkpt lat="43.45928" lon="1.41835">
        <ele>162</ele>
        <time>2018-10-06T11:46:11Z</time>
      </trkpt>
      <trkpt lat="43.45934" lon="1.41842">
        <ele>162</ele>
        <time>2018-10-06T11:46:11Z</time>
      </trkpt>
      <trkpt lat="43.45941" lon="1.41846">
        <ele>162</ele>
        <time>2018-10-06T11:46:11Z</time>
      </trkpt>
      <trkpt lat="43.45947" lon="1.41852">
        <ele>162</ele>
        <time>2018-10-06T11:46:11Z</time>
      </trkpt>
      <trkpt lat="43.45952" lon="1.41857">
        <ele>162</ele>
        <time>2018-10-06T11:46:27Z</time>
      </trkpt>
      <trkpt lat="43.45957" lon="1.41862">
        <ele>162</ele>
        <time>2018-10-06T11:46:27Z</time>
      </trkpt>
      <trkpt lat="43.45962" lon="1.41865">
        <ele>159</ele>
        <time>2018-10-06T11:46:27Z</time>
      </trkpt>
      <trkpt lat="43.45965" lon="1.41868">
        <ele>159</ele>
        <time>2018-10-06T11:46:27Z</time>
      </trkpt>
      <trkpt lat="43.45969" lon="1.4187">
        <ele>159</ele>
        <time>2018-10-06T11:46:43Z</time>
      </trkpt>
      <trkpt lat="43.45973" lon="1.41873">
        <ele>159</ele>
        <time>2018-10-06T11:46:43Z</time>
      </trkpt>
      <trkpt lat="43.45976" lon="1.41876">
        <ele>161</ele>
        <time>2018-10-06T11:46:43Z</time>
      </trkpt>
      <trkpt lat="43.45979" lon="1.41881">
        <ele>161</ele>
        <time>2018-10-06T11:46:43Z</time>
      </trkpt>
      <trkpt lat="43.4598" lon="1.41886">
        <ele>161</ele>
        <time>2018-10-06T11:46:59Z</time>
      </trkpt>
      <trkpt lat="43.45983" lon="1.4189">
        <ele>161</ele>
        <time>2018-10-06T11:46:59Z</time>
      </trkpt>
      <trkpt lat="43.45986" lon="1.41895">
        <ele>161</ele>
        <time>2018-10-06T11:46:59Z</time>
      </trkpt>
      <trkpt lat="43.45989" lon="1.41901">
        <ele>161</ele>
        <time>2018-10-06T11:46:59Z</time>
      </trkpt>
      <trkpt lat="43.45992" lon="1.41906">
        <ele>161</ele>
        <time>2018-10-06T11:47:15Z</time>
      </trkpt>
      <trkpt lat="43.45995" lon="1.4191">
        <ele>161</ele>
        <time>2018-10-06T11:47:15Z</time>
      </trkpt>
      <trkpt lat="43.45997" lon="1.41914">
        <ele>161</ele>
        <time>2018-10-06T11:47:15Z</time>
      </trkpt>
      <trkpt lat="43.46001" lon="1.41922">
        <ele>161</ele>
        <time>2018-10-06T11:47:15Z</time>
      </trkpt>
      <trkpt lat="43.46003" lon="1.41928">
        <ele>161</ele>
        <time>2018-10-06T11:47:31Z</time>
      </trkpt>
      <trkpt lat="43.46005" lon="1.41935">
        <ele>161</ele>
        <time>2018-10-06T11:47:31Z</time>
      </trkpt>
      <trkpt lat="43.46006" lon="1.41941">
        <ele>161</ele>
        <time>2018-10-06T11:47:31Z</time>
      </trkpt>
      <trkpt lat="43.46009" lon="1.41948">
        <ele>161</ele>
        <time>2018-10-06T11:47:31Z</time>
      </trkpt>
      <trkpt lat="43.46012" lon="1.41957">
        <ele>161</ele>
        <time>2018-10-06T11:47:47Z</time>
      </trkpt>
      <trkpt lat="43.46016" lon="1.41964">
        <ele>158</ele>
        <time>2018-10-06T11:47:47Z</time>
      </trkpt>
      <trkpt lat="43.46019" lon="1.4197">
        <ele>158</ele>
        <time>2018-10-06T11:47:47Z</time>
      </trkpt>
      <trkpt lat="43.46018" lon="1.41971">
        <ele>158</ele>
        <time>2018-10-06T11:47:47Z</time>
      </trkpt>
      <trkpt lat="43.46019" lon="1.41973">
        <ele>158</ele>
        <time>2018-10-06T11:48:03Z</time>
      </trkpt>
      <trkpt lat="43.4602" lon="1.41976">
        <ele>158</ele>
        <time>2018-10-06T11:48:03Z</time>
      </trkpt>
      <trkpt lat="43.46021" lon="1.41982">
        <ele>158</ele>
        <time>2018-10-06T11:48:03Z</time>
      </trkpt>
      <trkpt lat="43.46023" lon="1.41987">
        <ele>158</ele>
        <time>2018-10-06T11:48:03Z</time>
      </trkpt>
      <trkpt lat="43.46022" lon="1.4199">
        <ele>158</ele>
        <time>2018-10-06T11:48:19Z</time>
      </trkpt>
      <trkpt lat="43.46025" lon="1.41994">
        <ele>158</ele>
        <time>2018-10-06T11:48:19Z</time>
      </trkpt>
      <trkpt lat="43.46029" lon="1.41999">
        <ele>158</ele>
        <time>2018-10-06T11:48:19Z</time>
      </trkpt>
      <trkpt lat="43.46032" lon="1.42007">
        <ele>158</ele>
        <time>2018-10-06T11:48:19Z</time>
      </trkpt>
      <trkpt lat="43.46035" lon="1.42016">
        <ele>158</ele>
        <time>2018-10-06T11:48:35Z</time>
      </trkpt>
      <trkpt lat="43.46037" lon="1.42026">
        <ele>158</ele>
        <time>2018-10-06T11:48:35Z</time>
      </trkpt>
      <trkpt lat="43.46039" lon="1.42034">
        <ele>158</ele>
        <time>2018-10-06T11:48:35Z</time>
      </trkpt>
      <trkpt lat="43.4604" lon="1.42043">
        <ele>157</ele>
        <time>2018-10-06T11:48:35Z</time>
      </trkpt>
      <trkpt lat="43.46044" lon="1.42049">
        <ele>159</ele>
        <time>2018-10-06T11:48:51Z</time>
      </trkpt>
      <trkpt lat="43.46048" lon="1.42056">
        <ele>159</ele>
        <time>2018-10-06T11:48:51Z</time>
      </trkpt>
      <trkpt lat="43.46051" lon="1.42063">
        <ele>159</ele>
        <time>2018-10-06T11:48:51Z</time>
      </trkpt>
      <trkpt lat="43.46052" lon="1.4207">
        <ele>159</ele>
        <time>2018-10-06T11:48:51Z</time>
      </trkpt>
      <trkpt lat="43.46051" lon="1.42078">
        <ele>159</ele>
        <time>2018-10-06T11:49:07Z</time>
      </trkpt>
      <trkpt lat="43.46054" lon="1.42083">
        <ele>159</ele>
        <time>2018-10-06T11:49:07Z</time>
      </trkpt>
      <trkpt lat="43.46057" lon="1.42087">
        <ele>159</ele>
        <time>2018-10-06T11:49:07Z</time>
      </trkpt>
      <trkpt lat="43.46057" lon="1.42094">
        <ele>159</ele>
        <time>2018-10-06T11:49:07Z</time>
      </trkpt>
      <trkpt lat="43.46059" lon="1.42099">
        <ele>159</ele>
        <time>2018-10-06T11:49:23Z</time>
      </trkpt>
      <trkpt lat="43.4606" lon="1.42105">
        <ele>159</ele>
        <time>2018-10-06T11:49:23Z</time>
      </trkpt>
      <trkpt lat="43.46063" lon="1.42108">
        <ele>159</ele>
        <time>2018-10-06T11:49:23Z</time>
      </trkpt>
      <trkpt lat="43.46066" lon="1.42113">
        <ele>159</ele>
        <time>2018-10-06T11:49:23Z</time>
      </trkpt>
      <trkpt lat="43.46066" lon="1.42119">
        <ele>159</ele>
        <time>2018-10-06T11:49:39Z</time>
      </trkpt>
      <trkpt lat="43.46066" lon="1.42126">
        <ele>162</ele>
        <time>2018-10-06T11:49:39Z</time>
      </trkpt>
      <trkpt lat="43.46068" lon="1.42133">
        <ele>162</ele>
        <time>2018-10-06T11:49:39Z</time>
      </trkpt>
      <trkpt lat="43.46071" lon="1.4214">
        <ele>162</ele>
        <time>2018-10-06T11:49:39Z</time>
      </trkpt>
      <trkpt lat="43.46074" lon="1.4214">
        <ele>162</ele>
        <time>2018-10-06T11:50:39Z</time>
      </trkpt>
      <trkpt lat="43.46074" lon="1.4214">
        <ele>162</ele>
        <time>2018-10-06T11:50:39Z</time>
      </trkpt>
      <trkpt lat="43.46074" lon="1.42138">
        <ele>162</ele>
        <time>2018-10-06T11:50:39Z</time>
      </trkpt>
      <trkpt lat="43.46075" lon="1.42136">
        <ele>162</ele>
        <time>2018-10-06T11:50:39Z</time>
      </trkpt>
      <trkpt lat="43.46078" lon="1.42127">
        <ele>162</ele>
        <time>2018-10-06T11:50:40Z</time>
      </trkpt>
      <trkpt lat="43.46078" lon="1.42123">
        <ele>159</ele>
        <time>2018-10-06T11:51:35Z</time>
      </trkpt>
      <trkpt lat="43.46078" lon="1.42119">
        <ele>159</ele>
        <time>2018-10-06T11:51:35Z</time>
      </trkpt>
      <trkpt lat="43.4608" lon="1.42112">
        <ele>159</ele>
        <time>2018-10-06T11:51:36Z</time>
      </trkpt>
      <trkpt lat="43.46078" lon="1.42102">
        <ele>159</ele>
        <time>2018-10-06T11:51:36Z</time>
      </trkpt>
      <trkpt lat="43.46069" lon="1.42101">
        <ele>159</ele>
        <time>2018-10-06T11:51:36Z</time>
      </trkpt>
      <trkpt lat="43.46063" lon="1.42101">
        <ele>159</ele>
        <time>2018-10-06T11:51:51Z</time>
      </trkpt>
      <trkpt lat="43.46058" lon="1.42103">
        <ele>159</ele>
        <time>2018-10-06T11:51:51Z</time>
      </trkpt>
      <trkpt lat="43.46055" lon="1.42105">
        <ele>159</ele>
        <time>2018-10-06T11:51:51Z</time>
      </trkpt>
      <trkpt lat="43.46054" lon="1.42106">
        <ele>159</ele>
        <time>2018-10-06T11:51:51Z</time>
      </trkpt>
      <trkpt lat="43.46052" lon="1.42108">
        <ele>159</ele>
        <time>2018-10-06T11:52:07Z</time>
      </trkpt>
      <trkpt lat="43.46052" lon="1.42112">
        <ele>159</ele>
        <time>2018-10-06T11:52:07Z</time>
      </trkpt>
      <trkpt lat="43.46052" lon="1.42115">
        <ele>159</ele>
        <time>2018-10-06T11:52:07Z</time>
      </trkpt>
      <trkpt lat="43.46055" lon="1.42123">
        <ele>159</ele>
        <time>2018-10-06T11:52:07Z</time>
      </trkpt>
      <trkpt lat="43.46051" lon="1.42127">
        <ele>162</ele>
        <time>2018-10-06T11:55:03Z</time>
      </trkpt>
      <trkpt lat="43.46054" lon="1.42122">
        <ele>159</ele>
        <time>2018-10-06T11:55:03Z</time>
      </trkpt>
      <trkpt lat="43.46055" lon="1.42117">
        <ele>159</ele>
        <time>2018-10-06T11:55:03Z</time>
      </trkpt>
      <trkpt lat="43.46055" lon="1.42116">
        <ele>159</ele>
        <time>2018-10-06T11:55:03Z</time>
      </trkpt>
      <trkpt lat="43.46054" lon="1.42115">
        <ele>159</ele>
        <time>2018-10-06T11:55:03Z</time>
      </trkpt>
      <trkpt lat="43.46055" lon="1.42115">
        <ele>159</ele>
        <time>2018-10-06T11:56:07Z</time>
      </trkpt>
      <trkpt lat="43.46053" lon="1.42118">
        <ele>159</ele>
        <time>2018-10-06T11:56:07Z</time>
      </trkpt>
      <trkpt lat="43.46049" lon="1.4212">
        <ele>159</ele>
        <time>2018-10-06T11:56:07Z</time>
      </trkpt>
      <trkpt lat="43.46042" lon="1.42122">
        <ele>159</ele>
        <time>2018-10-06T11:56:07Z</time>
      </trkpt>
      <trkpt lat="43.46035" lon="1.42126">
        <ele>159</ele>
        <time>2018-10-06T11:56:07Z</time>
      </trkpt>
      <trkpt lat="43.46028" lon="1.42129">
        <ele>159</ele>
        <time>2018-10-06T11:56:31Z</time>
      </trkpt>
      <trkpt lat="43.46027" lon="1.4213">
        <ele>159</ele>
        <time>2018-10-06T11:56:31Z</time>
      </trkpt>
      <trkpt lat="43.46025" lon="1.42132">
        <ele>159</ele>
        <time>2018-10-06T11:56:31Z</time>
      </trkpt>
      <trkpt lat="43.46024" lon="1.42135">
        <ele>159</ele>
        <time>2018-10-06T11:56:31Z</time>
      </trkpt>
      <trkpt lat="43.46018" lon="1.42141">
        <ele>159</ele>
        <time>2018-10-06T11:56:31Z</time>
      </trkpt>
      <trkpt lat="43.4601" lon="1.42147">
        <ele>159</ele>
        <time>2018-10-06T11:56:47Z</time>
      </trkpt>
      <trkpt lat="43.46005" lon="1.42154">
        <ele>159</ele>
        <time>2018-10-06T11:56:47Z</time>
      </trkpt>
      <trkpt lat="43.46003" lon="1.4216">
        <ele>159</ele>
        <time>2018-10-06T11:56:47Z</time>
      </trkpt>
      <trkpt lat="43.45999" lon="1.42164">
        <ele>159</ele>
        <time>2018-10-06T11:56:47Z</time>
      </trkpt>
      <trkpt lat="43.45995" lon="1.42168">
        <ele>159</ele>
        <time>2018-10-06T11:57:03Z</time>
      </trkpt>
      <trkpt lat="43.45994" lon="1.42175">
        <ele>159</ele>
        <time>2018-10-06T11:57:03Z</time>
      </trkpt>
      <trkpt lat="43.4599" lon="1.42182">
        <ele>159</ele>
        <time>2018-10-06T11:57:03Z</time>
      </trkpt>
      <trkpt lat="43.45986" lon="1.42188">
        <ele>159</ele>
        <time>2018-10-06T11:57:03Z</time>
      </trkpt>
      <trkpt lat="43.45983" lon="1.42194">
        <ele>159</ele>
        <time>2018-10-06T11:57:19Z</time>
      </trkpt>
      <trkpt lat="43.4598" lon="1.42197">
        <ele>159</ele>
        <time>2018-10-06T11:57:19Z</time>
      </trkpt>
      <trkpt lat="43.45977" lon="1.42202">
        <ele>159</ele>
        <time>2018-10-06T11:57:19Z</time>
      </trkpt>
      <trkpt lat="43.45975" lon="1.42208">
        <ele>159</ele>
        <time>2018-10-06T11:57:19Z</time>
      </trkpt>
      <trkpt lat="43.45972" lon="1.42214">
        <ele>162</ele>
        <time>2018-10-06T11:57:35Z</time>
      </trkpt>
      <trkpt lat="43.4597" lon="1.4222">
        <ele>162</ele>
        <time>2018-10-06T11:57:35Z</time>
      </trkpt>
      <trkpt lat="43.45968" lon="1.42226">
        <ele>162</ele>
        <time>2018-10-06T11:57:35Z</time>
      </trkpt>
      <trkpt lat="43.45967" lon="1.42232">
        <ele>162</ele>
        <time>2018-10-06T11:57:35Z</time>
      </trkpt>
      <trkpt lat="43.45965" lon="1.4224">
        <ele>162</ele>
        <time>2018-10-06T11:57:51Z</time>
      </trkpt>
      <trkpt lat="43.45962" lon="1.42247">
        <ele>162</ele>
        <time>2018-10-06T11:57:51Z</time>
      </trkpt>
      <trkpt lat="43.45961" lon="1.42253">
        <ele>162</ele>
        <time>2018-10-06T11:57:51Z</time>
      </trkpt>
      <trkpt lat="43.45963" lon="1.4226">
        <ele>162</ele>
        <time>2018-10-06T11:57:51Z</time>
      </trkpt>
      <trkpt lat="43.45962" lon="1.42262">
        <ele>162</ele>
        <time>2018-10-06T11:58:07Z</time>
      </trkpt>
      <trkpt lat="43.45962" lon="1.42266">
        <ele>162</ele>
        <time>2018-10-06T11:58:07Z</time>
      </trkpt>
      <trkpt lat="43.45961" lon="1.42277">
        <ele>162</ele>
        <time>2018-10-06T11:58:07Z</time>
      </trkpt>
      <trkpt lat="43.45958" lon="1.42287">
        <ele>162</ele>
        <time>2018-10-06T11:58:07Z</time>
      </trkpt>
      <trkpt lat="43.45956" lon="1.42294">
        <ele>160</ele>
        <time>2018-10-06T11:58:23Z</time>
      </trkpt>
      <trkpt lat="43.45953" lon="1.42302">
        <ele>160</ele>
        <time>2018-10-06T11:58:23Z</time>
      </trkpt>
      <trkpt lat="43.45953" lon="1.42311">
        <ele>160</ele>
        <time>2018-10-06T11:58:23Z</time>
      </trkpt>
      <trkpt lat="43.45954" lon="1.42318">
        <ele>160</ele>
        <time>2018-10-06T11:58:23Z</time>
      </trkpt>
      <trkpt lat="43.45952" lon="1.42323">
        <ele>160</ele>
        <time>2018-10-06T11:58:39Z</time>
      </trkpt>
      <trkpt lat="43.45949" lon="1.42329">
        <ele>160</ele>
        <time>2018-10-06T11:58:39Z</time>
      </trkpt>
      <trkpt lat="43.45945" lon="1.42332">
        <ele>160</ele>
        <time>2018-10-06T11:58:39Z</time>
      </trkpt>
      <trkpt lat="43.45946" lon="1.42338">
        <ele>160</ele>
        <time>2018-10-06T11:58:39Z</time>
      </trkpt>
      <trkpt lat="43.45945" lon="1.42347">
        <ele>160</ele>
        <time>2018-10-06T11:59:07Z</time>
      </trkpt>
      <trkpt lat="43.45945" lon="1.42348">
        <ele>160</ele>
        <time>2018-10-06T11:59:07Z</time>
      </trkpt>
      <trkpt lat="43.45945" lon="1.42349">
        <ele>160</ele>
        <time>2018-10-06T11:59:07Z</time>
      </trkpt>
      <trkpt lat="43.45944" lon="1.42353">
        <ele>160</ele>
        <time>2018-10-06T11:59:07Z</time>
      </trkpt>
      <trkpt lat="43.45943" lon="1.42359">
        <ele>160</ele>
        <time>2018-10-06T11:59:07Z</time>
      </trkpt>
      <trkpt lat="43.45941" lon="1.42366">
        <ele>160</ele>
        <time>2018-10-06T11:59:23Z</time>
      </trkpt>
      <trkpt lat="43.45942" lon="1.42371">
        <ele>160</ele>
        <time>2018-10-06T11:59:23Z</time>
      </trkpt>
      <trkpt lat="43.45943" lon="1.42378">
        <ele>161</ele>
        <time>2018-10-06T11:59:23Z</time>
      </trkpt>
      <trkpt lat="43.45943" lon="1.42382">
        <ele>161</ele>
        <time>2018-10-06T11:59:23Z</time>
      </trkpt>
      <trkpt lat="43.45943" lon="1.42383">
        <ele>161</ele>
        <time>2018-10-06T11:59:43Z</time>
      </trkpt>
      <trkpt lat="43.45943" lon="1.42382">
        <ele>161</ele>
        <time>2018-10-06T11:59:43Z</time>
      </trkpt>
      <trkpt lat="43.45944" lon="1.42382">
        <ele>161</ele>
        <time>2018-10-06T11:59:43Z</time>
      </trkpt>
      <trkpt lat="43.45943" lon="1.42389">
        <ele>161</ele>
        <time>2018-10-06T11:59:43Z</time>
      </trkpt>
      <trkpt lat="43.4594" lon="1.42398">
        <ele>161</ele>
        <time>2018-10-06T11:59:43Z</time>
      </trkpt>
      <trkpt lat="43.4594" lon="1.42402">
        <ele>161</ele>
        <time>2018-10-06T12:00:03Z</time>
      </trkpt>
      <trkpt lat="43.45939" lon="1.42403">
        <ele>161</ele>
        <time>2018-10-06T12:00:03Z</time>
      </trkpt>
      <trkpt lat="43.45938" lon="1.42404">
        <ele>161</ele>
        <time>2018-10-06T12:00:03Z</time>
      </trkpt>
      <trkpt lat="43.45938" lon="1.42405">
        <ele>161</ele>
        <time>2018-10-06T12:00:03Z</time>
      </trkpt>
      <trkpt lat="43.45936" lon="1.42414">
        <ele>161</ele>
        <time>2018-10-06T12:00:03Z</time>
      </trkpt>
      <trkpt lat="43.45934" lon="1.4242">
        <ele>161</ele>
        <time>2018-10-06T12:00:19Z</time>
      </trkpt>
      <trkpt lat="43.45932" lon="1.42423">
        <ele>161</ele>
        <time>2018-10-06T12:00:19Z</time>
      </trkpt>
      <trkpt lat="43.45931" lon="1.42428">
        <ele>161</ele>
        <time>2018-10-06T12:00:19Z</time>
      </trkpt>
      <trkpt lat="43.4593" lon="1.42435">
        <ele>161</ele>
        <time>2018-10-06T12:00:19Z</time>
      </trkpt>
      <trkpt lat="43.45926" lon="1.42441">
        <ele>161</ele>
        <time>2018-10-06T12:00:35Z</time>
      </trkpt>
      <trkpt lat="43.45927" lon="1.42449">
        <ele>161</ele>
        <time>2018-10-06T12:00:35Z</time>
      </trkpt>
      <trkpt lat="43.45927" lon="1.42452">
        <ele>161</ele>
        <time>2018-10-06T12:00:35Z</time>
      </trkpt>
      <trkpt lat="43.45927" lon="1.42454">
        <ele>161</ele>
        <time>2018-10-06T12:00:35Z</time>
      </trkpt>
      <trkpt lat="43.45928" lon="1.42457">
        <ele>161</ele>
        <time>2018-10-06T12:00:51Z</time>
      </trkpt>
      <trkpt lat="43.45927" lon="1.42466">
        <ele>159</ele>
        <time>2018-10-06T12:00:51Z</time>
      </trkpt>
      <trkpt lat="43.45927" lon="1.42473">
        <ele>159</ele>
        <time>2018-10-06T12:00:51Z</time>
      </trkpt>
      <trkpt lat="43.45924" lon="1.42483">
        <ele>159</ele>
        <time>2018-10-06T12:00:51Z</time>
      </trkpt>
      <trkpt lat="43.45921" lon="1.42488">
        <ele>159</ele>
        <time>2018-10-06T12:01:07Z</time>
      </trkpt>
      <trkpt lat="43.45921" lon="1.42494">
        <ele>159</ele>
        <time>2018-10-06T12:01:07Z</time>
      </trkpt>
      <trkpt lat="43.45924" lon="1.425">
        <ele>159</ele>
        <time>2018-10-06T12:01:07Z</time>
      </trkpt>
      <trkpt lat="43.4592" lon="1.42504">
        <ele>159</ele>
        <time>2018-10-06T12:01:07Z</time>
      </trkpt>
      <trkpt lat="43.45919" lon="1.42506">
        <ele>159</ele>
        <time>2018-10-06T12:01:27Z</time>
      </trkpt>
      <trkpt lat="43.45918" lon="1.42508">
        <ele>159</ele>
        <time>2018-10-06T12:01:27Z</time>
      </trkpt>
      <trkpt lat="43.45917" lon="1.42511">
        <ele>159</ele>
        <time>2018-10-06T12:01:27Z</time>
      </trkpt>
      <trkpt lat="43.45917" lon="1.42518">
        <ele>159</ele>
        <time>2018-10-06T12:01:27Z</time>
      </trkpt>
      <trkpt lat="43.45919" lon="1.42524">
        <ele>159</ele>
        <time>2018-10-06T12:01:27Z</time>
      </trkpt>
      <trkpt lat="43.45915" lon="1.42532">
        <ele>159</ele>
        <time>2018-10-06T12:01:43Z</time>
      </trkpt>
      <trkpt lat="43.4591" lon="1.42537">
        <ele>159</ele>
        <time>2018-10-06T12:01:43Z</time>
      </trkpt>
      <trkpt lat="43.45907" lon="1.42543">
        <ele>161</ele>
        <time>2018-10-06T12:01:43Z</time>
      </trkpt>
      <trkpt lat="43.45903" lon="1.42547">
        <ele>161</ele>
        <time>2018-10-06T12:01:43Z</time>
      </trkpt>
      <trkpt lat="43.459" lon="1.42549">
        <ele>161</ele>
        <time>2018-10-06T12:02:03Z</time>
      </trkpt>
      <trkpt lat="43.45897" lon="1.42551">
        <ele>161</ele>
        <time>2018-10-06T12:02:03Z</time>
      </trkpt>
      <trkpt lat="43.45897" lon="1.42554">
        <ele>161</ele>
        <time>2018-10-06T12:02:03Z</time>
      </trkpt>
      <trkpt lat="43.45896" lon="1.42554">
        <ele>161</ele>
        <time>2018-10-06T12:02:03Z</time>
      </trkpt>
      <trkpt lat="43.45891" lon="1.4256">
        <ele>161</ele>
        <time>2018-10-06T12:02:04Z</time>
      </trkpt>
      <trkpt lat="43.45879" lon="1.4257">
        <ele>161</ele>
        <time>2018-10-06T12:02:35Z</time>
      </trkpt>
      <trkpt lat="43.45878" lon="1.42574">
        <ele>161</ele>
        <time>2018-10-06T12:02:35Z</time>
      </trkpt>
      <trkpt lat="43.45877" lon="1.42577">
        <ele>161</ele>
        <time>2018-10-06T12:02:35Z</time>
      </trkpt>
      <trkpt lat="43.45874" lon="1.42581">
        <ele>162</ele>
        <time>2018-10-06T12:02:35Z</time>
      </trkpt>
      <trkpt lat="43.45873" lon="1.42594">
        <ele>162</ele>
        <time>2018-10-06T12:02:35Z</time>
      </trkpt>
      <trkpt lat="43.45873" lon="1.42596">
        <ele>162</ele>
        <time>2018-10-06T12:02:51Z</time>
      </trkpt>
      <trkpt lat="43.45873" lon="1.426">
        <ele>162</ele>
        <time>2018-10-06T12:02:51Z</time>
      </trkpt>
      <trkpt lat="43.45869" lon="1.42606">
        <ele>162</ele>
        <time>2018-10-06T12:02:51Z</time>
      </trkpt>
      <trkpt lat="43.45866" lon="1.42612">
        <ele>162</ele>
        <time>2018-10-06T12:02:51Z</time>
      </trkpt>
      <trkpt lat="43.45865" lon="1.42617">
        <ele>162</ele>
        <time>2018-10-06T12:03:07Z</time>
      </trkpt>
      <trkpt lat="43.45866" lon="1.42622">
        <ele>162</ele>
        <time>2018-10-06T12:03:07Z</time>
      </trkpt>
      <trkpt lat="43.45864" lon="1.42628">
        <ele>165</ele>
        <time>2018-10-06T12:03:07Z</time>
      </trkpt>
      <trkpt lat="43.45863" lon="1.42636">
        <ele>165</ele>
        <time>2018-10-06T12:03:07Z</time>
      </trkpt>
      <trkpt lat="43.4586" lon="1.42644">
        <ele>165</ele>
        <time>2018-10-06T12:03:23Z</time>
      </trkpt>
      <trkpt lat="43.4586" lon="1.42651">
        <ele>165</ele>
        <time>2018-10-06T12:03:23Z</time>
      </trkpt>
      <trkpt lat="43.45861" lon="1.42662">
        <ele>165</ele>
        <time>2018-10-06T12:03:23Z</time>
      </trkpt>
      <trkpt lat="43.45859" lon="1.42672">
        <ele>165</ele>
        <time>2018-10-06T12:03:23Z</time>
      </trkpt>
      <trkpt lat="43.45857" lon="1.42683">
        <ele>165</ele>
        <time>2018-10-06T12:03:39Z</time>
      </trkpt>
      <trkpt lat="43.45853" lon="1.42689">
        <ele>165</ele>
        <time>2018-10-06T12:03:39Z</time>
      </trkpt>
      <trkpt lat="43.45849" lon="1.42693">
        <ele>165</ele>
        <time>2018-10-06T12:03:39Z</time>
      </trkpt>
      <trkpt lat="43.45844" lon="1.42702">
        <ele>165</ele>
        <time>2018-10-06T12:03:39Z</time>
      </trkpt>
      <trkpt lat="43.45842" lon="1.4271">
        <ele>166</ele>
        <time>2018-10-06T12:03:55Z</time>
      </trkpt>
      <trkpt lat="43.45839" lon="1.42717">
        <ele>166</ele>
        <time>2018-10-06T12:03:55Z</time>
      </trkpt>
      <trkpt lat="43.45838" lon="1.42723">
        <ele>166</ele>
        <time>2018-10-06T12:03:55Z</time>
      </trkpt>
      <trkpt lat="43.45836" lon="1.42724">
        <ele>166</ele>
        <time>2018-10-06T12:03:55Z</time>
      </trkpt>
      <trkpt lat="43.45835" lon="1.42724">
        <ele>166</ele>
        <time>2018-10-06T12:04:11Z</time>
      </trkpt>
      <trkpt lat="43.45833" lon="1.42731">
        <ele>166</ele>
        <time>2018-10-06T12:04:11Z</time>
      </trkpt>
      <trkpt lat="43.45833" lon="1.42735">
        <ele>166</ele>
        <time>2018-10-06T12:04:11Z</time>
      </trkpt>
      <trkpt lat="43.45835" lon="1.42742">
        <ele>166</ele>
        <time>2018-10-06T12:04:11Z</time>
      </trkpt>
      <trkpt lat="43.45835" lon="1.42747">
        <ele>166</ele>
        <time>2018-10-06T12:04:27Z</time>
      </trkpt>
      <trkpt lat="43.45835" lon="1.42756">
        <ele>166</ele>
        <time>2018-10-06T12:04:27Z</time>
      </trkpt>
      <trkpt lat="43.45834" lon="1.42761">
        <ele>166</ele>
        <time>2018-10-06T12:04:27Z</time>
      </trkpt>
      <trkpt lat="43.4583" lon="1.42768">
        <ele>166</ele>
        <time>2018-10-06T12:04:27Z</time>
      </trkpt>
      <trkpt lat="43.45829" lon="1.42776">
        <ele>166</ele>
        <time>2018-10-06T12:04:43Z</time>
      </trkpt>
      <trkpt lat="43.45826" lon="1.4278">
        <ele>166</ele>
        <time>2018-10-06T12:04:43Z</time>
      </trkpt>
      <trkpt lat="43.4582" lon="1.42784">
        <ele>166</ele>
        <time>2018-10-06T12:04:43Z</time>
      </trkpt>
      <trkpt lat="43.45815" lon="1.42792">
        <ele>166</ele>
        <time>2018-10-06T12:04:43Z</time>
      </trkpt>
      <trkpt lat="43.45814" lon="1.42794">
        <ele>171</ele>
        <time>2018-10-06T12:04:59Z</time>
      </trkpt>
      <trkpt lat="43.45809" lon="1.42803">
        <ele>171</ele>
        <time>2018-10-06T12:04:59Z</time>
      </trkpt>
      <trkpt lat="43.45803" lon="1.42808">
        <ele>171</ele>
        <time>2018-10-06T12:04:59Z</time>
      </trkpt>
      <trkpt lat="43.45797" lon="1.42812">
        <ele>171</ele>
        <time>2018-10-06T12:04:59Z</time>
      </trkpt>
      <trkpt lat="43.45792" lon="1.4282">
        <ele>164</ele>
        <time>2018-10-06T12:05:15Z</time>
      </trkpt>
      <trkpt lat="43.45788" lon="1.42826">
        <ele>164</ele>
        <time>2018-10-06T12:05:15Z</time>
      </trkpt>
      <trkpt lat="43.45785" lon="1.42831">
        <ele>164</ele>
        <time>2018-10-06T12:05:15Z</time>
      </trkpt>
      <trkpt lat="43.45783" lon="1.42835">
        <ele>164</ele>
        <time>2018-10-06T12:05:15Z</time>
      </trkpt>
      <trkpt lat="43.45781" lon="1.42841">
        <ele>164</ele>
        <time>2018-10-06T12:05:31Z</time>
      </trkpt>
      <trkpt lat="43.45778" lon="1.42846">
        <ele>164</ele>
        <time>2018-10-06T12:05:31Z</time>
      </trkpt>
      <trkpt lat="43.45776" lon="1.42849">
        <ele>164</ele>
        <time>2018-10-06T12:05:31Z</time>
      </trkpt>
      <trkpt lat="43.45773" lon="1.42854">
        <ele>164</ele>
        <time>2018-10-06T12:05:31Z</time>
      </trkpt>
      <trkpt lat="43.45772" lon="1.42856">
        <ele>164</ele>
        <time>2018-10-06T12:05:47Z</time>
      </trkpt>
      <trkpt lat="43.45768" lon="1.4286">
        <ele>164</ele>
        <time>2018-10-06T12:05:47Z</time>
      </trkpt>
      <trkpt lat="43.45765" lon="1.42864">
        <ele>164</ele>
        <time>2018-10-06T12:05:47Z</time>
      </trkpt>
      <trkpt lat="43.45766" lon="1.42872">
        <ele>164</ele>
        <time>2018-10-06T12:05:47Z</time>
      </trkpt>
      <trkpt lat="43.45765" lon="1.42883">
        <ele>168</ele>
        <time>2018-10-06T12:06:11Z</time>
      </trkpt>
      <trkpt lat="43.45765" lon="1.42884">
        <ele>168</ele>
        <time>2018-10-06T12:06:11Z</time>
      </trkpt>
      <trkpt lat="43.45765" lon="1.42885">
        <ele>168</ele>
        <time>2018-10-06T12:06:11Z</time>
      </trkpt>
      <trkpt lat="43.45763" lon="1.42889">
        <ele>168</ele>
        <time>2018-10-06T12:06:11Z</time>
      </trkpt>
      <trkpt lat="43.45761" lon="1.42894">
        <ele>168</ele>
        <time>2018-10-06T12:06:11Z</time>
      </trkpt>
      <trkpt lat="43.45759" lon="1.42895">
        <ele>168</ele>
        <time>2018-10-06T12:06:27Z</time>
      </trkpt>
      <trkpt lat="43.45758" lon="1.42899">
        <ele>168</ele>
        <time>2018-10-06T12:06:27Z</time>
      </trkpt>
      <trkpt lat="43.45759" lon="1.42904">
        <ele>168</ele>
        <time>2018-10-06T12:06:27Z</time>
      </trkpt>
      <trkpt lat="43.4576" lon="1.42908">
        <ele>168</ele>
        <time>2018-10-06T12:06:27Z</time>
      </trkpt>
      <trkpt lat="43.45757" lon="1.42912">
        <ele>168</ele>
        <time>2018-10-06T12:06:51Z</time>
      </trkpt>
      <trkpt lat="43.45756" lon="1.42912">
        <ele>168</ele>
        <time>2018-10-06T12:06:51Z</time>
      </trkpt>
      <trkpt lat="43.45756" lon="1.42912">
        <ele>168</ele>
        <time>2018-10-06T12:06:51Z</time>
      </trkpt>
      <trkpt lat="43.45755" lon="1.42915">
        <ele>168</ele>
        <time>2018-10-06T12:06:51Z</time>
      </trkpt>
      <trkpt lat="43.45754" lon="1.42925">
        <ele>168</ele>
        <time>2018-10-06T12:06:51Z</time>
      </trkpt>
      <trkpt lat="43.45753" lon="1.42933">
        <ele>168</ele>
        <time>2018-10-06T12:07:07Z</time>
      </trkpt>
      <trkpt lat="43.45754" lon="1.42942">
        <ele>168</ele>
        <time>2018-10-06T12:07:07Z</time>
      </trkpt>
      <trkpt lat="43.45754" lon="1.42944">
        <ele>168</ele>
        <time>2018-10-06T12:07:07Z</time>
      </trkpt>
      <trkpt lat="43.45753" lon="1.4295">
        <ele>168</ele>
        <time>2018-10-06T12:07:07Z</time>
      </trkpt>
      <trkpt lat="43.45751" lon="1.42959">
        <ele>172</ele>
        <time>2018-10-06T12:07:31Z</time>
      </trkpt>
      <trkpt lat="43.45749" lon="1.42959">
        <ele>172</ele>
        <time>2018-10-06T12:07:31Z</time>
      </trkpt>
      <trkpt lat="43.45749" lon="1.4296">
        <ele>172</ele>
        <time>2018-10-06T12:07:31Z</time>
      </trkpt>
      <trkpt lat="43.45747" lon="1.42962">
        <ele>172</ele>
        <time>2018-10-06T12:07:31Z</time>
      </trkpt>
      <trkpt lat="43.45747" lon="1.42967">
        <ele>172</ele>
        <time>2018-10-06T12:07:31Z</time>
      </trkpt>
      <trkpt lat="43.45747" lon="1.42969">
        <ele>172</ele>
        <time>2018-10-06T12:07:47Z</time>
      </trkpt>
      <trkpt lat="43.45746" lon="1.42975">
        <ele>172</ele>
        <time>2018-10-06T12:07:47Z</time>
      </trkpt>
      <trkpt lat="43.45745" lon="1.42981">
        <ele>172</ele>
        <time>2018-10-06T12:07:47Z</time>
      </trkpt>
      <trkpt lat="43.45744" lon="1.42983">
        <ele>172</ele>
        <time>2018-10-06T12:07:47Z</time>
      </trkpt>
      <trkpt lat="43.45747" lon="1.42993">
        <ele>172</ele>
        <time>2018-10-06T12:08:03Z</time>
      </trkpt>
      <trkpt lat="43.45747" lon="1.43002">
        <ele>172</ele>
        <time>2018-10-06T12:08:03Z</time>
      </trkpt>
      <trkpt lat="43.45745" lon="1.43006">
        <ele>172</ele>
        <time>2018-10-06T12:08:03Z</time>
      </trkpt>
      <trkpt lat="43.45744" lon="1.4301">
        <ele>172</ele>
        <time>2018-10-06T12:08:03Z</time>
      </trkpt>
      <trkpt lat="43.45742" lon="1.43017">
        <ele>172</ele>
        <time>2018-10-06T12:08:19Z</time>
      </trkpt>
      <trkpt lat="43.45739" lon="1.43027">
        <ele>172</ele>
        <time>2018-10-06T12:08:19Z</time>
      </trkpt>
      <trkpt lat="43.45738" lon="1.4303">
        <ele>172</ele>
        <time>2018-10-06T12:08:19Z</time>
      </trkpt>
      <trkpt lat="43.45739" lon="1.43039">
        <ele>172</ele>
        <time>2018-10-06T12:08:19Z</time>
      </trkpt>
      <trkpt lat="43.45738" lon="1.43043">
        <ele>180</ele>
        <time>2018-10-06T12:08:39Z</time>
      </trkpt>
      <trkpt lat="43.45737" lon="1.4305">
        <ele>180</ele>
        <time>2018-10-06T12:08:39Z</time>
      </trkpt>
      <trkpt lat="43.45736" lon="1.43054">
        <ele>180</ele>
        <time>2018-10-06T12:08:39Z</time>
      </trkpt>
      <trkpt lat="43.45736" lon="1.43055">
        <ele>180</ele>
        <time>2018-10-06T12:08:39Z</time>
      </trkpt>
      <trkpt lat="43.45733" lon="1.43061">
        <ele>180</ele>
        <time>2018-10-06T12:08:39Z</time>
      </trkpt>
      <trkpt lat="43.45729" lon="1.43066">
        <ele>180</ele>
        <time>2018-10-06T12:08:55Z</time>
      </trkpt>
      <trkpt lat="43.45725" lon="1.43073">
        <ele>180</ele>
        <time>2018-10-06T12:08:55Z</time>
      </trkpt>
      <trkpt lat="43.45721" lon="1.43077">
        <ele>180</ele>
        <time>2018-10-06T12:08:55Z</time>
      </trkpt>
      <trkpt lat="43.45719" lon="1.4308">
        <ele>180</ele>
        <time>2018-10-06T12:08:55Z</time>
      </trkpt>
      <trkpt lat="43.45717" lon="1.43083">
        <ele>180</ele>
        <time>2018-10-06T12:09:11Z</time>
      </trkpt>
      <trkpt lat="43.45715" lon="1.43087">
        <ele>180</ele>
        <time>2018-10-06T12:09:11Z</time>
      </trkpt>
      <trkpt lat="43.45713" lon="1.43093">
        <ele>180</ele>
        <time>2018-10-06T12:09:11Z</time>
      </trkpt>
      <trkpt lat="43.45711" lon="1.43094">
        <ele>180</ele>
        <time>2018-10-06T12:09:11Z</time>
      </trkpt>
      <trkpt lat="43.45708" lon="1.431">
        <ele>164</ele>
        <time>2018-10-06T12:09:27Z</time>
      </trkpt>
      <trkpt lat="43.45704" lon="1.431">
        <ele>164</ele>
        <time>2018-10-06T12:09:27Z</time>
      </trkpt>
      <trkpt lat="43.45701" lon="1.43101">
        <ele>164</ele>
        <time>2018-10-06T12:09:27Z</time>
      </trkpt>
      <trkpt lat="43.457" lon="1.43107">
        <ele>164</ele>
        <time>2018-10-06T12:09:27Z</time>
      </trkpt>
      <trkpt lat="43.45699" lon="1.43111">
        <ele>164</ele>
        <time>2018-10-06T12:09:43Z</time>
      </trkpt>
      <trkpt lat="43.45698" lon="1.43113">
        <ele>164</ele>
        <time>2018-10-06T12:09:43Z</time>
      </trkpt>
      <trkpt lat="43.45696" lon="1.43117">
        <ele>164</ele>
        <time>2018-10-06T12:09:43Z</time>
      </trkpt>
      <trkpt lat="43.45693" lon="1.43124">
        <ele>164</ele>
        <time>2018-10-06T12:09:43Z</time>
      </trkpt>
      <trkpt lat="43.45692" lon="1.43133">
        <ele>170</ele>
        <time>2018-10-06T12:09:59Z</time>
      </trkpt>
      <trkpt lat="43.45695" lon="1.43138">
        <ele>170</ele>
        <time>2018-10-06T12:09:59Z</time>
      </trkpt>
      <trkpt lat="43.45696" lon="1.43144">
        <ele>170</ele>
        <time>2018-10-06T12:09:59Z</time>
      </trkpt>
      <trkpt lat="43.45694" lon="1.43147">
        <ele>170</ele>
        <time>2018-10-06T12:09:59Z</time>
      </trkpt>
      <trkpt lat="43.45691" lon="1.43148">
        <ele>170</ele>
        <time>2018-10-06T12:10:31Z</time>
      </trkpt>
      <trkpt lat="43.45691" lon="1.4315">
        <ele>170</ele>
        <time>2018-10-06T12:10:31Z</time>
      </trkpt>
      <trkpt lat="43.45688" lon="1.43154">
        <ele>170</ele>
        <time>2018-10-06T12:10:31Z</time>
      </trkpt>
      <trkpt lat="43.45685" lon="1.43162">
        <ele>170</ele>
        <time>2018-10-06T12:10:31Z</time>
      </trkpt>
      <trkpt lat="43.45685" lon="1.43166">
        <ele>170</ele>
        <time>2018-10-06T12:10:31Z</time>
      </trkpt>
      <trkpt lat="43.45684" lon="1.4317">
        <ele>170</ele>
        <time>2018-10-06T12:10:47Z</time>
      </trkpt>
      <trkpt lat="43.45683" lon="1.43175">
        <ele>170</ele>
        <time>2018-10-06T12:10:47Z</time>
      </trkpt>
      <trkpt lat="43.45682" lon="1.43182">
        <ele>170</ele>
        <time>2018-10-06T12:10:47Z</time>
      </trkpt>
      <trkpt lat="43.4568" lon="1.43186">
        <ele>170</ele>
        <time>2018-10-06T12:10:47Z</time>
      </trkpt>
      <trkpt lat="43.45678" lon="1.4319">
        <ele>170</ele>
        <time>2018-10-06T12:11:03Z</time>
      </trkpt>
      <trkpt lat="43.45681" lon="1.43194">
        <ele>170</ele>
        <time>2018-10-06T12:11:03Z</time>
      </trkpt>
      <trkpt lat="43.45684" lon="1.43194">
        <ele>170</ele>
        <time>2018-10-06T12:11:03Z</time>
      </trkpt>
      <trkpt lat="43.45687" lon="1.43193">
        <ele>170</ele>
        <time>2018-10-06T12:11:03Z</time>
      </trkpt>
      <trkpt lat="43.45688" lon="1.43197">
        <ele>170</ele>
        <time>2018-10-06T12:11:27Z</time>
      </trkpt>
      <trkpt lat="43.45688" lon="1.43198">
        <ele>170</ele>
        <time>2018-10-06T12:11:27Z</time>
      </trkpt>
      <trkpt lat="43.45689" lon="1.43202">
        <ele>170</ele>
        <time>2018-10-06T12:11:27Z</time>
      </trkpt>
      <trkpt lat="43.45692" lon="1.43203">
        <ele>170</ele>
        <time>2018-10-06T12:11:27Z</time>
      </trkpt>
      <trkpt lat="43.45696" lon="1.43204">
        <ele>170</ele>
        <time>2018-10-06T12:11:27Z</time>
      </trkpt>
      <trkpt lat="43.45698" lon="1.43204">
        <ele>170</ele>
        <time>2018-10-06T12:11:51Z</time>
      </trkpt>
      <trkpt lat="43.45699" lon="1.43204">
        <ele>170</ele>
        <time>2018-10-06T12:11:51Z</time>
      </trkpt>
      <trkpt lat="43.45701" lon="1.43203">
        <ele>170</ele>
        <time>2018-10-06T12:11:51Z</time>
      </trkpt>
      <trkpt lat="43.45703" lon="1.43199">
        <ele>170</ele>
        <time>2018-10-06T12:11:51Z</time>
      </trkpt>
      <trkpt lat="43.4571" lon="1.43197">
        <ele>201</ele>
        <time>2018-10-06T12:11:51Z</time>
      </trkpt>
      <trkpt lat="43.45715" lon="1.43196">
        <ele>201</ele>
        <time>2018-10-06T12:12:07Z</time>
      </trkpt>
      <trkpt lat="43.45717" lon="1.43195">
        <ele>201</ele>
        <time>2018-10-06T12:12:07Z</time>
      </trkpt>
      <trkpt lat="43.4572" lon="1.43191">
        <ele>201</ele>
        <time>2018-10-06T12:12:07Z</time>
      </trkpt>
      <trkpt lat="43.45723" lon="1.43186">
        <ele>201</ele>
        <time>2018-10-06T12:12:07Z</time>
      </trkpt>
      <trkpt lat="43.45723" lon="1.43184">
        <ele>201</ele>
        <time>2018-10-06T12:12:27Z</time>
      </trkpt>
      <trkpt lat="43.45725" lon="1.43181">
        <ele>201</ele>
        <time>2018-10-06T12:12:27Z</time>
      </trkpt>
      <trkpt lat="43.45727" lon="1.43178">
        <ele>201</ele>
        <time>2018-10-06T12:12:27Z</time>
      </trkpt>
      <trkpt lat="43.45729" lon="1.43175">
        <ele>201</ele>
        <time>2018-10-06T12:12:27Z</time>
      </trkpt>
      <trkpt lat="43.45733" lon="1.43171">
        <ele>201</ele>
        <time>2018-10-06T12:12:27Z</time>
      </trkpt>
      <trkpt lat="43.45735" lon="1.43171">
        <ele>201</ele>
        <time>2018-10-06T12:12:51Z</time>
      </trkpt>
      <trkpt lat="43.45733" lon="1.43173">
        <ele>201</ele>
        <time>2018-10-06T12:12:51Z</time>
      </trkpt>
      <trkpt lat="43.45731" lon="1.43174">
        <ele>201</ele>
        <time>2018-10-06T12:12:51Z</time>
      </trkpt>
      <trkpt lat="43.45728" lon="1.43176">
        <ele>201</ele>
        <time>2018-10-06T12:12:51Z</time>
      </trkpt>
      <trkpt lat="43.45728" lon="1.43181">
        <ele>201</ele>
        <time>2018-10-06T12:12:51Z</time>
      </trkpt>
      <trkpt lat="43.45728" lon="1.43186">
        <ele>201</ele>
        <time>2018-10-06T12:13:15Z</time>
      </trkpt>
      <trkpt lat="43.45729" lon="1.43191">
        <ele>201</ele>
        <time>2018-10-06T12:13:15Z</time>
      </trkpt>
      <trkpt lat="43.45728" lon="1.43192">
        <ele>201</ele>
        <time>2018-10-06T12:13:15Z</time>
      </trkpt>
      <trkpt lat="43.45727" lon="1.43194">
        <ele>201</ele>
        <time>2018-10-06T12:13:15Z</time>
      </trkpt>
      <trkpt lat="43.45724" lon="1.43198">
        <ele>201</ele>
        <time>2018-10-06T12:13:15Z</time>
      </trkpt>
      <trkpt lat="43.45724" lon="1.43202">
        <ele>201</ele>
        <time>2018-10-06T12:13:35Z</time>
      </trkpt>
      <trkpt lat="43.45723" lon="1.43204">
        <ele>201</ele>
        <time>2018-10-06T12:13:35Z</time>
      </trkpt>
      <trkpt lat="43.45723" lon="1.43208">
        <ele>201</ele>
        <time>2018-10-06T12:13:35Z</time>
      </trkpt>
      <trkpt lat="43.45722" lon="1.43212">
        <ele>224</ele>
        <time>2018-10-06T12:13:35Z</time>
      </trkpt>
      <trkpt lat="43.45721" lon="1.43216">
        <ele>224</ele>
        <time>2018-10-06T12:13:35Z</time>
      </trkpt>
      <trkpt lat="43.45716" lon="1.43219">
        <ele>224</ele>
        <time>2018-10-06T12:13:51Z</time>
      </trkpt>
      <trkpt lat="43.45712" lon="1.43226">
        <ele>224</ele>
        <time>2018-10-06T12:13:51Z</time>
      </trkpt>
      <trkpt lat="43.45708" lon="1.43232">
        <ele>192</ele>
        <time>2018-10-06T12:13:51Z</time>
      </trkpt>
      <trkpt lat="43.45704" lon="1.43236">
        <ele>192</ele>
        <time>2018-10-06T12:13:51Z</time>
      </trkpt>
      <trkpt lat="43.45696" lon="1.43248">
        <ele>192</ele>
        <time>2018-10-06T12:16:35Z</time>
      </trkpt>
      <trkpt lat="43.45697" lon="1.43249">
        <ele>192</ele>
        <time>2018-10-06T12:16:35Z</time>
      </trkpt>
      <trkpt lat="43.45694" lon="1.43249">
        <ele>192</ele>
        <time>2018-10-06T12:16:35Z</time>
      </trkpt>
      <trkpt lat="43.45694" lon="1.4325">
        <ele>192</ele>
        <time>2018-10-06T12:16:35Z</time>
      </trkpt>
      <trkpt lat="43.45693" lon="1.43252">
        <ele>192</ele>
        <time>2018-10-06T12:16:35Z</time>
      </trkpt>
      <trkpt lat="43.45693" lon="1.43251">
        <ele>192</ele>
        <time>2018-10-06T12:17:47Z</time>
      </trkpt>
      <trkpt lat="43.45692" lon="1.43251">
        <ele>192</ele>
        <time>2018-10-06T12:17:47Z</time>
      </trkpt>
      <trkpt lat="43.45687" lon="1.43251">
        <ele>192</ele>
        <time>2018-10-06T12:17:47Z</time>
      </trkpt>
      <trkpt lat="43.45686" lon="1.43252">
        <ele>192</ele>
        <time>2018-10-06T12:17:47Z</time>
      </trkpt>
      <trkpt lat="43.45682" lon="1.43251">
        <ele>192</ele>
        <time>2018-10-06T12:17:47Z</time>
      </trkpt>
      <trkpt lat="43.45676" lon="1.43254">
        <ele>192</ele>
        <time>2018-10-06T12:18:03Z</time>
      </trkpt>
      <trkpt lat="43.45673" lon="1.4326">
        <ele>192</ele>
        <time>2018-10-06T12:18:03Z</time>
      </trkpt>
      <trkpt lat="43.45671" lon="1.43265">
        <ele>192</ele>
        <time>2018-10-06T12:18:03Z</time>
      </trkpt>
      <trkpt lat="43.45669" lon="1.43267">
        <ele>192</ele>
        <time>2018-10-06T12:18:03Z</time>
      </trkpt>
      <trkpt lat="43.45666" lon="1.43269">
        <ele>192</ele>
        <time>2018-10-06T12:18:19Z</time>
      </trkpt>
      <trkpt lat="43.45663" lon="1.4327">
        <ele>192</ele>
        <time>2018-10-06T12:18:19Z</time>
      </trkpt>
      <trkpt lat="43.4566" lon="1.43271">
        <ele>192</ele>
        <time>2018-10-06T12:18:19Z</time>
      </trkpt>
      <trkpt lat="43.45656" lon="1.43269">
        <ele>192</ele>
        <time>2018-10-06T12:18:19Z</time>
      </trkpt>
      <trkpt lat="43.45652" lon="1.4327">
        <ele>192</ele>
        <time>2018-10-06T12:18:35Z</time>
      </trkpt>
      <trkpt lat="43.45649" lon="1.43272">
        <ele>192</ele>
        <time>2018-10-06T12:18:35Z</time>
      </trkpt>
      <trkpt lat="43.45644" lon="1.43275">
        <ele>192</ele>
        <time>2018-10-06T12:18:35Z</time>
      </trkpt>
      <trkpt lat="43.45641" lon="1.43278">
        <ele>192</ele>
        <time>2018-10-06T12:18:36Z</time>
      </trkpt>
      <trkpt lat="43.45638" lon="1.43281">
        <ele>192</ele>
        <time>2018-10-06T12:18:51Z</time>
      </trkpt>
      <trkpt lat="43.45634" lon="1.43282">
        <ele>192</ele>
        <time>2018-10-06T12:18:51Z</time>
      </trkpt>
      <trkpt lat="43.45631" lon="1.43281">
        <ele>192</ele>
        <time>2018-10-06T12:18:51Z</time>
      </trkpt>
      <trkpt lat="43.45628" lon="1.43284">
        <ele>192</ele>
        <time>2018-10-06T12:18:51Z</time>
      </trkpt>
      <trkpt lat="43.45625" lon="1.43286">
        <ele>192</ele>
        <time>2018-10-06T12:19:07Z</time>
      </trkpt>
      <trkpt lat="43.45621" lon="1.43287">
        <ele>171</ele>
        <time>2018-10-06T12:19:07Z</time>
      </trkpt>
      <trkpt lat="43.45617" lon="1.4329">
        <ele>171</ele>
        <time>2018-10-06T12:19:07Z</time>
      </trkpt>
      <trkpt lat="43.45615" lon="1.43292">
        <ele>180</ele>
        <time>2018-10-06T12:19:07Z</time>
      </trkpt>
      <trkpt lat="43.45609" lon="1.43293">
        <ele>180</ele>
        <time>2018-10-06T12:19:23Z</time>
      </trkpt>
      <trkpt lat="43.45604" lon="1.43293">
        <ele>180</ele>
        <time>2018-10-06T12:19:23Z</time>
      </trkpt>
      <trkpt lat="43.456" lon="1.43294">
        <ele>180</ele>
        <time>2018-10-06T12:19:23Z</time>
      </trkpt>
      <trkpt lat="43.45596" lon="1.43294">
        <ele>180</ele>
        <time>2018-10-06T12:19:23Z</time>
      </trkpt>
      <trkpt lat="43.45593" lon="1.43294">
        <ele>180</ele>
        <time>2018-10-06T12:19:39Z</time>
      </trkpt>
      <trkpt lat="43.45588" lon="1.43295">
        <ele>180</ele>
        <time>2018-10-06T12:19:39Z</time>
      </trkpt>
      <trkpt lat="43.45585" lon="1.43295">
        <ele>180</ele>
        <time>2018-10-06T12:19:39Z</time>
      </trkpt>
      <trkpt lat="43.45582" lon="1.43299">
        <ele>180</ele>
        <time>2018-10-06T12:19:39Z</time>
      </trkpt>
      <trkpt lat="43.45577" lon="1.43303">
        <ele>180</ele>
        <time>2018-10-06T12:19:55Z</time>
      </trkpt>
      <trkpt lat="43.45572" lon="1.43306">
        <ele>180</ele>
        <time>2018-10-06T12:19:55Z</time>
      </trkpt>
      <trkpt lat="43.45568" lon="1.43306">
        <ele>180</ele>
        <time>2018-10-06T12:19:55Z</time>
      </trkpt>
      <trkpt lat="43.45563" lon="1.43307">
        <ele>180</ele>
        <time>2018-10-06T12:19:55Z</time>
      </trkpt>
      <trkpt lat="43.45559" lon="1.43307">
        <ele>180</ele>
        <time>2018-10-06T12:20:11Z</time>
      </trkpt>
      <trkpt lat="43.45555" lon="1.4331">
        <ele>180</ele>
        <time>2018-10-06T12:20:11Z</time>
      </trkpt>
      <trkpt lat="43.45554" lon="1.43316">
        <ele>180</ele>
        <time>2018-10-06T12:20:11Z</time>
      </trkpt>
      <trkpt lat="43.45552" lon="1.43319">
        <ele>180</ele>
        <time>2018-10-06T12:20:11Z</time>
      </trkpt>
      <trkpt lat="43.45551" lon="1.43321">
        <ele>180</ele>
        <time>2018-10-06T12:20:27Z</time>
      </trkpt>
      <trkpt lat="43.45548" lon="1.43327">
        <ele>180</ele>
        <time>2018-10-06T12:20:27Z</time>
      </trkpt>
      <trkpt lat="43.45546" lon="1.43335">
        <ele>180</ele>
        <time>2018-10-06T12:20:27Z</time>
      </trkpt>
      <trkpt lat="43.45548" lon="1.43343">
        <ele>180</ele>
        <time>2018-10-06T12:20:27Z</time>
      </trkpt>
      <trkpt lat="43.4555" lon="1.43348">
        <ele>180</ele>
        <time>2018-10-06T12:20:43Z</time>
      </trkpt>
      <trkpt lat="43.45547" lon="1.43353">
        <ele>180</ele>
        <time>2018-10-06T12:20:43Z</time>
      </trkpt>
      <trkpt lat="43.45546" lon="1.43359">
        <ele>180</ele>
        <time>2018-10-06T12:20:43Z</time>
      </trkpt>
      <trkpt lat="43.45546" lon="1.43366">
        <ele>180</ele>
        <time>2018-10-06T12:20:43Z</time>
      </trkpt>
      <trkpt lat="43.45547" lon="1.43376">
        <ele>180</ele>
        <time>2018-10-06T12:20:59Z</time>
      </trkpt>
      <trkpt lat="43.45548" lon="1.43387">
        <ele>180</ele>
        <time>2018-10-06T12:20:59Z</time>
      </trkpt>
      <trkpt lat="43.45551" lon="1.43394">
        <ele>180</ele>
        <time>2018-10-06T12:20:59Z</time>
      </trkpt>
      <trkpt lat="43.45553" lon="1.434">
        <ele>180</ele>
        <time>2018-10-06T12:20:59Z</time>
      </trkpt>
      <trkpt lat="43.45554" lon="1.43405">
        <ele>180</ele>
        <time>2018-10-06T12:21:15Z</time>
      </trkpt>
      <trkpt lat="43.45555" lon="1.43412">
        <ele>180</ele>
        <time>2018-10-06T12:21:15Z</time>
      </trkpt>
      <trkpt lat="43.45553" lon="1.43419">
        <ele>180</ele>
        <time>2018-10-06T12:21:15Z</time>
      </trkpt>
      <trkpt lat="43.45552" lon="1.43429">
        <ele>180</ele>
        <time>2018-10-06T12:21:15Z</time>
      </trkpt>
      <trkpt lat="43.45559" lon="1.43432">
        <ele>180</ele>
        <time>2018-10-06T12:21:47Z</time>
      </trkpt>
      <trkpt lat="43.4556" lon="1.43433">
        <ele>180</ele>
        <time>2018-10-06T12:21:47Z</time>
      </trkpt>
      <trkpt lat="43.45562" lon="1.43435">
        <ele>180</ele>
        <time>2018-10-06T12:21:47Z</time>
      </trkpt>
      <trkpt lat="43.45562" lon="1.43437">
        <ele>180</ele>
        <time>2018-10-06T12:21:47Z</time>
      </trkpt>
      <trkpt lat="43.45563" lon="1.43438">
        <ele>180</ele>
        <time>2018-10-06T12:21:47Z</time>
      </trkpt>
    </trkseg>
  </trk>
</gpx>